<?xml version="1.0" encoding="UTF-8" standalone="no" ?>
<gpx xmlns="http://www.topografix.com/GPX/1/1" creator="www.cicloide.com" version="1.1" xmlns:xsi="http://www.w3.org/2001/XMLSchema-instance" xsi:schemaLocation="http://www.topografix.com/GPX/1/1 http://www.topografix.com/GPX/1/1/gpx.xsd">
  <trk>
    <name>www.cicloide.com 18757</name>
    <desc>www.cicloide.com 18757</desc>
    <trkseg>
      <trkpt lat="41.605758707" lon="2.540322559">
        <ele>135.68</ele>
        <time>2014-07-06T07:36:00Z</time>
      </trkpt>
      <trkpt lat="41.605772872" lon="2.540373521">
        <ele>135.68</ele>
        <time>2014-07-06T07:36:14Z</time>
      </trkpt>
      <trkpt lat="41.605767592" lon="2.540367737">
        <ele>135.68</ele>
        <time>2014-07-06T07:36:34Z</time>
      </trkpt>
      <trkpt lat="41.605779243" lon="2.540342340">
        <ele>135.68</ele>
        <time>2014-07-06T07:36:50Z</time>
      </trkpt>
      <trkpt lat="41.605781003" lon="2.540344017">
        <ele>135.68</ele>
        <time>2014-07-06T07:36:51Z</time>
      </trkpt>
      <trkpt lat="41.605781422" lon="2.540347537">
        <ele>135.68</ele>
        <time>2014-07-06T07:36:52Z</time>
      </trkpt>
      <trkpt lat="41.605792821" lon="2.540357344">
        <ele>135.68</ele>
        <time>2014-07-06T07:37:04Z</time>
      </trkpt>
      <trkpt lat="41.605809250" lon="2.540383076">
        <ele>135.68</ele>
        <time>2014-07-06T07:37:13Z</time>
      </trkpt>
      <trkpt lat="41.605820649" lon="2.540409312">
        <ele>135.68</ele>
        <time>2014-07-06T07:37:18Z</time>
      </trkpt>
      <trkpt lat="41.605868342" lon="2.540427836">
        <ele>135.68</ele>
        <time>2014-07-06T07:37:22Z</time>
      </trkpt>
      <trkpt lat="41.605890638" lon="2.540423058">
        <ele>135.68</ele>
        <time>2014-07-06T07:37:24Z</time>
      </trkpt>
      <trkpt lat="41.605918718" lon="2.540423645">
        <ele>135.68</ele>
        <time>2014-07-06T07:37:32Z</time>
      </trkpt>
      <trkpt lat="41.605914359" lon="2.540419119">
        <ele>135.68</ele>
        <time>2014-07-06T07:37:51Z</time>
      </trkpt>
      <trkpt lat="41.606015109" lon="2.540388692">
        <ele>135.68</ele>
        <time>2014-07-06T07:37:56Z</time>
      </trkpt>
      <trkpt lat="41.606190291" lon="2.540410401">
        <ele>135.68</ele>
        <time>2014-07-06T07:38:02Z</time>
      </trkpt>
      <trkpt lat="41.606364216" lon="2.540498076">
        <ele>135.68</ele>
        <time>2014-07-06T07:38:10Z</time>
      </trkpt>
      <trkpt lat="41.606558257" lon="2.540626655">
        <ele>137.13</ele>
        <time>2014-07-06T07:38:19Z</time>
      </trkpt>
      <trkpt lat="41.606796638" lon="2.540740900">
        <ele>137.61</ele>
        <time>2014-07-06T07:38:29Z</time>
      </trkpt>
      <trkpt lat="41.607002330" lon="2.540826228">
        <ele>138.09</ele>
        <time>2014-07-06T07:38:38Z</time>
      </trkpt>
      <trkpt lat="41.607170471" lon="2.540866628">
        <ele>138.57</ele>
        <time>2014-07-06T07:38:45Z</time>
      </trkpt>
      <trkpt lat="41.607387814" lon="2.540903509">
        <ele>139.05</ele>
        <time>2014-07-06T07:38:54Z</time>
      </trkpt>
      <trkpt lat="41.607581519" lon="2.540891271">
        <ele>139.53</ele>
        <time>2014-07-06T07:39:02Z</time>
      </trkpt>
      <trkpt lat="41.607738429" lon="2.540879956">
        <ele>140.49</ele>
        <time>2014-07-06T07:39:09Z</time>
      </trkpt>
      <trkpt lat="41.607906486" lon="2.540857157">
        <ele>140.97</ele>
        <time>2014-07-06T07:39:16Z</time>
      </trkpt>
      <trkpt lat="41.608119554" lon="2.540851457">
        <ele>141.45</ele>
        <time>2014-07-06T07:39:24Z</time>
      </trkpt>
      <trkpt lat="41.608271266" lon="2.540825389">
        <ele>141.93</ele>
        <time>2014-07-06T07:39:30Z</time>
      </trkpt>
      <trkpt lat="41.608461535" lon="2.540787671">
        <ele>142.89</ele>
        <time>2014-07-06T07:39:38Z</time>
      </trkpt>
      <trkpt lat="41.608596903" lon="2.540739056">
        <ele>142.89</ele>
        <time>2014-07-06T07:39:44Z</time>
      </trkpt>
      <trkpt lat="41.608853473" lon="2.540671749">
        <ele>143.85</ele>
        <time>2014-07-06T07:39:54Z</time>
      </trkpt>
      <trkpt lat="41.609042820" lon="2.540634869">
        <ele>144.34</ele>
        <time>2014-07-06T07:40:01Z</time>
      </trkpt>
      <trkpt lat="41.609241974" lon="2.540620117">
        <ele>144.82</ele>
        <time>2014-07-06T07:40:09Z</time>
      </trkpt>
      <trkpt lat="41.609435345" lon="2.540607376">
        <ele>145.78</ele>
        <time>2014-07-06T07:40:18Z</time>
      </trkpt>
      <trkpt lat="41.609607928" lon="2.540568987">
        <ele>146.26</ele>
        <time>2014-07-06T07:40:25Z</time>
      </trkpt>
      <trkpt lat="41.609771040" lon="2.540523725">
        <ele>146.74</ele>
        <time>2014-07-06T07:40:32Z</time>
      </trkpt>
      <trkpt lat="41.609941360" lon="2.540464046">
        <ele>147.22</ele>
        <time>2014-07-06T07:40:39Z</time>
      </trkpt>
      <trkpt lat="41.610105059" lon="2.540390872">
        <ele>147.70</ele>
        <time>2014-07-06T07:40:46Z</time>
      </trkpt>
      <trkpt lat="41.610274793" lon="2.540307220">
        <ele>148.18</ele>
        <time>2014-07-06T07:40:54Z</time>
      </trkpt>
      <trkpt lat="41.610471264" lon="2.540210996">
        <ele>148.66</ele>
        <time>2014-07-06T07:41:02Z</time>
      </trkpt>
      <trkpt lat="41.610643932" lon="2.540125249">
        <ele>149.62</ele>
        <time>2014-07-06T07:41:10Z</time>
      </trkpt>
      <trkpt lat="41.610824897" lon="2.540030031">
        <ele>150.10</ele>
        <time>2014-07-06T07:41:18Z</time>
      </trkpt>
      <trkpt lat="41.611013154" lon="2.539921988">
        <ele>151.06</ele>
        <time>2014-07-06T07:41:26Z</time>
      </trkpt>
      <trkpt lat="41.611197808" lon="2.539798774">
        <ele>151.54</ele>
        <time>2014-07-06T07:41:34Z</time>
      </trkpt>
      <trkpt lat="41.611391262" lon="2.539681176">
        <ele>152.51</ele>
        <time>2014-07-06T07:41:42Z</time>
      </trkpt>
      <trkpt lat="41.611582118" lon="2.539507754">
        <ele>153.47</ele>
        <time>2014-07-06T07:41:51Z</time>
      </trkpt>
      <trkpt lat="41.611756797" lon="2.539323269">
        <ele>153.95</ele>
        <time>2014-07-06T07:42:00Z</time>
      </trkpt>
      <trkpt lat="41.611867606" lon="2.539176585">
        <ele>154.91</ele>
        <time>2014-07-06T07:42:07Z</time>
      </trkpt>
      <trkpt lat="41.612016384" lon="2.539017413">
        <ele>155.39</ele>
        <time>2014-07-06T07:42:15Z</time>
      </trkpt>
      <trkpt lat="41.612143035" lon="2.538807782">
        <ele>156.35</ele>
        <time>2014-07-06T07:42:23Z</time>
      </trkpt>
      <trkpt lat="41.612242528" lon="2.538633103">
        <ele>156.83</ele>
        <time>2014-07-06T07:42:30Z</time>
      </trkpt>
      <trkpt lat="41.612420308" lon="2.538381729">
        <ele>157.79</ele>
        <time>2014-07-06T07:42:40Z</time>
      </trkpt>
      <trkpt lat="41.612550898" lon="2.538213086">
        <ele>158.27</ele>
        <time>2014-07-06T07:42:47Z</time>
      </trkpt>
      <trkpt lat="41.612721805" lon="2.537996162">
        <ele>159.24</ele>
        <time>2014-07-06T07:42:56Z</time>
      </trkpt>
      <trkpt lat="41.612916517" lon="2.537757361">
        <ele>159.72</ele>
        <time>2014-07-06T07:43:06Z</time>
      </trkpt>
      <trkpt lat="41.613101841" lon="2.537529122">
        <ele>160.20</ele>
        <time>2014-07-06T07:43:15Z</time>
      </trkpt>
      <trkpt lat="41.613261265" lon="2.537332902">
        <ele>161.16</ele>
        <time>2014-07-06T07:43:23Z</time>
      </trkpt>
      <trkpt lat="41.613412055" lon="2.537133999">
        <ele>161.64</ele>
        <time>2014-07-06T07:43:31Z</time>
      </trkpt>
      <trkpt lat="41.613575418" lon="2.536879944">
        <ele>162.60</ele>
        <time>2014-07-06T07:43:40Z</time>
      </trkpt>
      <trkpt lat="41.613605007" lon="2.536783300">
        <ele>162.60</ele>
        <time>2014-07-06T07:43:43Z</time>
      </trkpt>
      <trkpt lat="41.613582040" lon="2.536677605">
        <ele>163.56</ele>
        <time>2014-07-06T07:43:50Z</time>
      </trkpt>
      <trkpt lat="41.613659489" lon="2.536550619">
        <ele>163.56</ele>
        <time>2014-07-06T07:43:56Z</time>
      </trkpt>
      <trkpt lat="41.613769459" lon="2.536271418">
        <ele>164.04</ele>
        <time>2014-07-06T07:44:06Z</time>
      </trkpt>
      <trkpt lat="41.613888650" lon="2.535974698">
        <ele>165.00</ele>
        <time>2014-07-06T07:44:16Z</time>
      </trkpt>
      <trkpt lat="41.613994514" lon="2.535685020">
        <ele>165.96</ele>
        <time>2014-07-06T07:44:25Z</time>
      </trkpt>
      <trkpt lat="41.614086463" lon="2.535413027">
        <ele>166.93</ele>
        <time>2014-07-06T07:44:33Z</time>
      </trkpt>
      <trkpt lat="41.614201044" lon="2.535003403">
        <ele>167.89</ele>
        <time>2014-07-06T07:44:45Z</time>
      </trkpt>
      <trkpt lat="41.614315205" lon="2.534654046">
        <ele>169.33</ele>
        <time>2014-07-06T07:44:57Z</time>
      </trkpt>
      <trkpt lat="41.614380500" lon="2.534453299">
        <ele>169.81</ele>
        <time>2014-07-06T07:45:05Z</time>
      </trkpt>
      <trkpt lat="41.614461637" lon="2.534121962">
        <ele>171.25</ele>
        <time>2014-07-06T07:45:15Z</time>
      </trkpt>
      <trkpt lat="41.614537074" lon="2.533850137">
        <ele>171.73</ele>
        <time>2014-07-06T07:45:23Z</time>
      </trkpt>
      <trkpt lat="41.614658863" lon="2.533467587">
        <ele>173.17</ele>
        <time>2014-07-06T07:45:34Z</time>
      </trkpt>
      <trkpt lat="41.614761877" lon="2.533202216">
        <ele>173.66</ele>
        <time>2014-07-06T07:45:42Z</time>
      </trkpt>
      <trkpt lat="41.614848546" lon="2.532888984">
        <ele>174.62</ele>
        <time>2014-07-06T07:45:51Z</time>
      </trkpt>
      <trkpt lat="41.614959774" lon="2.532491934">
        <ele>176.06</ele>
        <time>2014-07-06T07:46:02Z</time>
      </trkpt>
      <trkpt lat="41.615047029" lon="2.532184150">
        <ele>176.54</ele>
        <time>2014-07-06T07:46:11Z</time>
      </trkpt>
      <trkpt lat="41.615099835" lon="2.531808809">
        <ele>177.50</ele>
        <time>2014-07-06T07:46:21Z</time>
      </trkpt>
      <trkpt lat="41.615111989" lon="2.531506641">
        <ele>178.46</ele>
        <time>2014-07-06T07:46:29Z</time>
      </trkpt>
      <trkpt lat="41.615130429" lon="2.531155020">
        <ele>178.94</ele>
        <time>2014-07-06T07:46:39Z</time>
      </trkpt>
      <trkpt lat="41.615163873" lon="2.530813374">
        <ele>179.90</ele>
        <time>2014-07-06T07:46:48Z</time>
      </trkpt>
      <trkpt lat="41.615180134" lon="2.530465860">
        <ele>181.35</ele>
        <time>2014-07-06T07:46:57Z</time>
      </trkpt>
      <trkpt lat="41.615174602" lon="2.530168470">
        <ele>182.79</ele>
        <time>2014-07-06T07:47:05Z</time>
      </trkpt>
      <trkpt lat="41.615180553" lon="2.529828752">
        <ele>183.27</ele>
        <time>2014-07-06T07:47:14Z</time>
      </trkpt>
      <trkpt lat="41.615186504" lon="2.529502444">
        <ele>184.23</ele>
        <time>2014-07-06T07:47:23Z</time>
      </trkpt>
      <trkpt lat="41.615187007" lon="2.529204300">
        <ele>185.67</ele>
        <time>2014-07-06T07:47:31Z</time>
      </trkpt>
      <trkpt lat="41.615219780" lon="2.528941611">
        <ele>185.67</ele>
        <time>2014-07-06T07:47:38Z</time>
      </trkpt>
      <trkpt lat="41.615280214" lon="2.528600300">
        <ele>186.63</ele>
        <time>2014-07-06T07:47:47Z</time>
      </trkpt>
      <trkpt lat="41.615330338" lon="2.528315231">
        <ele>187.11</ele>
        <time>2014-07-06T07:47:55Z</time>
      </trkpt>
      <trkpt lat="41.615401416" lon="2.528006610">
        <ele>188.08</ele>
        <time>2014-07-06T07:48:04Z</time>
      </trkpt>
      <trkpt lat="41.615452965" lon="2.527729085">
        <ele>189.04</ele>
        <time>2014-07-06T07:48:12Z</time>
      </trkpt>
      <trkpt lat="41.615516667" lon="2.527375871">
        <ele>190.00</ele>
        <time>2014-07-06T07:48:22Z</time>
      </trkpt>
      <trkpt lat="41.615562935" lon="2.527091138">
        <ele>191.44</ele>
        <time>2014-07-06T07:48:30Z</time>
      </trkpt>
      <trkpt lat="41.615580202" lon="2.526819397">
        <ele>192.40</ele>
        <time>2014-07-06T07:48:38Z</time>
      </trkpt>
      <trkpt lat="41.615566120" lon="2.526590319">
        <ele>193.84</ele>
        <time>2014-07-06T07:48:45Z</time>
      </trkpt>
      <trkpt lat="41.615540472" lon="2.526297875">
        <ele>194.80</ele>
        <time>2014-07-06T07:48:53Z</time>
      </trkpt>
      <trkpt lat="41.615527145" lon="2.526072486">
        <ele>195.28</ele>
        <time>2014-07-06T07:49:00Z</time>
      </trkpt>
      <trkpt lat="41.615522535" lon="2.525811808">
        <ele>195.77</ele>
        <time>2014-07-06T07:49:08Z</time>
      </trkpt>
      <trkpt lat="41.615513063" lon="2.525489021">
        <ele>196.25</ele>
        <time>2014-07-06T07:49:16Z</time>
      </trkpt>
      <trkpt lat="41.615518008" lon="2.525229937">
        <ele>197.21</ele>
        <time>2014-07-06T07:49:23Z</time>
      </trkpt>
      <trkpt lat="41.615540975" lon="2.525008990">
        <ele>198.17</ele>
        <time>2014-07-06T07:49:30Z</time>
      </trkpt>
      <trkpt lat="41.615553128" lon="2.524738589">
        <ele>199.13</ele>
        <time>2014-07-06T07:49:38Z</time>
      </trkpt>
      <trkpt lat="41.615566959" lon="2.524534993">
        <ele>199.61</ele>
        <time>2014-07-06T07:49:44Z</time>
      </trkpt>
      <trkpt lat="41.615586069" lon="2.524287643">
        <ele>200.57</ele>
        <time>2014-07-06T07:49:51Z</time>
      </trkpt>
      <trkpt lat="41.615604258" lon="2.524070300">
        <ele>202.49</ele>
        <time>2014-07-06T07:49:58Z</time>
      </trkpt>
      <trkpt lat="41.615618507" lon="2.523832087">
        <ele>203.46</ele>
        <time>2014-07-06T07:50:05Z</time>
      </trkpt>
      <trkpt lat="41.615637870" lon="2.523622288">
        <ele>203.94</ele>
        <time>2014-07-06T07:50:11Z</time>
      </trkpt>
      <trkpt lat="41.615659830" lon="2.523375943">
        <ele>203.94</ele>
        <time>2014-07-06T07:50:18Z</time>
      </trkpt>
      <trkpt lat="41.615664356" lon="2.523306709">
        <ele>204.42</ele>
        <time>2014-07-06T07:50:20Z</time>
      </trkpt>
      <trkpt lat="41.615698135" lon="2.523050893">
        <ele>205.38</ele>
        <time>2014-07-06T07:50:28Z</time>
      </trkpt>
      <trkpt lat="41.615756557" lon="2.522720646">
        <ele>206.34</ele>
        <time>2014-07-06T07:50:37Z</time>
      </trkpt>
      <trkpt lat="41.615814812" lon="2.522382101">
        <ele>207.30</ele>
        <time>2014-07-06T07:50:46Z</time>
      </trkpt>
      <trkpt lat="41.615842639" lon="2.522107007">
        <ele>208.74</ele>
        <time>2014-07-06T07:50:54Z</time>
      </trkpt>
      <trkpt lat="41.615865271" lon="2.521859322">
        <ele>209.70</ele>
        <time>2014-07-06T07:51:02Z</time>
      </trkpt>
      <trkpt lat="41.615902821" lon="2.521578612">
        <ele>209.70</ele>
        <time>2014-07-06T07:51:09Z</time>
      </trkpt>
      <trkpt lat="41.615944060" lon="2.521312487">
        <ele>210.67</ele>
        <time>2014-07-06T07:51:17Z</time>
      </trkpt>
      <trkpt lat="41.615989909" lon="2.521077961">
        <ele>210.67</ele>
        <time>2014-07-06T07:51:24Z</time>
      </trkpt>
      <trkpt lat="41.616045146" lon="2.520853074">
        <ele>211.15</ele>
        <time>2014-07-06T07:51:31Z</time>
      </trkpt>
      <trkpt lat="41.616090073" lon="2.520689124">
        <ele>211.63</ele>
        <time>2014-07-06T07:51:37Z</time>
      </trkpt>
      <trkpt lat="41.616178251" lon="2.520426436">
        <ele>212.59</ele>
        <time>2014-07-06T07:51:45Z</time>
      </trkpt>
      <trkpt lat="41.616266848" lon="2.520183360">
        <ele>213.55</ele>
        <time>2014-07-06T07:51:52Z</time>
      </trkpt>
      <trkpt lat="41.616335244" lon="2.519925282">
        <ele>214.51</ele>
        <time>2014-07-06T07:52:00Z</time>
      </trkpt>
      <trkpt lat="41.616409843" lon="2.519642644">
        <ele>214.99</ele>
        <time>2014-07-06T07:52:09Z</time>
      </trkpt>
      <trkpt lat="41.616447561" lon="2.519441646">
        <ele>215.47</ele>
        <time>2014-07-06T07:52:15Z</time>
      </trkpt>
      <trkpt lat="41.616500367" lon="2.519177364">
        <ele>215.95</ele>
        <time>2014-07-06T07:52:23Z</time>
      </trkpt>
      <trkpt lat="41.616542361" lon="2.518918866">
        <ele>216.43</ele>
        <time>2014-07-06T07:52:31Z</time>
      </trkpt>
      <trkpt lat="41.616570356" lon="2.518624997">
        <ele>217.40</ele>
        <time>2014-07-06T07:52:39Z</time>
      </trkpt>
      <trkpt lat="41.616589886" lon="2.518318722">
        <ele>217.88</ele>
        <time>2014-07-06T07:52:47Z</time>
      </trkpt>
      <trkpt lat="41.616587120" lon="2.518045304">
        <ele>219.80</ele>
        <time>2014-07-06T07:52:55Z</time>
      </trkpt>
      <trkpt lat="41.616539762" lon="2.517863082">
        <ele>220.76</ele>
        <time>2014-07-06T07:53:02Z</time>
      </trkpt>
      <trkpt lat="41.616438174" lon="2.517619336">
        <ele>221.24</ele>
        <time>2014-07-06T07:53:09Z</time>
      </trkpt>
      <trkpt lat="41.616421745" lon="2.517353965">
        <ele>221.72</ele>
        <time>2014-07-06T07:53:17Z</time>
      </trkpt>
      <trkpt lat="41.616423589" lon="2.517101502">
        <ele>221.72</ele>
        <time>2014-07-06T07:53:25Z</time>
      </trkpt>
      <trkpt lat="41.616508917" lon="2.516894804">
        <ele>222.20</ele>
        <time>2014-07-06T07:53:32Z</time>
      </trkpt>
      <trkpt lat="41.616529033" lon="2.516840909">
        <ele>222.20</ele>
        <time>2014-07-06T07:53:34Z</time>
      </trkpt>
      <trkpt lat="41.616520987" lon="2.516720712">
        <ele>222.68</ele>
        <time>2014-07-06T07:53:38Z</time>
      </trkpt>
      <trkpt lat="41.616452423" lon="2.516367750">
        <ele>223.16</ele>
        <time>2014-07-06T07:53:48Z</time>
      </trkpt>
      <trkpt lat="41.616368185" lon="2.516138254">
        <ele>223.64</ele>
        <time>2014-07-06T07:53:56Z</time>
      </trkpt>
      <trkpt lat="41.616368017" lon="2.515921330">
        <ele>224.12</ele>
        <time>2014-07-06T07:54:03Z</time>
      </trkpt>
      <trkpt lat="41.616407496" lon="2.515630646">
        <ele>224.61</ele>
        <time>2014-07-06T07:54:12Z</time>
      </trkpt>
      <trkpt lat="41.616458039" lon="2.515446495">
        <ele>225.09</ele>
        <time>2014-07-06T07:54:19Z</time>
      </trkpt>
      <trkpt lat="41.616512605" lon="2.515296040">
        <ele>225.57</ele>
        <time>2014-07-06T07:54:25Z</time>
      </trkpt>
      <trkpt lat="41.616576475" lon="2.515158661">
        <ele>226.05</ele>
        <time>2014-07-06T07:54:31Z</time>
      </trkpt>
      <trkpt lat="41.616632047" lon="2.514983563">
        <ele>227.01</ele>
        <time>2014-07-06T07:54:38Z</time>
      </trkpt>
      <trkpt lat="41.616638920" lon="2.514853308">
        <ele>227.49</ele>
        <time>2014-07-06T07:54:44Z</time>
      </trkpt>
      <trkpt lat="41.616706227" lon="2.514759263">
        <ele>228.45</ele>
        <time>2014-07-06T07:54:49Z</time>
      </trkpt>
      <trkpt lat="41.616798093" lon="2.514732273">
        <ele>228.93</ele>
        <time>2014-07-06T07:54:56Z</time>
      </trkpt>
      <trkpt lat="41.616854503" lon="2.514668571">
        <ele>228.93</ele>
        <time>2014-07-06T07:55:00Z</time>
      </trkpt>
      <trkpt lat="41.616871518" lon="2.514612831">
        <ele>228.93</ele>
        <time>2014-07-06T07:55:02Z</time>
      </trkpt>
      <trkpt lat="41.616881073" lon="2.514273867">
        <ele>229.41</ele>
        <time>2014-07-06T07:55:11Z</time>
      </trkpt>
      <trkpt lat="41.616890713" lon="2.513984021">
        <ele>230.37</ele>
        <time>2014-07-06T07:55:20Z</time>
      </trkpt>
      <trkpt lat="41.616889371" lon="2.513761817">
        <ele>231.33</ele>
        <time>2014-07-06T07:55:28Z</time>
      </trkpt>
      <trkpt lat="41.616904459" lon="2.513511198">
        <ele>232.30</ele>
        <time>2014-07-06T07:55:36Z</time>
      </trkpt>
      <trkpt lat="41.616904040" lon="2.513207773">
        <ele>233.26</ele>
        <time>2014-07-06T07:55:46Z</time>
      </trkpt>
      <trkpt lat="41.616890545" lon="2.512970984">
        <ele>233.74</ele>
        <time>2014-07-06T07:55:54Z</time>
      </trkpt>
      <trkpt lat="41.616857939" lon="2.512749199">
        <ele>234.70</ele>
        <time>2014-07-06T07:56:02Z</time>
      </trkpt>
      <trkpt lat="41.616799853" lon="2.512563288">
        <ele>235.18</ele>
        <time>2014-07-06T07:56:09Z</time>
      </trkpt>
      <trkpt lat="41.616732211" lon="2.512368661">
        <ele>235.66</ele>
        <time>2014-07-06T07:56:15Z</time>
      </trkpt>
      <trkpt lat="41.616581588" lon="2.512060207">
        <ele>237.10</ele>
        <time>2014-07-06T07:56:26Z</time>
      </trkpt>
      <trkpt lat="41.616485699" lon="2.511880163">
        <ele>237.58</ele>
        <time>2014-07-06T07:56:33Z</time>
      </trkpt>
      <trkpt lat="41.616386960" lon="2.511691151">
        <ele>238.54</ele>
        <time>2014-07-06T07:56:41Z</time>
      </trkpt>
      <trkpt lat="41.616354187" lon="2.511620073">
        <ele>238.54</ele>
        <time>2014-07-06T07:56:46Z</time>
      </trkpt>
      <trkpt lat="41.616266093" lon="2.511461487">
        <ele>238.54</ele>
        <time>2014-07-06T07:56:55Z</time>
      </trkpt>
      <trkpt lat="41.616256789" lon="2.511436425">
        <ele>238.54</ele>
        <time>2014-07-06T07:56:56Z</time>
      </trkpt>
      <trkpt lat="41.616189985" lon="2.511263339">
        <ele>239.02</ele>
        <time>2014-07-06T07:57:04Z</time>
      </trkpt>
      <trkpt lat="41.616172048" lon="2.511216484">
        <ele>239.02</ele>
        <time>2014-07-06T07:57:06Z</time>
      </trkpt>
      <trkpt lat="41.616087391" lon="2.510979025">
        <ele>239.99</ele>
        <time>2014-07-06T07:57:16Z</time>
      </trkpt>
      <trkpt lat="41.616016732" lon="2.510795796">
        <ele>240.47</ele>
        <time>2014-07-06T07:57:23Z</time>
      </trkpt>
      <trkpt lat="41.615961160" lon="2.510644503">
        <ele>240.95</ele>
        <time>2014-07-06T07:57:29Z</time>
      </trkpt>
      <trkpt lat="41.615882034" lon="2.510474770">
        <ele>241.43</ele>
        <time>2014-07-06T07:57:36Z</time>
      </trkpt>
      <trkpt lat="41.615809699" lon="2.510286428">
        <ele>242.39</ele>
        <time>2014-07-06T07:57:44Z</time>
      </trkpt>
      <trkpt lat="41.615779105" lon="2.510126082">
        <ele>242.87</ele>
        <time>2014-07-06T07:57:51Z</time>
      </trkpt>
      <trkpt lat="41.615723952" lon="2.509973699">
        <ele>243.35</ele>
        <time>2014-07-06T07:57:59Z</time>
      </trkpt>
      <trkpt lat="41.615645246" lon="2.509806816">
        <ele>243.83</ele>
        <time>2014-07-06T07:58:06Z</time>
      </trkpt>
      <trkpt lat="41.615565618" lon="2.509606740">
        <ele>244.79</ele>
        <time>2014-07-06T07:58:14Z</time>
      </trkpt>
      <trkpt lat="41.615536281" lon="2.509425439">
        <ele>245.75</ele>
        <time>2014-07-06T07:58:22Z</time>
      </trkpt>
      <trkpt lat="41.615537538" lon="2.509235757">
        <ele>246.23</ele>
        <time>2014-07-06T07:58:30Z</time>
      </trkpt>
      <trkpt lat="41.615533766" lon="2.509048840">
        <ele>246.72</ele>
        <time>2014-07-06T07:58:38Z</time>
      </trkpt>
      <trkpt lat="41.615530497" lon="2.509029562">
        <ele>246.72</ele>
        <time>2014-07-06T07:58:39Z</time>
      </trkpt>
      <trkpt lat="41.615479452" lon="2.508894529">
        <ele>247.20</ele>
        <time>2014-07-06T07:58:45Z</time>
      </trkpt>
      <trkpt lat="41.615462688" lon="2.508637624">
        <ele>247.68</ele>
        <time>2014-07-06T07:58:53Z</time>
      </trkpt>
      <trkpt lat="41.615493868" lon="2.508342078">
        <ele>248.16</ele>
        <time>2014-07-06T07:59:02Z</time>
      </trkpt>
      <trkpt lat="41.615498981" lon="2.508157760">
        <ele>248.64</ele>
        <time>2014-07-06T07:59:08Z</time>
      </trkpt>
      <trkpt lat="41.615420192" lon="2.508021470">
        <ele>251.52</ele>
        <time>2014-07-06T07:59:14Z</time>
      </trkpt>
      <trkpt lat="41.615301085" lon="2.507846205">
        <ele>253.44</ele>
        <time>2014-07-06T07:59:22Z</time>
      </trkpt>
      <trkpt lat="41.615243585" lon="2.507664988">
        <ele>255.37</ele>
        <time>2014-07-06T07:59:30Z</time>
      </trkpt>
      <trkpt lat="41.615219193" lon="2.507554012">
        <ele>255.85</ele>
        <time>2014-07-06T07:59:36Z</time>
      </trkpt>
      <trkpt lat="41.615109977" lon="2.507554850">
        <ele>255.85</ele>
        <time>2014-07-06T07:59:44Z</time>
      </trkpt>
      <trkpt lat="41.615097153" lon="2.507562813">
        <ele>255.85</ele>
        <time>2014-07-06T07:59:45Z</time>
      </trkpt>
      <trkpt lat="41.615027164" lon="2.507636238">
        <ele>256.33</ele>
        <time>2014-07-06T07:59:52Z</time>
      </trkpt>
      <trkpt lat="41.614994139" lon="2.507702539">
        <ele>257.29</ele>
        <time>2014-07-06T07:59:58Z</time>
      </trkpt>
      <trkpt lat="41.614983243" lon="2.507762889">
        <ele>258.73</ele>
        <time>2014-07-06T08:00:03Z</time>
      </trkpt>
      <trkpt lat="41.614965976" lon="2.507863304">
        <ele>260.17</ele>
        <time>2014-07-06T08:00:09Z</time>
      </trkpt>
      <trkpt lat="41.615024985" lon="2.508044101">
        <ele>262.58</ele>
        <time>2014-07-06T08:00:20Z</time>
      </trkpt>
      <trkpt lat="41.615055327" lon="2.508135380">
        <ele>264.02</ele>
        <time>2014-07-06T08:00:26Z</time>
      </trkpt>
      <trkpt lat="41.615118862" lon="2.508254571">
        <ele>265.46</ele>
        <time>2014-07-06T08:00:35Z</time>
      </trkpt>
      <trkpt lat="41.615125065" lon="2.508267060">
        <ele>265.46</ele>
        <time>2014-07-06T08:00:36Z</time>
      </trkpt>
      <trkpt lat="41.615133782" lon="2.508326572">
        <ele>266.42</ele>
        <time>2014-07-06T08:00:40Z</time>
      </trkpt>
      <trkpt lat="41.615115258" lon="2.508380635">
        <ele>266.42</ele>
        <time>2014-07-06T08:00:44Z</time>
      </trkpt>
      <trkpt lat="41.615022386" lon="2.508412821">
        <ele>268.35</ele>
        <time>2014-07-06T08:00:52Z</time>
      </trkpt>
      <trkpt lat="41.614954074" lon="2.508318860">
        <ele>270.27</ele>
        <time>2014-07-06T08:01:00Z</time>
      </trkpt>
      <trkpt lat="41.614888360" lon="2.508209476">
        <ele>272.19</ele>
        <time>2014-07-06T08:01:09Z</time>
      </trkpt>
      <trkpt lat="41.614816024" lon="2.508103361">
        <ele>274.11</ele>
        <time>2014-07-06T08:01:18Z</time>
      </trkpt>
      <trkpt lat="41.614729858" lon="2.507993978">
        <ele>276.52</ele>
        <time>2014-07-06T08:01:28Z</time>
      </trkpt>
      <trkpt lat="41.614705048" lon="2.507966485">
        <ele>277.00</ele>
        <time>2014-07-06T08:01:31Z</time>
      </trkpt>
      <trkpt lat="41.614623827" lon="2.507890210">
        <ele>278.92</ele>
        <time>2014-07-06T08:01:39Z</time>
      </trkpt>
      <trkpt lat="41.614591808" lon="2.507864058">
        <ele>279.40</ele>
        <time>2014-07-06T08:01:42Z</time>
      </trkpt>
      <trkpt lat="41.614487872" lon="2.507776216">
        <ele>280.36</ele>
        <time>2014-07-06T08:01:52Z</time>
      </trkpt>
      <trkpt lat="41.614391732" lon="2.507710166">
        <ele>281.80</ele>
        <time>2014-07-06T08:02:02Z</time>
      </trkpt>
      <trkpt lat="41.614301207" lon="2.507647218">
        <ele>283.25</ele>
        <time>2014-07-06T08:02:11Z</time>
      </trkpt>
      <trkpt lat="41.614210012" lon="2.507574547">
        <ele>285.17</ele>
        <time>2014-07-06T08:02:20Z</time>
      </trkpt>
      <trkpt lat="41.614132061" lon="2.507557364">
        <ele>286.61</ele>
        <time>2014-07-06T08:02:27Z</time>
      </trkpt>
      <trkpt lat="41.614087385" lon="2.507599190">
        <ele>287.57</ele>
        <time>2014-07-06T08:02:32Z</time>
      </trkpt>
      <trkpt lat="41.614098617" lon="2.507629784">
        <ele>287.57</ele>
        <time>2014-07-06T08:02:35Z</time>
      </trkpt>
      <trkpt lat="41.614188638" lon="2.507728523">
        <ele>288.53</ele>
        <time>2014-07-06T08:02:45Z</time>
      </trkpt>
      <trkpt lat="41.614206157" lon="2.507748220">
        <ele>289.01</ele>
        <time>2014-07-06T08:02:47Z</time>
      </trkpt>
      <trkpt lat="41.614292574" lon="2.507885097">
        <ele>290.94</ele>
        <time>2014-07-06T08:02:58Z</time>
      </trkpt>
      <trkpt lat="41.614360467" lon="2.508027589">
        <ele>292.38</ele>
        <time>2014-07-06T08:03:08Z</time>
      </trkpt>
      <trkpt lat="41.614414279" lon="2.508163041">
        <ele>293.82</ele>
        <time>2014-07-06T08:03:17Z</time>
      </trkpt>
      <trkpt lat="41.614415201" lon="2.508202016">
        <ele>294.30</ele>
        <time>2014-07-06T08:03:20Z</time>
      </trkpt>
      <trkpt lat="41.614339010" lon="2.508258175">
        <ele>296.22</ele>
        <time>2014-07-06T08:03:27Z</time>
      </trkpt>
      <trkpt lat="41.614314870" lon="2.508254990">
        <ele>296.22</ele>
        <time>2014-07-06T08:03:29Z</time>
      </trkpt>
      <trkpt lat="41.614253766" lon="2.508115096">
        <ele>298.15</ele>
        <time>2014-07-06T08:03:40Z</time>
      </trkpt>
      <trkpt lat="41.614176988" lon="2.508027338">
        <ele>299.11</ele>
        <time>2014-07-06T08:03:48Z</time>
      </trkpt>
      <trkpt lat="41.614120242" lon="2.507974532">
        <ele>299.59</ele>
        <time>2014-07-06T08:03:54Z</time>
      </trkpt>
      <trkpt lat="41.614034411" lon="2.507902866">
        <ele>301.03</ele>
        <time>2014-07-06T08:04:01Z</time>
      </trkpt>
      <trkpt lat="41.613917987" lon="2.507811085">
        <ele>302.47</ele>
        <time>2014-07-06T08:04:11Z</time>
      </trkpt>
      <trkpt lat="41.613847411" lon="2.507758698">
        <ele>303.43</ele>
        <time>2014-07-06T08:04:17Z</time>
      </trkpt>
      <trkpt lat="41.613761329" lon="2.507730115">
        <ele>305.36</ele>
        <time>2014-07-06T08:04:25Z</time>
      </trkpt>
      <trkpt lat="41.613752947" lon="2.507747382">
        <ele>305.84</ele>
        <time>2014-07-06T08:04:27Z</time>
      </trkpt>
      <trkpt lat="41.613762670" lon="2.507788789">
        <ele>306.32</ele>
        <time>2014-07-06T08:04:31Z</time>
      </trkpt>
      <trkpt lat="41.613854620" lon="2.507902363">
        <ele>308.72</ele>
        <time>2014-07-06T08:04:42Z</time>
      </trkpt>
      <trkpt lat="41.613917903" lon="2.508010071">
        <ele>309.68</ele>
        <time>2014-07-06T08:04:50Z</time>
      </trkpt>
      <trkpt lat="41.613945563" lon="2.508065391">
        <ele>310.16</ele>
        <time>2014-07-06T08:04:54Z</time>
      </trkpt>
      <trkpt lat="41.613956208" lon="2.508196233">
        <ele>311.12</ele>
        <time>2014-07-06T08:05:02Z</time>
      </trkpt>
      <trkpt lat="41.613877335" lon="2.508314250">
        <ele>312.09</ele>
        <time>2014-07-06T08:05:11Z</time>
      </trkpt>
      <trkpt lat="41.613787229" lon="2.508425478">
        <ele>312.57</ele>
        <time>2014-07-06T08:05:19Z</time>
      </trkpt>
      <trkpt lat="41.613763927" lon="2.508447942">
        <ele>312.57</ele>
        <time>2014-07-06T08:05:21Z</time>
      </trkpt>
      <trkpt lat="41.613712127" lon="2.508524217">
        <ele>313.05</ele>
        <time>2014-07-06T08:05:27Z</time>
      </trkpt>
      <trkpt lat="41.613587405" lon="2.508620022">
        <ele>313.53</ele>
        <time>2014-07-06T08:05:36Z</time>
      </trkpt>
      <trkpt lat="41.613456731" lon="2.508711804">
        <ele>314.49</ele>
        <time>2014-07-06T08:05:45Z</time>
      </trkpt>
      <trkpt lat="41.613358076" lon="2.508806771">
        <ele>315.45</ele>
        <time>2014-07-06T08:05:53Z</time>
      </trkpt>
      <trkpt lat="41.613234610" lon="2.508926129">
        <ele>315.93</ele>
        <time>2014-07-06T08:06:03Z</time>
      </trkpt>
      <trkpt lat="41.613184486" lon="2.509093935">
        <ele>315.93</ele>
        <time>2014-07-06T08:06:09Z</time>
      </trkpt>
      <trkpt lat="41.613224887" lon="2.509276493">
        <ele>315.45</ele>
        <time>2014-07-06T08:06:14Z</time>
      </trkpt>
      <trkpt lat="41.613254978" lon="2.509538008">
        <ele>315.45</ele>
        <time>2014-07-06T08:06:22Z</time>
      </trkpt>
      <trkpt lat="41.613351454" lon="2.509657702">
        <ele>315.93</ele>
        <time>2014-07-06T08:06:28Z</time>
      </trkpt>
      <trkpt lat="41.613436698" lon="2.509685194">
        <ele>315.93</ele>
        <time>2014-07-06T08:06:35Z</time>
      </trkpt>
      <trkpt lat="41.613598720" lon="2.509684608">
        <ele>316.41</ele>
        <time>2014-07-06T08:06:43Z</time>
      </trkpt>
      <trkpt lat="41.613731070" lon="2.509659378">
        <ele>317.37</ele>
        <time>2014-07-06T08:06:51Z</time>
      </trkpt>
      <trkpt lat="41.613851854" lon="2.509694917">
        <ele>318.33</ele>
        <time>2014-07-06T08:06:58Z</time>
      </trkpt>
      <trkpt lat="41.613882280" lon="2.509767756">
        <ele>319.30</ele>
        <time>2014-07-06T08:07:04Z</time>
      </trkpt>
      <trkpt lat="41.613841125" lon="2.509809246">
        <ele>320.26</ele>
        <time>2014-07-06T08:07:08Z</time>
      </trkpt>
      <trkpt lat="41.613722521" lon="2.509865154">
        <ele>322.18</ele>
        <time>2014-07-06T08:07:17Z</time>
      </trkpt>
      <trkpt lat="41.613602576" lon="2.509953248">
        <ele>324.10</ele>
        <time>2014-07-06T08:07:27Z</time>
      </trkpt>
      <trkpt lat="41.613529569" lon="2.510006389">
        <ele>325.54</ele>
        <time>2014-07-06T08:07:33Z</time>
      </trkpt>
      <trkpt lat="41.613464861" lon="2.510050142">
        <ele>326.50</ele>
        <time>2014-07-06T08:07:38Z</time>
      </trkpt>
      <trkpt lat="41.613416414" lon="2.510082999">
        <ele>326.99</ele>
        <time>2014-07-06T08:07:42Z</time>
      </trkpt>
      <trkpt lat="41.613317088" lon="2.510128513">
        <ele>328.43</ele>
        <time>2014-07-06T08:07:50Z</time>
      </trkpt>
      <trkpt lat="41.613226899" lon="2.510203447">
        <ele>329.87</ele>
        <time>2014-07-06T08:08:00Z</time>
      </trkpt>
      <trkpt lat="41.613132686" lon="2.510199256">
        <ele>332.27</ele>
        <time>2014-07-06T08:08:08Z</time>
      </trkpt>
      <trkpt lat="41.613069487" lon="2.510151647">
        <ele>332.75</ele>
        <time>2014-07-06T08:08:15Z</time>
      </trkpt>
      <trkpt lat="41.612973598" lon="2.510028182">
        <ele>334.20</ele>
        <time>2014-07-06T08:08:24Z</time>
      </trkpt>
      <trkpt lat="41.612949206" lon="2.509971017">
        <ele>334.68</ele>
        <time>2014-07-06T08:08:28Z</time>
      </trkpt>
      <trkpt lat="41.612913835" lon="2.509849815">
        <ele>335.64</ele>
        <time>2014-07-06T08:08:35Z</time>
      </trkpt>
      <trkpt lat="41.612845271" lon="2.509734564">
        <ele>336.60</ele>
        <time>2014-07-06T08:08:44Z</time>
      </trkpt>
      <trkpt lat="41.612769834" lon="2.509596095">
        <ele>338.52</ele>
        <time>2014-07-06T08:08:54Z</time>
      </trkpt>
      <trkpt lat="41.612714597" lon="2.509469696">
        <ele>340.44</ele>
        <time>2014-07-06T08:09:03Z</time>
      </trkpt>
      <trkpt lat="41.612688613" lon="2.509415213">
        <ele>341.41</ele>
        <time>2014-07-06T08:09:07Z</time>
      </trkpt>
      <trkpt lat="41.612666988" lon="2.509396270">
        <ele>341.41</ele>
        <time>2014-07-06T08:09:09Z</time>
      </trkpt>
      <trkpt lat="41.612610913" lon="2.509437760">
        <ele>343.33</ele>
        <time>2014-07-06T08:09:17Z</time>
      </trkpt>
      <trkpt lat="41.612604123" lon="2.509466427">
        <ele>343.81</ele>
        <time>2014-07-06T08:09:19Z</time>
      </trkpt>
      <trkpt lat="41.612605465" lon="2.509608416">
        <ele>345.73</ele>
        <time>2014-07-06T08:09:29Z</time>
      </trkpt>
      <trkpt lat="41.612615020" lon="2.509766080">
        <ele>347.65</ele>
        <time>2014-07-06T08:09:39Z</time>
      </trkpt>
      <trkpt lat="41.612626168" lon="2.509914020">
        <ele>348.62</ele>
        <time>2014-07-06T08:09:47Z</time>
      </trkpt>
      <trkpt lat="41.612629604" lon="2.510082580">
        <ele>350.54</ele>
        <time>2014-07-06T08:09:56Z</time>
      </trkpt>
      <trkpt lat="41.612655588" lon="2.510236891">
        <ele>351.50</ele>
        <time>2014-07-06T08:10:05Z</time>
      </trkpt>
      <trkpt lat="41.612695402" lon="2.510343257">
        <ele>352.46</ele>
        <time>2014-07-06T08:10:13Z</time>
      </trkpt>
      <trkpt lat="41.612716776" lon="2.510386257">
        <ele>352.94</ele>
        <time>2014-07-06T08:10:16Z</time>
      </trkpt>
      <trkpt lat="41.612731026" lon="2.510470076">
        <ele>353.90</ele>
        <time>2014-07-06T08:10:20Z</time>
      </trkpt>
      <trkpt lat="41.612828088" lon="2.510636121">
        <ele>355.34</ele>
        <time>2014-07-06T08:10:30Z</time>
      </trkpt>
      <trkpt lat="41.612916936" lon="2.510743829">
        <ele>356.31</ele>
        <time>2014-07-06T08:10:38Z</time>
      </trkpt>
      <trkpt lat="41.613040988" lon="2.510868635">
        <ele>357.75</ele>
        <time>2014-07-06T08:10:48Z</time>
      </trkpt>
      <trkpt lat="41.613186163" lon="2.510976259">
        <ele>359.19</ele>
        <time>2014-07-06T08:10:59Z</time>
      </trkpt>
      <trkpt lat="41.613314741" lon="2.511057815">
        <ele>361.11</ele>
        <time>2014-07-06T08:11:10Z</time>
      </trkpt>
      <trkpt lat="41.613327398" lon="2.511148842">
        <ele>362.07</ele>
        <time>2014-07-06T08:11:17Z</time>
      </trkpt>
      <trkpt lat="41.613311221" lon="2.511277840">
        <ele>364.48</ele>
        <time>2014-07-06T08:11:27Z</time>
      </trkpt>
      <trkpt lat="41.613309964" lon="2.511289910">
        <ele>364.96</ele>
        <time>2014-07-06T08:11:28Z</time>
      </trkpt>
      <trkpt lat="41.613304683" lon="2.511393258">
        <ele>365.92</ele>
        <time>2014-07-06T08:11:34Z</time>
      </trkpt>
      <trkpt lat="41.613272664" lon="2.511563327">
        <ele>367.84</ele>
        <time>2014-07-06T08:11:43Z</time>
      </trkpt>
      <trkpt lat="41.613237879" lon="2.511675896">
        <ele>370.24</ele>
        <time>2014-07-06T08:11:51Z</time>
      </trkpt>
      <trkpt lat="41.613213991" lon="2.511730798">
        <ele>370.73</ele>
        <time>2014-07-06T08:11:54Z</time>
      </trkpt>
      <trkpt lat="41.613149869" lon="2.511863735">
        <ele>371.69</ele>
        <time>2014-07-06T08:12:03Z</time>
      </trkpt>
      <trkpt lat="41.613084826" lon="2.511981584">
        <ele>373.61</ele>
        <time>2014-07-06T08:12:12Z</time>
      </trkpt>
      <trkpt lat="41.613049119" lon="2.512132207">
        <ele>376.01</ele>
        <time>2014-07-06T08:12:22Z</time>
      </trkpt>
      <trkpt lat="41.613008467" lon="2.512272017">
        <ele>377.45</ele>
        <time>2014-07-06T08:12:31Z</time>
      </trkpt>
      <trkpt lat="41.612989440" lon="2.512353992">
        <ele>378.42</ele>
        <time>2014-07-06T08:12:36Z</time>
      </trkpt>
      <trkpt lat="41.612938226" lon="2.512451977">
        <ele>380.34</ele>
        <time>2014-07-06T08:12:43Z</time>
      </trkpt>
      <trkpt lat="41.612895143" lon="2.512438733">
        <ele>380.82</ele>
        <time>2014-07-06T08:12:47Z</time>
      </trkpt>
      <trkpt lat="41.612853904" lon="2.512398500">
        <ele>381.30</ele>
        <time>2014-07-06T08:12:52Z</time>
      </trkpt>
      <trkpt lat="41.612839990" lon="2.512342928">
        <ele>382.74</ele>
        <time>2014-07-06T08:12:56Z</time>
      </trkpt>
      <trkpt lat="41.612818281" lon="2.512310490">
        <ele>383.22</ele>
        <time>2014-07-06T08:12:59Z</time>
      </trkpt>
      <trkpt lat="41.612763966" lon="2.512191719">
        <ele>384.66</ele>
        <time>2014-07-06T08:13:08Z</time>
      </trkpt>
      <trkpt lat="41.612738318" lon="2.512039419">
        <ele>385.63</ele>
        <time>2014-07-06T08:13:17Z</time>
      </trkpt>
      <trkpt lat="41.612707808" lon="2.511911512">
        <ele>387.55</ele>
        <time>2014-07-06T08:13:26Z</time>
      </trkpt>
      <trkpt lat="41.612693475" lon="2.511858706">
        <ele>388.51</ele>
        <time>2014-07-06T08:13:30Z</time>
      </trkpt>
      <trkpt lat="41.612601441" lon="2.511833141">
        <ele>388.99</ele>
        <time>2014-07-06T08:13:38Z</time>
      </trkpt>
      <trkpt lat="41.612589874" lon="2.511844121">
        <ele>388.99</ele>
        <time>2014-07-06T08:13:39Z</time>
      </trkpt>
      <trkpt lat="41.612528435" lon="2.511945794">
        <ele>390.43</ele>
        <time>2014-07-06T08:13:48Z</time>
      </trkpt>
      <trkpt lat="41.612490130" lon="2.512050316">
        <ele>392.36</ele>
        <time>2014-07-06T08:13:57Z</time>
      </trkpt>
      <trkpt lat="41.612469091" lon="2.512132123">
        <ele>392.84</ele>
        <time>2014-07-06T08:14:03Z</time>
      </trkpt>
      <trkpt lat="41.612411675" lon="2.512123574">
        <ele>392.84</ele>
        <time>2014-07-06T08:14:09Z</time>
      </trkpt>
      <trkpt lat="41.612352918" lon="2.512021231">
        <ele>393.32</ele>
        <time>2014-07-06T08:14:18Z</time>
      </trkpt>
      <trkpt lat="41.612305141" lon="2.511928946">
        <ele>395.24</ele>
        <time>2014-07-06T08:14:27Z</time>
      </trkpt>
      <trkpt lat="41.612263818" lon="2.511826854">
        <ele>396.68</ele>
        <time>2014-07-06T08:14:35Z</time>
      </trkpt>
      <trkpt lat="41.612195422" lon="2.511709927">
        <ele>398.60</ele>
        <time>2014-07-06T08:14:43Z</time>
      </trkpt>
      <trkpt lat="41.612026946" lon="2.511640776">
        <ele>400.53</ele>
        <time>2014-07-06T08:14:56Z</time>
      </trkpt>
      <trkpt lat="41.611896523" lon="2.511659635">
        <ele>402.45</ele>
        <time>2014-07-06T08:15:06Z</time>
      </trkpt>
      <trkpt lat="41.611789822" lon="2.511641028">
        <ele>403.41</ele>
        <time>2014-07-06T08:15:14Z</time>
      </trkpt>
      <trkpt lat="41.611775656" lon="2.511636837">
        <ele>403.89</ele>
        <time>2014-07-06T08:15:15Z</time>
      </trkpt>
      <trkpt lat="41.611711283" lon="2.511550754">
        <ele>404.37</ele>
        <time>2014-07-06T08:15:23Z</time>
      </trkpt>
      <trkpt lat="41.611667278" lon="2.511467522">
        <ele>404.85</ele>
        <time>2014-07-06T08:15:30Z</time>
      </trkpt>
      <trkpt lat="41.611602151" lon="2.511374818">
        <ele>404.85</ele>
        <time>2014-07-06T08:15:36Z</time>
      </trkpt>
      <trkpt lat="41.611496287" lon="2.511243642">
        <ele>405.33</ele>
        <time>2014-07-06T08:15:45Z</time>
      </trkpt>
      <trkpt lat="41.611415067" lon="2.511123864">
        <ele>405.33</ele>
        <time>2014-07-06T08:15:52Z</time>
      </trkpt>
      <trkpt lat="41.611299313" lon="2.510966452">
        <ele>405.81</ele>
        <time>2014-07-06T08:16:01Z</time>
      </trkpt>
      <trkpt lat="41.611194455" lon="2.510784397">
        <ele>406.77</ele>
        <time>2014-07-06T08:16:11Z</time>
      </trkpt>
      <trkpt lat="41.611116252" lon="2.510641234">
        <ele>407.74</ele>
        <time>2014-07-06T08:16:19Z</time>
      </trkpt>
      <trkpt lat="41.610983231" lon="2.510473261">
        <ele>409.18</ele>
        <time>2014-07-06T08:16:30Z</time>
      </trkpt>
      <trkpt lat="41.610842247" lon="2.510353567">
        <ele>410.62</ele>
        <time>2014-07-06T08:16:40Z</time>
      </trkpt>
      <trkpt lat="41.610756752" lon="2.510204705">
        <ele>411.58</ele>
        <time>2014-07-06T08:16:49Z</time>
      </trkpt>
      <trkpt lat="41.610692966" lon="2.510003036">
        <ele>411.58</ele>
        <time>2014-07-06T08:16:58Z</time>
      </trkpt>
      <trkpt lat="41.610606465" lon="2.509734228">
        <ele>411.58</ele>
        <time>2014-07-06T08:17:06Z</time>
      </trkpt>
      <trkpt lat="41.610581570" lon="2.509640686">
        <ele>410.62</ele>
        <time>2014-07-06T08:17:08Z</time>
      </trkpt>
      <trkpt lat="41.610548043" lon="2.509540774">
        <ele>410.14</ele>
        <time>2014-07-06T08:17:10Z</time>
      </trkpt>
      <trkpt lat="41.610238750" lon="2.509083793">
        <ele>407.74</ele>
        <time>2014-07-06T08:17:19Z</time>
      </trkpt>
      <trkpt lat="41.610159877" lon="2.508982036">
        <ele>406.77</ele>
        <time>2014-07-06T08:17:21Z</time>
      </trkpt>
      <trkpt lat="41.609891656" lon="2.508721946">
        <ele>406.77</ele>
        <time>2014-07-06T08:17:29Z</time>
      </trkpt>
      <trkpt lat="41.609661656" lon="2.508544082">
        <ele>406.77</ele>
        <time>2014-07-06T08:17:38Z</time>
      </trkpt>
      <trkpt lat="41.609507346" lon="2.508429920">
        <ele>408.22</ele>
        <time>2014-07-06T08:17:45Z</time>
      </trkpt>
      <trkpt lat="41.609395447" lon="2.508297570">
        <ele>409.18</ele>
        <time>2014-07-06T08:17:52Z</time>
      </trkpt>
      <trkpt lat="41.609251614" lon="2.508213081">
        <ele>409.66</ele>
        <time>2014-07-06T08:18:00Z</time>
      </trkpt>
      <trkpt lat="41.609134016" lon="2.508221965">
        <ele>412.06</ele>
        <time>2014-07-06T08:18:08Z</time>
      </trkpt>
      <trkpt lat="41.609010550" lon="2.508160191">
        <ele>413.02</ele>
        <time>2014-07-06T08:18:17Z</time>
      </trkpt>
      <trkpt lat="41.608936873" lon="2.508095315">
        <ele>415.43</ele>
        <time>2014-07-06T08:18:25Z</time>
      </trkpt>
      <trkpt lat="41.608885744" lon="2.508004874">
        <ele>415.91</ele>
        <time>2014-07-06T08:18:32Z</time>
      </trkpt>
      <trkpt lat="41.608834446" lon="2.507896664">
        <ele>415.91</ele>
        <time>2014-07-06T08:18:41Z</time>
      </trkpt>
      <trkpt lat="41.608800248" lon="2.507778730">
        <ele>417.35</ele>
        <time>2014-07-06T08:18:50Z</time>
      </trkpt>
      <trkpt lat="41.608796560" lon="2.507723075">
        <ele>418.31</ele>
        <time>2014-07-06T08:18:54Z</time>
      </trkpt>
      <trkpt lat="41.608791699" lon="2.507592317">
        <ele>419.75</ele>
        <time>2014-07-06T08:19:02Z</time>
      </trkpt>
      <trkpt lat="41.608789771" lon="2.507433564">
        <ele>420.71</ele>
        <time>2014-07-06T08:19:11Z</time>
      </trkpt>
      <trkpt lat="41.608787089" lon="2.507400371">
        <ele>421.19</ele>
        <time>2014-07-06T08:19:13Z</time>
      </trkpt>
      <trkpt lat="41.608781137" lon="2.507235499">
        <ele>421.68</ele>
        <time>2014-07-06T08:19:21Z</time>
      </trkpt>
      <trkpt lat="41.608760937" lon="2.507076914">
        <ele>424.08</ele>
        <time>2014-07-06T08:19:31Z</time>
      </trkpt>
      <trkpt lat="41.608739479" lon="2.506949173">
        <ele>425.52</ele>
        <time>2014-07-06T08:19:39Z</time>
      </trkpt>
      <trkpt lat="41.608726823" lon="2.506820930">
        <ele>426.96</ele>
        <time>2014-07-06T08:19:47Z</time>
      </trkpt>
      <trkpt lat="41.608719782" lon="2.506635187">
        <ele>429.37</ele>
        <time>2014-07-06T08:19:56Z</time>
      </trkpt>
      <trkpt lat="41.608707461" lon="2.506395968">
        <ele>428.89</ele>
        <time>2014-07-06T08:20:07Z</time>
      </trkpt>
      <trkpt lat="41.608687595" lon="2.506218439">
        <ele>429.37</ele>
        <time>2014-07-06T08:20:14Z</time>
      </trkpt>
      <trkpt lat="41.608684578" lon="2.506128585">
        <ele>429.37</ele>
        <time>2014-07-06T08:20:18Z</time>
      </trkpt>
      <trkpt lat="41.608687847" lon="2.505935466">
        <ele>430.81</ele>
        <time>2014-07-06T08:20:28Z</time>
      </trkpt>
      <trkpt lat="41.608702431" lon="2.505800769">
        <ele>431.29</ele>
        <time>2014-07-06T08:20:35Z</time>
      </trkpt>
      <trkpt lat="41.608727493" lon="2.505525675">
        <ele>431.29</ele>
        <time>2014-07-06T08:20:42Z</time>
      </trkpt>
      <trkpt lat="41.608741910" lon="2.505229039">
        <ele>429.37</ele>
        <time>2014-07-06T08:20:48Z</time>
      </trkpt>
      <trkpt lat="41.608803098" lon="2.505037345">
        <ele>428.40</ele>
        <time>2014-07-06T08:20:52Z</time>
      </trkpt>
      <trkpt lat="41.608914661" lon="2.504989987">
        <ele>428.40</ele>
        <time>2014-07-06T08:20:57Z</time>
      </trkpt>
      <trkpt lat="41.609002001" lon="2.505080596">
        <ele>428.40</ele>
        <time>2014-07-06T08:21:03Z</time>
      </trkpt>
      <trkpt lat="41.609057237" lon="2.505142538">
        <ele>429.85</ele>
        <time>2014-07-06T08:21:08Z</time>
      </trkpt>
      <trkpt lat="41.609197215" lon="2.505281594">
        <ele>431.77</ele>
        <time>2014-07-06T08:21:18Z</time>
      </trkpt>
      <trkpt lat="41.609304084" lon="2.505363736">
        <ele>433.69</ele>
        <time>2014-07-06T08:21:27Z</time>
      </trkpt>
      <trkpt lat="41.609401650" lon="2.505463900">
        <ele>434.17</ele>
        <time>2014-07-06T08:21:34Z</time>
      </trkpt>
      <trkpt lat="41.609513464" lon="2.505564232">
        <ele>436.10</ele>
        <time>2014-07-06T08:21:44Z</time>
      </trkpt>
      <trkpt lat="41.609620334" lon="2.505593903">
        <ele>437.54</ele>
        <time>2014-07-06T08:21:53Z</time>
      </trkpt>
      <trkpt lat="41.609685545" lon="2.505589126">
        <ele>438.98</ele>
        <time>2014-07-06T08:21:58Z</time>
      </trkpt>
      <trkpt lat="41.609804316" lon="2.505513353">
        <ele>440.42</ele>
        <time>2014-07-06T08:22:07Z</time>
      </trkpt>
      <trkpt lat="41.609847232" lon="2.505454429">
        <ele>441.38</ele>
        <time>2014-07-06T08:22:13Z</time>
      </trkpt>
      <trkpt lat="41.609855781" lon="2.505432552">
        <ele>441.38</ele>
        <time>2014-07-06T08:22:15Z</time>
      </trkpt>
      <trkpt lat="41.609906659" lon="2.505293496">
        <ele>442.82</ele>
        <time>2014-07-06T08:22:25Z</time>
      </trkpt>
      <trkpt lat="41.609927363" lon="2.505137677">
        <ele>444.75</ele>
        <time>2014-07-06T08:22:35Z</time>
      </trkpt>
      <trkpt lat="41.609895931" lon="2.505041117">
        <ele>446.19</ele>
        <time>2014-07-06T08:22:42Z</time>
      </trkpt>
      <trkpt lat="41.609864918" lon="2.505015720">
        <ele>446.67</ele>
        <time>2014-07-06T08:22:45Z</time>
      </trkpt>
      <trkpt lat="41.609765508" lon="2.505064754">
        <ele>449.55</ele>
        <time>2014-07-06T08:22:56Z</time>
      </trkpt>
      <trkpt lat="41.609677331" lon="2.505063748">
        <ele>451.00</ele>
        <time>2014-07-06T08:23:04Z</time>
      </trkpt>
      <trkpt lat="41.609590494" lon="2.504939444">
        <ele>451.00</ele>
        <time>2014-07-06T08:23:11Z</time>
      </trkpt>
      <trkpt lat="41.609496030" lon="2.504793935">
        <ele>451.00</ele>
        <time>2014-07-06T08:23:17Z</time>
      </trkpt>
      <trkpt lat="41.609468873" lon="2.504760239">
        <ele>451.00</ele>
        <time>2014-07-06T08:23:20Z</time>
      </trkpt>
      <trkpt lat="41.609373822" lon="2.504661081">
        <ele>451.00</ele>
        <time>2014-07-06T08:23:28Z</time>
      </trkpt>
      <trkpt lat="41.609321770" lon="2.504593942">
        <ele>451.00</ele>
        <time>2014-07-06T08:23:32Z</time>
      </trkpt>
      <trkpt lat="41.609270808" lon="2.504544405">
        <ele>451.00</ele>
        <time>2014-07-06T08:23:37Z</time>
      </trkpt>
      <trkpt lat="41.609183636" lon="2.504432004">
        <ele>452.92</ele>
        <time>2014-07-06T08:23:45Z</time>
      </trkpt>
      <trkpt lat="41.609122951" lon="2.504325554">
        <ele>454.36</ele>
        <time>2014-07-06T08:23:52Z</time>
      </trkpt>
      <trkpt lat="41.609076180" lon="2.504179290">
        <ele>456.76</ele>
        <time>2014-07-06T08:24:00Z</time>
      </trkpt>
      <trkpt lat="41.609076935" lon="2.504158503">
        <ele>456.76</ele>
        <time>2014-07-06T08:24:01Z</time>
      </trkpt>
      <trkpt lat="41.609076767" lon="2.504031181">
        <ele>458.21</ele>
        <time>2014-07-06T08:24:09Z</time>
      </trkpt>
      <trkpt lat="41.609081880" lon="2.503865555">
        <ele>458.69</ele>
        <time>2014-07-06T08:24:18Z</time>
      </trkpt>
      <trkpt lat="41.609099817" lon="2.503687188">
        <ele>458.69</ele>
        <time>2014-07-06T08:24:27Z</time>
      </trkpt>
      <trkpt lat="41.609077522" lon="2.503488956">
        <ele>458.69</ele>
        <time>2014-07-06T08:24:35Z</time>
      </trkpt>
      <trkpt lat="41.609032008" lon="2.503295586">
        <ele>457.24</ele>
        <time>2014-07-06T08:24:42Z</time>
      </trkpt>
      <trkpt lat="41.609025889" lon="2.503266836">
        <ele>457.24</ele>
        <time>2014-07-06T08:24:43Z</time>
      </trkpt>
      <trkpt lat="41.609022452" lon="2.503242193">
        <ele>456.76</ele>
        <time>2014-07-06T08:24:44Z</time>
      </trkpt>
      <trkpt lat="41.609014322" lon="2.503103221">
        <ele>455.32</ele>
        <time>2014-07-06T08:24:50Z</time>
      </trkpt>
      <trkpt lat="41.609090094" lon="2.502988808">
        <ele>453.40</ele>
        <time>2014-07-06T08:24:57Z</time>
      </trkpt>
      <trkpt lat="41.609106104" lon="2.502870456">
        <ele>451.48</ele>
        <time>2014-07-06T08:25:02Z</time>
      </trkpt>
      <trkpt lat="41.609111887" lon="2.502746655">
        <ele>450.52</ele>
        <time>2014-07-06T08:25:05Z</time>
      </trkpt>
      <trkpt lat="41.609205932" lon="2.502524786">
        <ele>450.52</ele>
        <time>2014-07-06T08:25:12Z</time>
      </trkpt>
      <trkpt lat="41.609347000" lon="2.502335858">
        <ele>450.52</ele>
        <time>2014-07-06T08:25:20Z</time>
      </trkpt>
      <trkpt lat="41.609486475" lon="2.502273077">
        <ele>452.44</ele>
        <time>2014-07-06T08:25:28Z</time>
      </trkpt>
      <trkpt lat="41.609631482" lon="2.502219852">
        <ele>453.88</ele>
        <time>2014-07-06T08:25:36Z</time>
      </trkpt>
      <trkpt lat="41.609670290" lon="2.502200658">
        <ele>453.88</ele>
        <time>2014-07-06T08:25:38Z</time>
      </trkpt>
      <trkpt lat="41.609810184" lon="2.502110804">
        <ele>454.84</ele>
        <time>2014-07-06T08:25:46Z</time>
      </trkpt>
      <trkpt lat="41.609831055" lon="2.502063278">
        <ele>455.32</ele>
        <time>2014-07-06T08:25:49Z</time>
      </trkpt>
      <trkpt lat="41.609872461" lon="2.501888264">
        <ele>457.24</ele>
        <time>2014-07-06T08:25:59Z</time>
      </trkpt>
      <trkpt lat="41.609887465" lon="2.501834704">
        <ele>457.72</ele>
        <time>2014-07-06T08:26:02Z</time>
      </trkpt>
      <trkpt lat="41.609910767" lon="2.501654493">
        <ele>459.17</ele>
        <time>2014-07-06T08:26:11Z</time>
      </trkpt>
      <trkpt lat="41.609923842" lon="2.501502026">
        <ele>460.61</ele>
        <time>2014-07-06T08:26:19Z</time>
      </trkpt>
      <trkpt lat="41.609925016" lon="2.501370765">
        <ele>462.05</ele>
        <time>2014-07-06T08:26:27Z</time>
      </trkpt>
      <trkpt lat="41.609956783" lon="2.501241349">
        <ele>462.53</ele>
        <time>2014-07-06T08:26:33Z</time>
      </trkpt>
      <trkpt lat="41.610044458" lon="2.501145376">
        <ele>463.97</ele>
        <time>2014-07-06T08:26:41Z</time>
      </trkpt>
      <trkpt lat="41.610095755" lon="2.501113022">
        <ele>464.93</ele>
        <time>2014-07-06T08:26:45Z</time>
      </trkpt>
      <trkpt lat="41.610151327" lon="2.501084104">
        <ele>465.90</ele>
        <time>2014-07-06T08:26:49Z</time>
      </trkpt>
      <trkpt lat="41.610276804" lon="2.501003722">
        <ele>467.82</ele>
        <time>2014-07-06T08:26:58Z</time>
      </trkpt>
      <trkpt lat="41.610393480" lon="2.500959717">
        <ele>470.22</ele>
        <time>2014-07-06T08:27:07Z</time>
      </trkpt>
      <trkpt lat="41.610506804" lon="2.500884447">
        <ele>472.14</ele>
        <time>2014-07-06T08:27:17Z</time>
      </trkpt>
      <trkpt lat="41.610611997" lon="2.500833066">
        <ele>473.11</ele>
        <time>2014-07-06T08:27:26Z</time>
      </trkpt>
      <trkpt lat="41.610662875" lon="2.500824936">
        <ele>473.59</ele>
        <time>2014-07-06T08:27:31Z</time>
      </trkpt>
      <trkpt lat="41.610753651" lon="2.500822589">
        <ele>473.59</ele>
        <time>2014-07-06T08:27:35Z</time>
      </trkpt>
      <trkpt lat="41.610824394" lon="2.500765508">
        <ele>472.14</ele>
        <time>2014-07-06T08:27:37Z</time>
      </trkpt>
      <trkpt lat="41.610856245" lon="2.500721084">
        <ele>470.70</ele>
        <time>2014-07-06T08:27:38Z</time>
      </trkpt>
      <trkpt lat="41.610968311" lon="2.500362758">
        <ele>467.82</ele>
        <time>2014-07-06T08:27:43Z</time>
      </trkpt>
      <trkpt lat="41.611073420" lon="2.500060925">
        <ele>466.38</ele>
        <time>2014-07-06T08:27:47Z</time>
      </trkpt>
      <trkpt lat="41.611137961" lon="2.499722464">
        <ele>463.97</ele>
        <time>2014-07-06T08:27:52Z</time>
      </trkpt>
      <trkpt lat="41.611117509" lon="2.499543175">
        <ele>460.61</ele>
        <time>2014-07-06T08:27:56Z</time>
      </trkpt>
      <trkpt lat="41.611142487" lon="2.499396995">
        <ele>457.72</ele>
        <time>2014-07-06T08:27:58Z</time>
      </trkpt>
      <trkpt lat="41.611176769" lon="2.499204127">
        <ele>455.32</ele>
        <time>2014-07-06T08:28:01Z</time>
      </trkpt>
      <trkpt lat="41.611166962" lon="2.499136569">
        <ele>455.32</ele>
        <time>2014-07-06T08:28:03Z</time>
      </trkpt>
      <trkpt lat="41.611145924" lon="2.499053924">
        <ele>457.24</ele>
        <time>2014-07-06T08:28:06Z</time>
      </trkpt>
      <trkpt lat="41.611122287" lon="2.498936661">
        <ele>457.72</ele>
        <time>2014-07-06T08:28:10Z</time>
      </trkpt>
      <trkpt lat="41.611091358" lon="2.498831049">
        <ele>458.21</ele>
        <time>2014-07-06T08:28:14Z</time>
      </trkpt>
      <trkpt lat="41.610979543" lon="2.498675900">
        <ele>459.65</ele>
        <time>2014-07-06T08:28:22Z</time>
      </trkpt>
      <trkpt lat="41.610944758" lon="2.498638014">
        <ele>459.65</ele>
        <time>2014-07-06T08:28:24Z</time>
      </trkpt>
      <trkpt lat="41.610865549" lon="2.498547908">
        <ele>460.61</ele>
        <time>2014-07-06T08:28:29Z</time>
      </trkpt>
      <trkpt lat="41.610729259" lon="2.498403655">
        <ele>460.61</ele>
        <time>2014-07-06T08:28:36Z</time>
      </trkpt>
      <trkpt lat="41.610643848" lon="2.498343641">
        <ele>459.17</ele>
        <time>2014-07-06T08:28:38Z</time>
      </trkpt>
      <trkpt lat="41.610573272" lon="2.498311371">
        <ele>459.17</ele>
        <time>2014-07-06T08:28:40Z</time>
      </trkpt>
      <trkpt lat="41.610357271" lon="2.498331655">
        <ele>460.61</ele>
        <time>2014-07-06T08:28:48Z</time>
      </trkpt>
      <trkpt lat="41.610258616" lon="2.498372642">
        <ele>459.17</ele>
        <time>2014-07-06T08:28:51Z</time>
      </trkpt>
      <trkpt lat="41.610153674" lon="2.498323357">
        <ele>454.84</ele>
        <time>2014-07-06T08:28:56Z</time>
      </trkpt>
      <trkpt lat="41.610180245" lon="2.498172902">
        <ele>452.44</ele>
        <time>2014-07-06T08:29:01Z</time>
      </trkpt>
      <trkpt lat="41.610345368" lon="2.497989757">
        <ele>448.11</ele>
        <time>2014-07-06T08:29:07Z</time>
      </trkpt>
      <trkpt lat="41.610370262" lon="2.497947177">
        <ele>447.15</ele>
        <time>2014-07-06T08:29:08Z</time>
      </trkpt>
      <trkpt lat="41.610419883" lon="2.497727068">
        <ele>443.31</ele>
        <time>2014-07-06T08:29:12Z</time>
      </trkpt>
      <trkpt lat="41.610473528" lon="2.497560101">
        <ele>441.86</ele>
        <time>2014-07-06T08:29:15Z</time>
      </trkpt>
      <trkpt lat="41.610600430" lon="2.497364886">
        <ele>440.90</ele>
        <time>2014-07-06T08:29:19Z</time>
      </trkpt>
      <trkpt lat="41.610847277" lon="2.497072777">
        <ele>438.02</ele>
        <time>2014-07-06T08:29:26Z</time>
      </trkpt>
      <trkpt lat="41.611015250" lon="2.496876305">
        <ele>435.13</ele>
        <time>2014-07-06T08:29:32Z</time>
      </trkpt>
      <trkpt lat="41.611414983" lon="2.496523762">
        <ele>433.21</ele>
        <time>2014-07-06T08:29:40Z</time>
      </trkpt>
      <trkpt lat="41.611608186" lon="2.496403147">
        <ele>433.21</ele>
        <time>2014-07-06T08:29:45Z</time>
      </trkpt>
      <trkpt lat="41.611723521" lon="2.496301977">
        <ele>434.65</ele>
        <time>2014-07-06T08:29:51Z</time>
      </trkpt>
      <trkpt lat="41.611728634" lon="2.496284710">
        <ele>435.13</ele>
        <time>2014-07-06T08:29:52Z</time>
      </trkpt>
      <trkpt lat="41.611860649" lon="2.496138195">
        <ele>435.61</ele>
        <time>2014-07-06T08:30:00Z</time>
      </trkpt>
      <trkpt lat="41.611891410" lon="2.496098967">
        <ele>434.17</ele>
        <time>2014-07-06T08:30:01Z</time>
      </trkpt>
      <trkpt lat="41.612013451" lon="2.495856060">
        <ele>432.73</ele>
        <time>2014-07-06T08:30:07Z</time>
      </trkpt>
      <trkpt lat="41.612027951" lon="2.495806271">
        <ele>432.73</ele>
        <time>2014-07-06T08:30:09Z</time>
      </trkpt>
      <trkpt lat="41.612043626" lon="2.495769894">
        <ele>433.21</ele>
        <time>2014-07-06T08:30:17Z</time>
      </trkpt>
      <trkpt lat="41.612031220" lon="2.495775007">
        <ele>433.21</ele>
        <time>2014-07-06T08:30:28Z</time>
      </trkpt>
      <trkpt lat="41.611999453" lon="2.495772576">
        <ele>433.21</ele>
        <time>2014-07-06T08:30:38Z</time>
      </trkpt>
      <trkpt lat="41.611879089" lon="2.495787328">
        <ele>433.21</ele>
        <time>2014-07-06T08:30:45Z</time>
      </trkpt>
      <trkpt lat="41.611836090" lon="2.495781712">
        <ele>433.21</ele>
        <time>2014-07-06T08:30:47Z</time>
      </trkpt>
      <trkpt lat="41.611730478" lon="2.495731002">
        <ele>432.73</ele>
        <time>2014-07-06T08:30:53Z</time>
      </trkpt>
      <trkpt lat="41.611698710" lon="2.495545343">
        <ele>432.73</ele>
        <time>2014-07-06T08:31:01Z</time>
      </trkpt>
      <trkpt lat="41.611669457" lon="2.495400587">
        <ele>432.73</ele>
        <time>2014-07-06T08:31:07Z</time>
      </trkpt>
      <trkpt lat="41.611634505" lon="2.495178970">
        <ele>432.73</ele>
        <time>2014-07-06T08:31:14Z</time>
      </trkpt>
      <trkpt lat="41.611619669" lon="2.494992389">
        <ele>432.73</ele>
        <time>2014-07-06T08:31:21Z</time>
      </trkpt>
      <trkpt lat="41.611617071" lon="2.494771274">
        <ele>432.73</ele>
        <time>2014-07-06T08:31:28Z</time>
      </trkpt>
      <trkpt lat="41.611563678" lon="2.494392496">
        <ele>432.73</ele>
        <time>2014-07-06T08:31:37Z</time>
      </trkpt>
      <trkpt lat="41.611508776" lon="2.494188480">
        <ele>432.73</ele>
        <time>2014-07-06T08:31:42Z</time>
      </trkpt>
      <trkpt lat="41.611441051" lon="2.493980944">
        <ele>432.25</ele>
        <time>2014-07-06T08:31:48Z</time>
      </trkpt>
      <trkpt lat="41.611337366" lon="2.493799811">
        <ele>432.25</ele>
        <time>2014-07-06T08:31:55Z</time>
      </trkpt>
      <trkpt lat="41.611247764" lon="2.493667880">
        <ele>432.25</ele>
        <time>2014-07-06T08:31:59Z</time>
      </trkpt>
      <trkpt lat="41.611155647" lon="2.493488507">
        <ele>432.25</ele>
        <time>2014-07-06T08:32:03Z</time>
      </trkpt>
      <trkpt lat="41.611046766" lon="2.493149040">
        <ele>432.25</ele>
        <time>2014-07-06T08:32:11Z</time>
      </trkpt>
      <trkpt lat="41.610962192" lon="2.492902193">
        <ele>431.29</ele>
        <time>2014-07-06T08:32:16Z</time>
      </trkpt>
      <trkpt lat="41.610926569" lon="2.492729861">
        <ele>430.81</ele>
        <time>2014-07-06T08:32:19Z</time>
      </trkpt>
      <trkpt lat="41.610920870" lon="2.492444793">
        <ele>430.33</ele>
        <time>2014-07-06T08:32:24Z</time>
      </trkpt>
      <trkpt lat="41.610959259" lon="2.492019830">
        <ele>430.33</ele>
        <time>2014-07-06T08:32:32Z</time>
      </trkpt>
      <trkpt lat="41.610908632" lon="2.491756974">
        <ele>429.37</ele>
        <time>2014-07-06T08:32:37Z</time>
      </trkpt>
      <trkpt lat="41.610846355" lon="2.491610207">
        <ele>429.37</ele>
        <time>2014-07-06T08:32:40Z</time>
      </trkpt>
      <trkpt lat="41.610774605" lon="2.491459668">
        <ele>428.89</ele>
        <time>2014-07-06T08:32:43Z</time>
      </trkpt>
      <trkpt lat="41.610731858" lon="2.491238386">
        <ele>428.89</ele>
        <time>2014-07-06T08:32:47Z</time>
      </trkpt>
      <trkpt lat="41.610741497" lon="2.490643857">
        <ele>428.89</ele>
        <time>2014-07-06T08:32:58Z</time>
      </trkpt>
      <trkpt lat="41.610746526" lon="2.490253260">
        <ele>428.40</ele>
        <time>2014-07-06T08:33:06Z</time>
      </trkpt>
      <trkpt lat="41.610634292" lon="2.490006330">
        <ele>430.33</ele>
        <time>2014-07-06T08:33:12Z</time>
      </trkpt>
      <trkpt lat="41.610519209" lon="2.489685387">
        <ele>431.29</ele>
        <time>2014-07-06T08:33:20Z</time>
      </trkpt>
      <trkpt lat="41.610389289" lon="2.489464691">
        <ele>431.77</ele>
        <time>2014-07-06T08:33:27Z</time>
      </trkpt>
      <trkpt lat="41.610213940" lon="2.489445664">
        <ele>432.73</ele>
        <time>2014-07-06T08:33:32Z</time>
      </trkpt>
      <trkpt lat="41.610048900" lon="2.489589246">
        <ele>433.21</ele>
        <time>2014-07-06T08:33:38Z</time>
      </trkpt>
      <trkpt lat="41.609821667" lon="2.489948997">
        <ele>433.69</ele>
        <time>2014-07-06T08:33:48Z</time>
      </trkpt>
      <trkpt lat="41.609723682" lon="2.490300954">
        <ele>434.17</ele>
        <time>2014-07-06T08:33:56Z</time>
      </trkpt>
      <trkpt lat="41.609680013" lon="2.490565738">
        <ele>433.69</ele>
        <time>2014-07-06T08:34:02Z</time>
      </trkpt>
      <trkpt lat="41.609596445" lon="2.490933703">
        <ele>433.69</ele>
        <time>2014-07-06T08:34:09Z</time>
      </trkpt>
      <trkpt lat="41.609583621" lon="2.490991874">
        <ele>432.73</ele>
        <time>2014-07-06T08:34:10Z</time>
      </trkpt>
      <trkpt lat="41.609413468" lon="2.491187088">
        <ele>431.77</ele>
        <time>2014-07-06T08:34:15Z</time>
      </trkpt>
      <trkpt lat="41.609062686" lon="2.491246935">
        <ele>429.37</ele>
        <time>2014-07-06T08:34:21Z</time>
      </trkpt>
      <trkpt lat="41.608791699" lon="2.491447179">
        <ele>426.96</ele>
        <time>2014-07-06T08:34:26Z</time>
      </trkpt>
      <trkpt lat="41.608727577" lon="2.491594365">
        <ele>425.52</ele>
        <time>2014-07-06T08:34:28Z</time>
      </trkpt>
      <trkpt lat="41.608668652" lon="2.492119659">
        <ele>422.16</ele>
        <time>2014-07-06T08:34:34Z</time>
      </trkpt>
      <trkpt lat="41.608674603" lon="2.492200963">
        <ele>421.68</ele>
        <time>2014-07-06T08:34:35Z</time>
      </trkpt>
      <trkpt lat="41.608580307" lon="2.492519979">
        <ele>419.75</ele>
        <time>2014-07-06T08:34:40Z</time>
      </trkpt>
      <trkpt lat="41.608455333" lon="2.492544286">
        <ele>419.27</ele>
        <time>2014-07-06T08:34:43Z</time>
      </trkpt>
      <trkpt lat="41.608346284" lon="2.492409840">
        <ele>419.27</ele>
        <time>2014-07-06T08:34:47Z</time>
      </trkpt>
      <trkpt lat="41.608193231" lon="2.492110020">
        <ele>419.27</ele>
        <time>2014-07-06T08:34:55Z</time>
      </trkpt>
      <trkpt lat="41.608129444" lon="2.491904579">
        <ele>420.23</ele>
        <time>2014-07-06T08:35:00Z</time>
      </trkpt>
      <trkpt lat="41.607972703" lon="2.491647674">
        <ele>421.19</ele>
        <time>2014-07-06T08:35:08Z</time>
      </trkpt>
      <trkpt lat="41.607794336" lon="2.491586402">
        <ele>422.16</ele>
        <time>2014-07-06T08:35:14Z</time>
      </trkpt>
      <trkpt lat="41.607717809" lon="2.491546504">
        <ele>422.64</ele>
        <time>2014-07-06T08:35:17Z</time>
      </trkpt>
      <trkpt lat="41.607720994" lon="2.491312901">
        <ele>422.64</ele>
        <time>2014-07-06T08:35:23Z</time>
      </trkpt>
      <trkpt lat="41.607736752" lon="2.491282642">
        <ele>422.64</ele>
        <time>2014-07-06T08:35:24Z</time>
      </trkpt>
      <trkpt lat="41.607949066" lon="2.490873186">
        <ele>422.64</ele>
        <time>2014-07-06T08:35:36Z</time>
      </trkpt>
      <trkpt lat="41.607950491" lon="2.490611000">
        <ele>422.64</ele>
        <time>2014-07-06T08:35:42Z</time>
      </trkpt>
      <trkpt lat="41.607837670" lon="2.490432466">
        <ele>422.64</ele>
        <time>2014-07-06T08:35:47Z</time>
      </trkpt>
      <trkpt lat="41.607620831" lon="2.490249992">
        <ele>422.64</ele>
        <time>2014-07-06T08:35:54Z</time>
      </trkpt>
      <trkpt lat="41.607380605" lon="2.490152510">
        <ele>422.64</ele>
        <time>2014-07-06T08:36:01Z</time>
      </trkpt>
      <trkpt lat="41.607077683" lon="2.490129125">
        <ele>422.64</ele>
        <time>2014-07-06T08:36:09Z</time>
      </trkpt>
      <trkpt lat="41.606917421" lon="2.490080258">
        <ele>423.12</ele>
        <time>2014-07-06T08:36:14Z</time>
      </trkpt>
      <trkpt lat="41.606705611" lon="2.489924522">
        <ele>423.12</ele>
        <time>2014-07-06T08:36:21Z</time>
      </trkpt>
      <trkpt lat="41.606673340" lon="2.489721429">
        <ele>423.12</ele>
        <time>2014-07-06T08:36:26Z</time>
      </trkpt>
      <trkpt lat="41.606680549" lon="2.489669461">
        <ele>423.12</ele>
        <time>2014-07-06T08:36:28Z</time>
      </trkpt>
      <trkpt lat="41.606748945" lon="2.489648506">
        <ele>423.12</ele>
        <time>2014-07-06T08:36:36Z</time>
      </trkpt>
      <trkpt lat="41.606804014" lon="2.489678597">
        <ele>421.68</ele>
        <time>2014-07-06T08:36:39Z</time>
      </trkpt>
      <trkpt lat="41.606999480" lon="2.489679352">
        <ele>417.83</ele>
        <time>2014-07-06T08:36:46Z</time>
      </trkpt>
      <trkpt lat="41.607038205" lon="2.489671053">
        <ele>417.35</ele>
        <time>2014-07-06T08:36:47Z</time>
      </trkpt>
      <trkpt lat="41.607323273" lon="2.489528813">
        <ele>414.47</ele>
        <time>2014-07-06T08:36:52Z</time>
      </trkpt>
      <trkpt lat="41.607468783" lon="2.489450358">
        <ele>413.50</ele>
        <time>2014-07-06T08:36:54Z</time>
      </trkpt>
      <trkpt lat="41.607893997" lon="2.489279786">
        <ele>413.02</ele>
        <time>2014-07-06T08:37:00Z</time>
      </trkpt>
      <trkpt lat="41.608146292" lon="2.489104772">
        <ele>413.02</ele>
        <time>2014-07-06T08:37:05Z</time>
      </trkpt>
      <trkpt lat="41.608313511" lon="2.488858177">
        <ele>413.02</ele>
        <time>2014-07-06T08:37:12Z</time>
      </trkpt>
      <trkpt lat="41.608382410" lon="2.488629434">
        <ele>414.47</ele>
        <time>2014-07-06T08:37:19Z</time>
      </trkpt>
      <trkpt lat="41.608378387" lon="2.488375798">
        <ele>415.91</ele>
        <time>2014-07-06T08:37:26Z</time>
      </trkpt>
      <trkpt lat="41.608363635" lon="2.488043539">
        <ele>416.39</ele>
        <time>2014-07-06T08:37:35Z</time>
      </trkpt>
      <trkpt lat="41.608390205" lon="2.487599382">
        <ele>416.87</ele>
        <time>2014-07-06T08:37:46Z</time>
      </trkpt>
      <trkpt lat="41.608420213" lon="2.487265783">
        <ele>416.87</ele>
        <time>2014-07-06T08:37:54Z</time>
      </trkpt>
      <trkpt lat="41.608388864" lon="2.486900499">
        <ele>414.95</ele>
        <time>2014-07-06T08:38:02Z</time>
      </trkpt>
      <trkpt lat="41.608395738" lon="2.486846939">
        <ele>414.47</ele>
        <time>2014-07-06T08:38:03Z</time>
      </trkpt>
      <trkpt lat="41.608554910" lon="2.486631692">
        <ele>413.98</ele>
        <time>2014-07-06T08:38:09Z</time>
      </trkpt>
      <trkpt lat="41.608794884" lon="2.486444356">
        <ele>414.95</ele>
        <time>2014-07-06T08:38:18Z</time>
      </trkpt>
      <trkpt lat="41.608888761" lon="2.486350227">
        <ele>416.87</ele>
        <time>2014-07-06T08:38:25Z</time>
      </trkpt>
      <trkpt lat="41.609033181" lon="2.486159874">
        <ele>418.79</ele>
        <time>2014-07-06T08:38:34Z</time>
      </trkpt>
      <trkpt lat="41.609117839" lon="2.485893330">
        <ele>420.71</ele>
        <time>2014-07-06T08:38:44Z</time>
      </trkpt>
      <trkpt lat="41.609138877" lon="2.485727284">
        <ele>422.16</ele>
        <time>2014-07-06T08:38:50Z</time>
      </trkpt>
      <trkpt lat="41.609170728" lon="2.485492591">
        <ele>424.08</ele>
        <time>2014-07-06T08:38:59Z</time>
      </trkpt>
      <trkpt lat="41.609246333" lon="2.485257562">
        <ele>425.04</ele>
        <time>2014-07-06T08:39:08Z</time>
      </trkpt>
      <trkpt lat="41.609420341" lon="2.485140132">
        <ele>425.04</ele>
        <time>2014-07-06T08:39:16Z</time>
      </trkpt>
      <trkpt lat="41.609567611" lon="2.485029156">
        <ele>426.00</ele>
        <time>2014-07-06T08:39:24Z</time>
      </trkpt>
      <trkpt lat="41.609689149" lon="2.484836791">
        <ele>426.48</ele>
        <time>2014-07-06T08:39:32Z</time>
      </trkpt>
      <trkpt lat="41.609760479" lon="2.484574353">
        <ele>427.92</ele>
        <time>2014-07-06T08:39:41Z</time>
      </trkpt>
      <trkpt lat="41.609823176" lon="2.484252991">
        <ele>428.40</ele>
        <time>2014-07-06T08:39:51Z</time>
      </trkpt>
      <trkpt lat="41.609776153" lon="2.483954093">
        <ele>428.89</ele>
        <time>2014-07-06T08:39:59Z</time>
      </trkpt>
      <trkpt lat="41.609686215" lon="2.483606830">
        <ele>428.89</ele>
        <time>2014-07-06T08:40:07Z</time>
      </trkpt>
      <trkpt lat="41.609622429" lon="2.483374819">
        <ele>428.40</ele>
        <time>2014-07-06T08:40:12Z</time>
      </trkpt>
      <trkpt lat="41.609365105" lon="2.482975086">
        <ele>425.04</ele>
        <time>2014-07-06T08:40:20Z</time>
      </trkpt>
      <trkpt lat="41.609115911" lon="2.482616006">
        <ele>423.60</ele>
        <time>2014-07-06T08:40:26Z</time>
      </trkpt>
      <trkpt lat="41.608997223" lon="2.482513914">
        <ele>423.12</ele>
        <time>2014-07-06T08:40:28Z</time>
      </trkpt>
      <trkpt lat="41.608864956" lon="2.482456330">
        <ele>422.16</ele>
        <time>2014-07-06T08:40:30Z</time>
      </trkpt>
      <trkpt lat="41.608677789" lon="2.482292967">
        <ele>420.71</ele>
        <time>2014-07-06T08:40:34Z</time>
      </trkpt>
      <trkpt lat="41.608682566" lon="2.482007647">
        <ele>419.75</ele>
        <time>2014-07-06T08:40:38Z</time>
      </trkpt>
      <trkpt lat="41.608729924" lon="2.481854091">
        <ele>419.27</ele>
        <time>2014-07-06T08:40:40Z</time>
      </trkpt>
      <trkpt lat="41.608739479" lon="2.481417310">
        <ele>417.83</ele>
        <time>2014-07-06T08:40:45Z</time>
      </trkpt>
      <trkpt lat="41.608709137" lon="2.481295269">
        <ele>416.87</ele>
        <time>2014-07-06T08:40:47Z</time>
      </trkpt>
      <trkpt lat="41.608522220" lon="2.481061582">
        <ele>414.95</ele>
        <time>2014-07-06T08:40:52Z</time>
      </trkpt>
      <trkpt lat="41.608405712" lon="2.481003495">
        <ele>413.50</ele>
        <time>2014-07-06T08:40:54Z</time>
      </trkpt>
      <trkpt lat="41.608280151" lon="2.480956556">
        <ele>413.02</ele>
        <time>2014-07-06T08:40:56Z</time>
      </trkpt>
      <trkpt lat="41.608122655" lon="2.480769975">
        <ele>412.06</ele>
        <time>2014-07-06T08:41:01Z</time>
      </trkpt>
      <trkpt lat="41.608094827" lon="2.480677690">
        <ele>411.58</ele>
        <time>2014-07-06T08:41:03Z</time>
      </trkpt>
      <trkpt lat="41.607978403" lon="2.480326237">
        <ele>411.58</ele>
        <time>2014-07-06T08:41:11Z</time>
      </trkpt>
      <trkpt lat="41.607837419" lon="2.479836650">
        <ele>411.10</ele>
        <time>2014-07-06T08:41:22Z</time>
      </trkpt>
      <trkpt lat="41.607787547" lon="2.479477150">
        <ele>410.14</ele>
        <time>2014-07-06T08:41:30Z</time>
      </trkpt>
      <trkpt lat="41.607699369" lon="2.479232986">
        <ele>409.18</ele>
        <time>2014-07-06T08:41:35Z</time>
      </trkpt>
      <trkpt lat="41.607667350" lon="2.479119327">
        <ele>408.22</ele>
        <time>2014-07-06T08:41:37Z</time>
      </trkpt>
      <trkpt lat="41.607544136" lon="2.478747422">
        <ele>405.33</ele>
        <time>2014-07-06T08:41:42Z</time>
      </trkpt>
      <trkpt lat="41.607477332" lon="2.478425892">
        <ele>403.89</ele>
        <time>2014-07-06T08:41:46Z</time>
      </trkpt>
      <trkpt lat="41.607325369" lon="2.477917865">
        <ele>402.93</ele>
        <time>2014-07-06T08:41:53Z</time>
      </trkpt>
      <trkpt lat="41.607166951" lon="2.477549732">
        <ele>402.93</ele>
        <time>2014-07-06T08:41:59Z</time>
      </trkpt>
      <trkpt lat="41.607110624" lon="2.477422914">
        <ele>402.93</ele>
        <time>2014-07-06T08:42:01Z</time>
      </trkpt>
      <trkpt lat="41.606909794" lon="2.477143629">
        <ele>402.93</ele>
        <time>2014-07-06T08:42:08Z</time>
      </trkpt>
      <trkpt lat="41.606865202" lon="2.477096103">
        <ele>402.93</ele>
        <time>2014-07-06T08:42:10Z</time>
      </trkpt>
      <trkpt lat="41.606772750" lon="2.476864511">
        <ele>404.37</ele>
        <time>2014-07-06T08:42:17Z</time>
      </trkpt>
      <trkpt lat="41.606734444" lon="2.476643900">
        <ele>406.77</ele>
        <time>2014-07-06T08:42:24Z</time>
      </trkpt>
      <trkpt lat="41.606710472" lon="2.476463940">
        <ele>408.70</ele>
        <time>2014-07-06T08:42:30Z</time>
      </trkpt>
      <trkpt lat="41.606673173" lon="2.476322035">
        <ele>407.26</ele>
        <time>2014-07-06T08:42:33Z</time>
      </trkpt>
      <trkpt lat="41.606465888" lon="2.476050293">
        <ele>405.33</ele>
        <time>2014-07-06T08:42:38Z</time>
      </trkpt>
      <trkpt lat="41.606357259" lon="2.475907968">
        <ele>403.89</ele>
        <time>2014-07-06T08:42:40Z</time>
      </trkpt>
      <trkpt lat="41.605930620" lon="2.475319056">
        <ele>400.05</ele>
        <time>2014-07-06T08:42:47Z</time>
      </trkpt>
      <trkpt lat="41.605623004" lon="2.474743890">
        <ele>397.64</ele>
        <time>2014-07-06T08:42:53Z</time>
      </trkpt>
      <trkpt lat="41.605585118" lon="2.474227900">
        <ele>397.16</ele>
        <time>2014-07-06T08:42:58Z</time>
      </trkpt>
      <trkpt lat="41.605671787" lon="2.473984489">
        <ele>396.68</ele>
        <time>2014-07-06T08:43:01Z</time>
      </trkpt>
      <trkpt lat="41.605953670" lon="2.473418376">
        <ele>393.80</ele>
        <time>2014-07-06T08:43:08Z</time>
      </trkpt>
      <trkpt lat="41.606056348" lon="2.473226514">
        <ele>392.84</ele>
        <time>2014-07-06T08:43:10Z</time>
      </trkpt>
      <trkpt lat="41.606103790" lon="2.473126434">
        <ele>392.36</ele>
        <time>2014-07-06T08:43:11Z</time>
      </trkpt>
      <trkpt lat="41.606202696" lon="2.472572893">
        <ele>390.91</ele>
        <time>2014-07-06T08:43:16Z</time>
      </trkpt>
      <trkpt lat="41.606110495" lon="2.472316742">
        <ele>390.43</ele>
        <time>2014-07-06T08:43:19Z</time>
      </trkpt>
      <trkpt lat="41.605754265" lon="2.471907370">
        <ele>391.87</ele>
        <time>2014-07-06T08:43:28Z</time>
      </trkpt>
      <trkpt lat="41.605569108" lon="2.471726488">
        <ele>392.84</ele>
        <time>2014-07-06T08:43:35Z</time>
      </trkpt>
      <trkpt lat="41.605483613" lon="2.471646944">
        <ele>392.84</ele>
        <time>2014-07-06T08:43:38Z</time>
      </trkpt>
      <trkpt lat="41.605299798" lon="2.471398253">
        <ele>389.95</ele>
        <time>2014-07-06T08:43:43Z</time>
      </trkpt>
      <trkpt lat="41.605261576" lon="2.471330276">
        <ele>389.47</ele>
        <time>2014-07-06T08:43:44Z</time>
      </trkpt>
      <trkpt lat="41.605039624" lon="2.470965160">
        <ele>386.11</ele>
        <time>2014-07-06T08:43:49Z</time>
      </trkpt>
      <trkpt lat="41.604883469" lon="2.470624436">
        <ele>382.74</ele>
        <time>2014-07-06T08:43:53Z</time>
      </trkpt>
      <trkpt lat="41.604763021" lon="2.470219087">
        <ele>377.94</ele>
        <time>2014-07-06T08:43:57Z</time>
      </trkpt>
      <trkpt lat="41.604771822" lon="2.469792364">
        <ele>375.53</ele>
        <time>2014-07-06T08:44:01Z</time>
      </trkpt>
      <trkpt lat="41.604746089" lon="2.469467566">
        <ele>374.09</ele>
        <time>2014-07-06T08:44:04Z</time>
      </trkpt>
      <trkpt lat="41.604674592" lon="2.469273273">
        <ele>373.61</ele>
        <time>2014-07-06T08:44:06Z</time>
      </trkpt>
      <trkpt lat="41.604475438" lon="2.468916707">
        <ele>373.13</ele>
        <time>2014-07-06T08:44:11Z</time>
      </trkpt>
      <trkpt lat="41.604298244" lon="2.468579587">
        <ele>375.05</ele>
        <time>2014-07-06T08:44:18Z</time>
      </trkpt>
      <trkpt lat="41.604228926" lon="2.468367357">
        <ele>376.01</ele>
        <time>2014-07-06T08:44:24Z</time>
      </trkpt>
      <trkpt lat="41.604127170" lon="2.468175747">
        <ele>377.45</ele>
        <time>2014-07-06T08:44:31Z</time>
      </trkpt>
      <trkpt lat="41.604030778" lon="2.468013976">
        <ele>379.38</ele>
        <time>2014-07-06T08:44:38Z</time>
      </trkpt>
      <trkpt lat="41.603949138" lon="2.467772409">
        <ele>380.82</ele>
        <time>2014-07-06T08:44:45Z</time>
      </trkpt>
      <trkpt lat="41.603841598" lon="2.467539979">
        <ele>381.30</ele>
        <time>2014-07-06T08:44:53Z</time>
      </trkpt>
      <trkpt lat="41.603724251" lon="2.467236890">
        <ele>381.78</ele>
        <time>2014-07-06T08:45:01Z</time>
      </trkpt>
      <trkpt lat="41.603713774" lon="2.467188778">
        <ele>381.78</ele>
        <time>2014-07-06T08:45:02Z</time>
      </trkpt>
      <trkpt lat="41.603587375" lon="2.466826931">
        <ele>378.90</ele>
        <time>2014-07-06T08:45:07Z</time>
      </trkpt>
      <trkpt lat="41.603529288" lon="2.466650911">
        <ele>378.42</ele>
        <time>2014-07-06T08:45:09Z</time>
      </trkpt>
      <trkpt lat="41.603468436" lon="2.466512023">
        <ele>377.94</ele>
        <time>2014-07-06T08:45:11Z</time>
      </trkpt>
      <trkpt lat="41.603328374" lon="2.466240868">
        <ele>377.45</ele>
        <time>2014-07-06T08:45:17Z</time>
      </trkpt>
      <trkpt lat="41.603212369" lon="2.466005672">
        <ele>377.45</ele>
        <time>2014-07-06T08:45:24Z</time>
      </trkpt>
      <trkpt lat="41.603112540" lon="2.465839207">
        <ele>378.42</ele>
        <time>2014-07-06T08:45:30Z</time>
      </trkpt>
      <trkpt lat="41.603002318" lon="2.465607615">
        <ele>380.34</ele>
        <time>2014-07-06T08:45:38Z</time>
      </trkpt>
      <trkpt lat="41.602892180" lon="2.465345848">
        <ele>382.26</ele>
        <time>2014-07-06T08:45:47Z</time>
      </trkpt>
      <trkpt lat="41.602817749" lon="2.465188772">
        <ele>383.22</ele>
        <time>2014-07-06T08:45:53Z</time>
      </trkpt>
      <trkpt lat="41.602716998" lon="2.464955587">
        <ele>385.15</ele>
        <time>2014-07-06T08:46:01Z</time>
      </trkpt>
      <trkpt lat="41.602585235" lon="2.464776717">
        <ele>387.55</ele>
        <time>2014-07-06T08:46:10Z</time>
      </trkpt>
      <trkpt lat="41.602470738" lon="2.464654593">
        <ele>388.51</ele>
        <time>2014-07-06T08:46:17Z</time>
      </trkpt>
      <trkpt lat="41.602348530" lon="2.464515705">
        <ele>389.47</ele>
        <time>2014-07-06T08:46:25Z</time>
      </trkpt>
      <trkpt lat="41.602320618" lon="2.464474047">
        <ele>389.95</ele>
        <time>2014-07-06T08:46:27Z</time>
      </trkpt>
      <trkpt lat="41.602181143" lon="2.464351084">
        <ele>389.95</ele>
        <time>2014-07-06T08:46:34Z</time>
      </trkpt>
      <trkpt lat="41.601980229" lon="2.464071464">
        <ele>388.51</ele>
        <time>2014-07-06T08:46:41Z</time>
      </trkpt>
      <trkpt lat="41.601951060" lon="2.464018490">
        <ele>388.51</ele>
        <time>2014-07-06T08:46:42Z</time>
      </trkpt>
      <trkpt lat="41.601874617" lon="2.463857390">
        <ele>388.03</ele>
        <time>2014-07-06T08:46:45Z</time>
      </trkpt>
      <trkpt lat="41.601773447" lon="2.463613812">
        <ele>387.07</ele>
        <time>2014-07-06T08:46:49Z</time>
      </trkpt>
      <trkpt lat="41.601714606" lon="2.463498812">
        <ele>387.07</ele>
        <time>2014-07-06T08:46:51Z</time>
      </trkpt>
      <trkpt lat="41.601590135" lon="2.463108299">
        <ele>386.59</ele>
        <time>2014-07-06T08:46:58Z</time>
      </trkpt>
      <trkpt lat="41.601497347" lon="2.462843599">
        <ele>386.59</ele>
        <time>2014-07-06T08:47:05Z</time>
      </trkpt>
      <trkpt lat="41.601410259" lon="2.462678056">
        <ele>386.59</ele>
        <time>2014-07-06T08:47:11Z</time>
      </trkpt>
      <trkpt lat="41.601278580" lon="2.462490134">
        <ele>387.55</ele>
        <time>2014-07-06T08:47:18Z</time>
      </trkpt>
      <trkpt lat="41.601156539" lon="2.462279497">
        <ele>389.47</ele>
        <time>2014-07-06T08:47:26Z</time>
      </trkpt>
      <trkpt lat="41.600995607" lon="2.462152762">
        <ele>389.47</ele>
        <time>2014-07-06T08:47:33Z</time>
      </trkpt>
      <trkpt lat="41.600750855" lon="2.462059472">
        <ele>389.47</ele>
        <time>2014-07-06T08:47:41Z</time>
      </trkpt>
      <trkpt lat="41.600577434" lon="2.461986885">
        <ele>388.51</ele>
        <time>2014-07-06T08:47:46Z</time>
      </trkpt>
      <trkpt lat="41.600353050" lon="2.461871047">
        <ele>388.51</ele>
        <time>2014-07-06T08:47:53Z</time>
      </trkpt>
      <trkpt lat="41.600132690" lon="2.461719334">
        <ele>388.51</ele>
        <time>2014-07-06T08:48:00Z</time>
      </trkpt>
      <trkpt lat="41.599935044" lon="2.461588828">
        <ele>384.66</ele>
        <time>2014-07-06T08:48:05Z</time>
      </trkpt>
      <trkpt lat="41.599883999" lon="2.461555384">
        <ele>384.18</ele>
        <time>2014-07-06T08:48:06Z</time>
      </trkpt>
      <trkpt lat="41.599739662" lon="2.461432254">
        <ele>382.74</ele>
        <time>2014-07-06T08:48:09Z</time>
      </trkpt>
      <trkpt lat="41.599656095" lon="2.461367211">
        <ele>381.78</ele>
        <time>2014-07-06T08:48:11Z</time>
      </trkpt>
      <trkpt lat="41.599575880" lon="2.461300658">
        <ele>380.34</ele>
        <time>2014-07-06T08:48:13Z</time>
      </trkpt>
      <trkpt lat="41.599347389" lon="2.461087255">
        <ele>376.49</ele>
        <time>2014-07-06T08:48:19Z</time>
      </trkpt>
      <trkpt lat="41.599165083" lon="2.460821716">
        <ele>372.65</ele>
        <time>2014-07-06T08:48:24Z</time>
      </trkpt>
      <trkpt lat="41.599074810" lon="2.460709985">
        <ele>371.69</ele>
        <time>2014-07-06T08:48:26Z</time>
      </trkpt>
      <trkpt lat="41.598933910" lon="2.460537402">
        <ele>368.32</ele>
        <time>2014-07-06T08:48:29Z</time>
      </trkpt>
      <trkpt lat="41.598776665" lon="2.460377559">
        <ele>366.40</ele>
        <time>2014-07-06T08:48:32Z</time>
      </trkpt>
      <trkpt lat="41.598681531" lon="2.460246718">
        <ele>364.96</ele>
        <time>2014-07-06T08:48:34Z</time>
      </trkpt>
      <trkpt lat="41.598446335" lon="2.460036500">
        <ele>361.59</ele>
        <time>2014-07-06T08:48:39Z</time>
      </trkpt>
      <trkpt lat="41.598369724" lon="2.460053180">
        <ele>359.67</ele>
        <time>2014-07-06T08:48:41Z</time>
      </trkpt>
      <trkpt lat="41.598124805" lon="2.460085366">
        <ele>356.31</ele>
        <time>2014-07-06T08:48:47Z</time>
      </trkpt>
      <trkpt lat="41.598003519" lon="2.460173041">
        <ele>355.34</ele>
        <time>2014-07-06T08:48:50Z</time>
      </trkpt>
      <trkpt lat="41.597836551" lon="2.460246550">
        <ele>352.46</ele>
        <time>2014-07-06T08:48:54Z</time>
      </trkpt>
      <trkpt lat="41.597794223" lon="2.460212520">
        <ele>352.46</ele>
        <time>2014-07-06T08:48:56Z</time>
      </trkpt>
      <trkpt lat="41.597715433" lon="2.460114954">
        <ele>351.50</ele>
        <time>2014-07-06T08:48:59Z</time>
      </trkpt>
      <trkpt lat="41.597646785" lon="2.460030548">
        <ele>351.02</ele>
        <time>2014-07-06T08:49:01Z</time>
      </trkpt>
      <trkpt lat="41.597546454" lon="2.459898869">
        <ele>349.58</ele>
        <time>2014-07-06T08:49:04Z</time>
      </trkpt>
      <trkpt lat="41.597444362" lon="2.459794430">
        <ele>348.62</ele>
        <time>2014-07-06T08:49:07Z</time>
      </trkpt>
      <trkpt lat="41.597402452" lon="2.459765764">
        <ele>348.13</ele>
        <time>2014-07-06T08:49:08Z</time>
      </trkpt>
      <trkpt lat="41.597171699" lon="2.459545571">
        <ele>345.73</ele>
        <time>2014-07-06T08:49:13Z</time>
      </trkpt>
      <trkpt lat="41.596999618" lon="2.459450018">
        <ele>343.33</ele>
        <time>2014-07-06T08:49:17Z</time>
      </trkpt>
      <trkpt lat="41.596848995" lon="2.459400062">
        <ele>341.89</ele>
        <time>2014-07-06T08:49:20Z</time>
      </trkpt>
      <trkpt lat="41.596656715" lon="2.459145000">
        <ele>338.52</ele>
        <time>2014-07-06T08:49:25Z</time>
      </trkpt>
      <trkpt lat="41.596638358" lon="2.459060259">
        <ele>338.52</ele>
        <time>2014-07-06T08:49:26Z</time>
      </trkpt>
      <trkpt lat="41.596612793" lon="2.458856579">
        <ele>336.60</ele>
        <time>2014-07-06T08:49:29Z</time>
      </trkpt>
      <trkpt lat="41.596753023" lon="2.458672093">
        <ele>334.20</ele>
        <time>2014-07-06T08:49:36Z</time>
      </trkpt>
      <trkpt lat="41.596856707" lon="2.458447877">
        <ele>332.27</ele>
        <time>2014-07-06T08:49:41Z</time>
      </trkpt>
      <trkpt lat="41.596823933" lon="2.458256519">
        <ele>330.35</ele>
        <time>2014-07-06T08:49:47Z</time>
      </trkpt>
      <trkpt lat="41.596817815" lon="2.458246209">
        <ele>330.35</ele>
        <time>2014-07-06T08:49:58Z</time>
      </trkpt>
      <trkpt lat="41.596802392" lon="2.458242856">
        <ele>330.35</ele>
        <time>2014-07-06T08:50:05Z</time>
      </trkpt>
      <trkpt lat="41.596787472" lon="2.458204383">
        <ele>330.35</ele>
        <time>2014-07-06T08:50:23Z</time>
      </trkpt>
      <trkpt lat="41.596732319" lon="2.458114110">
        <ele>328.43</ele>
        <time>2014-07-06T08:50:29Z</time>
      </trkpt>
      <trkpt lat="41.596737684" lon="2.458053257">
        <ele>328.43</ele>
        <time>2014-07-06T08:50:31Z</time>
      </trkpt>
      <trkpt lat="41.596734247" lon="2.457940018">
        <ele>327.47</ele>
        <time>2014-07-06T08:50:34Z</time>
      </trkpt>
      <trkpt lat="41.596651685" lon="2.457830383">
        <ele>326.50</ele>
        <time>2014-07-06T08:50:38Z</time>
      </trkpt>
      <trkpt lat="41.596512127" lon="2.457708091">
        <ele>325.54</ele>
        <time>2014-07-06T08:50:44Z</time>
      </trkpt>
      <trkpt lat="41.596418752" lon="2.457545146">
        <ele>323.62</ele>
        <time>2014-07-06T08:50:50Z</time>
      </trkpt>
      <trkpt lat="41.596348931" lon="2.457370216">
        <ele>320.74</ele>
        <time>2014-07-06T08:50:56Z</time>
      </trkpt>
      <trkpt lat="41.596311296" lon="2.457308190">
        <ele>319.30</ele>
        <time>2014-07-06T08:50:59Z</time>
      </trkpt>
      <trkpt lat="41.596236194" lon="2.457166284">
        <ele>316.89</ele>
        <time>2014-07-06T08:51:05Z</time>
      </trkpt>
      <trkpt lat="41.596178862" lon="2.456949864">
        <ele>313.53</ele>
        <time>2014-07-06T08:51:14Z</time>
      </trkpt>
      <trkpt lat="41.596198727" lon="2.456816675">
        <ele>311.60</ele>
        <time>2014-07-06T08:51:19Z</time>
      </trkpt>
      <trkpt lat="41.596241978" lon="2.456692455">
        <ele>309.68</ele>
        <time>2014-07-06T08:51:23Z</time>
      </trkpt>
      <trkpt lat="41.596268129" lon="2.456599584">
        <ele>308.24</ele>
        <time>2014-07-06T08:51:26Z</time>
      </trkpt>
      <trkpt lat="41.596255473" lon="2.456514843">
        <ele>307.28</ele>
        <time>2014-07-06T08:51:31Z</time>
      </trkpt>
      <trkpt lat="41.596220101" lon="2.456508473">
        <ele>307.28</ele>
        <time>2014-07-06T08:51:35Z</time>
      </trkpt>
      <trkpt lat="41.596115746" lon="2.456594387">
        <ele>305.36</ele>
        <time>2014-07-06T08:51:43Z</time>
      </trkpt>
      <trkpt lat="41.595979289" lon="2.456600171">
        <ele>303.91</ele>
        <time>2014-07-06T08:51:49Z</time>
      </trkpt>
      <trkpt lat="41.595831516" lon="2.456659515">
        <ele>300.55</ele>
        <time>2014-07-06T08:51:55Z</time>
      </trkpt>
      <trkpt lat="41.595734454" lon="2.456717517">
        <ele>298.15</ele>
        <time>2014-07-06T08:51:59Z</time>
      </trkpt>
      <trkpt lat="41.595690784" lon="2.456705783">
        <ele>297.67</ele>
        <time>2014-07-06T08:52:01Z</time>
      </trkpt>
      <trkpt lat="41.595657675" lon="2.456631770">
        <ele>296.22</ele>
        <time>2014-07-06T08:52:04Z</time>
      </trkpt>
      <trkpt lat="41.595645270" lon="2.456506964">
        <ele>293.82</ele>
        <time>2014-07-06T08:52:09Z</time>
      </trkpt>
      <trkpt lat="41.595671757" lon="2.456349217">
        <ele>291.90</ele>
        <time>2014-07-06T08:52:15Z</time>
      </trkpt>
      <trkpt lat="41.595702183" lon="2.456132377">
        <ele>288.53</ele>
        <time>2014-07-06T08:52:22Z</time>
      </trkpt>
      <trkpt lat="41.595698914" lon="2.455937833">
        <ele>286.13</ele>
        <time>2014-07-06T08:52:29Z</time>
      </trkpt>
      <trkpt lat="41.595665219" lon="2.455850409">
        <ele>283.73</ele>
        <time>2014-07-06T08:52:34Z</time>
      </trkpt>
      <trkpt lat="41.595546867" lon="2.455813278">
        <ele>280.84</ele>
        <time>2014-07-06T08:52:41Z</time>
      </trkpt>
      <trkpt lat="41.595451145" lon="2.455840686">
        <ele>277.96</ele>
        <time>2014-07-06T08:52:47Z</time>
      </trkpt>
      <trkpt lat="41.595419127" lon="2.455850074">
        <ele>276.52</ele>
        <time>2014-07-06T08:52:49Z</time>
      </trkpt>
      <trkpt lat="41.595379648" lon="2.455851331">
        <ele>276.04</ele>
        <time>2014-07-06T08:52:52Z</time>
      </trkpt>
      <trkpt lat="41.595326926" lon="2.455882261">
        <ele>273.63</ele>
        <time>2014-07-06T08:53:00Z</time>
      </trkpt>
      <trkpt lat="41.595291470" lon="2.455892235">
        <ele>272.67</ele>
        <time>2014-07-06T08:53:07Z</time>
      </trkpt>
      <trkpt lat="41.595274120" lon="2.455924338">
        <ele>272.19</ele>
        <time>2014-07-06T08:53:16Z</time>
      </trkpt>
      <trkpt lat="41.595249980" lon="2.455933390">
        <ele>271.71</ele>
        <time>2014-07-06T08:53:24Z</time>
      </trkpt>
      <trkpt lat="41.595227851" lon="2.455958620">
        <ele>271.71</ele>
        <time>2014-07-06T08:53:31Z</time>
      </trkpt>
      <trkpt lat="41.595213267" lon="2.455956524">
        <ele>271.23</ele>
        <time>2014-07-06T08:53:41Z</time>
      </trkpt>
      <trkpt lat="41.595193150" lon="2.455972115">
        <ele>271.23</ele>
        <time>2014-07-06T08:53:53Z</time>
      </trkpt>
      <trkpt lat="41.595183679" lon="2.455962811">
        <ele>270.75</ele>
        <time>2014-07-06T08:53:57Z</time>
      </trkpt>
      <trkpt lat="41.595077145" lon="2.455917549">
        <ele>268.83</ele>
        <time>2014-07-06T08:54:06Z</time>
      </trkpt>
      <trkpt lat="41.594940771" lon="2.455865497">
        <ele>265.46</ele>
        <time>2014-07-06T08:54:14Z</time>
      </trkpt>
      <trkpt lat="41.594823089" lon="2.455904221">
        <ele>263.54</ele>
        <time>2014-07-06T08:54:21Z</time>
      </trkpt>
      <trkpt lat="41.594764835" lon="2.455955602">
        <ele>262.58</ele>
        <time>2014-07-06T08:54:27Z</time>
      </trkpt>
      <trkpt lat="41.594729715" lon="2.456002373">
        <ele>261.14</ele>
        <time>2014-07-06T08:54:31Z</time>
      </trkpt>
      <trkpt lat="41.594648075" lon="2.456058951">
        <ele>259.69</ele>
        <time>2014-07-06T08:54:37Z</time>
      </trkpt>
      <trkpt lat="41.594533159" lon="2.456087031">
        <ele>257.29</ele>
        <time>2014-07-06T08:54:43Z</time>
      </trkpt>
      <trkpt lat="41.594378932" lon="2.456102286">
        <ele>255.85</ele>
        <time>2014-07-06T08:54:50Z</time>
      </trkpt>
      <trkpt lat="41.594266028" lon="2.456116200">
        <ele>254.89</ele>
        <time>2014-07-06T08:54:57Z</time>
      </trkpt>
      <trkpt lat="41.594114483" lon="2.456113769">
        <ele>252.96</ele>
        <time>2014-07-06T08:55:03Z</time>
      </trkpt>
      <trkpt lat="41.593948857" lon="2.456118798">
        <ele>251.52</ele>
        <time>2014-07-06T08:55:10Z</time>
      </trkpt>
      <trkpt lat="41.593820698" lon="2.456147548">
        <ele>250.08</ele>
        <time>2014-07-06T08:55:16Z</time>
      </trkpt>
      <trkpt lat="41.593668901" lon="2.456163474">
        <ele>248.16</ele>
        <time>2014-07-06T08:55:22Z</time>
      </trkpt>
      <trkpt lat="41.593527750" lon="2.456202366">
        <ele>247.20</ele>
        <time>2014-07-06T08:55:28Z</time>
      </trkpt>
      <trkpt lat="41.593368829" lon="2.456232540">
        <ele>245.75</ele>
        <time>2014-07-06T08:55:34Z</time>
      </trkpt>
      <trkpt lat="41.593244526" lon="2.456286771">
        <ele>244.31</ele>
        <time>2014-07-06T08:55:40Z</time>
      </trkpt>
      <trkpt lat="41.593114187" lon="2.456300015">
        <ele>242.87</ele>
        <time>2014-07-06T08:55:46Z</time>
      </trkpt>
      <trkpt lat="41.592960211" lon="2.456239246">
        <ele>242.39</ele>
        <time>2014-07-06T08:55:52Z</time>
      </trkpt>
      <trkpt lat="41.592831046" lon="2.456137657">
        <ele>240.95</ele>
        <time>2014-07-06T08:55:59Z</time>
      </trkpt>
      <trkpt lat="41.592744461" lon="2.456063813">
        <ele>240.95</ele>
        <time>2014-07-06T08:56:06Z</time>
      </trkpt>
      <trkpt lat="41.592673131" lon="2.455957279">
        <ele>242.87</ele>
        <time>2014-07-06T08:56:14Z</time>
      </trkpt>
      <trkpt lat="41.592640693" lon="2.455932552">
        <ele>242.87</ele>
        <time>2014-07-06T08:56:23Z</time>
      </trkpt>
      <trkpt lat="41.592636418" lon="2.455909334">
        <ele>242.87</ele>
        <time>2014-07-06T08:56:24Z</time>
      </trkpt>
      <trkpt lat="41.592587636" lon="2.455758292">
        <ele>240.95</ele>
        <time>2014-07-06T08:56:31Z</time>
      </trkpt>
      <trkpt lat="41.592571710" lon="2.455743373">
        <ele>240.47</ele>
        <time>2014-07-06T08:56:32Z</time>
      </trkpt>
      <trkpt lat="41.592461656" lon="2.455740104">
        <ele>239.02</ele>
        <time>2014-07-06T08:56:39Z</time>
      </trkpt>
      <trkpt lat="41.592441539" lon="2.455718562">
        <ele>239.02</ele>
        <time>2014-07-06T08:56:50Z</time>
      </trkpt>
      <trkpt lat="41.592444557" lon="2.455703726">
        <ele>239.02</ele>
        <time>2014-07-06T08:57:04Z</time>
      </trkpt>
      <trkpt lat="41.592449754" lon="2.455686376">
        <ele>239.02</ele>
        <time>2014-07-06T08:57:07Z</time>
      </trkpt>
      <trkpt lat="41.592448915" lon="2.455627367">
        <ele>239.02</ele>
        <time>2014-07-06T08:57:11Z</time>
      </trkpt>
      <trkpt lat="41.592424859" lon="2.455447659">
        <ele>239.02</ele>
        <time>2014-07-06T08:57:20Z</time>
      </trkpt>
      <trkpt lat="41.592361911" lon="2.455302149">
        <ele>240.47</ele>
        <time>2014-07-06T08:57:28Z</time>
      </trkpt>
      <trkpt lat="41.592257473" lon="2.455142390">
        <ele>241.43</ele>
        <time>2014-07-06T08:57:36Z</time>
      </trkpt>
      <trkpt lat="41.592122859" lon="2.455011549">
        <ele>242.39</ele>
        <time>2014-07-06T08:57:44Z</time>
      </trkpt>
      <trkpt lat="41.592010123" lon="2.454904931">
        <ele>243.83</ele>
        <time>2014-07-06T08:57:52Z</time>
      </trkpt>
      <trkpt lat="41.591982462" lon="2.454875427">
        <ele>243.83</ele>
        <time>2014-07-06T08:57:54Z</time>
      </trkpt>
      <trkpt lat="41.591937452" lon="2.454631345">
        <ele>245.75</ele>
        <time>2014-07-06T08:58:03Z</time>
      </trkpt>
      <trkpt lat="41.591953293" lon="2.454458594">
        <ele>247.68</ele>
        <time>2014-07-06T08:58:11Z</time>
      </trkpt>
      <trkpt lat="41.591977685" lon="2.454301350">
        <ele>248.64</ele>
        <time>2014-07-06T08:58:18Z</time>
      </trkpt>
      <trkpt lat="41.592007776" lon="2.454156594">
        <ele>250.56</ele>
        <time>2014-07-06T08:58:27Z</time>
      </trkpt>
      <trkpt lat="41.592050356" lon="2.454011588">
        <ele>252.48</ele>
        <time>2014-07-06T08:58:35Z</time>
      </trkpt>
      <trkpt lat="41.592116740" lon="2.453852750">
        <ele>254.41</ele>
        <time>2014-07-06T08:58:44Z</time>
      </trkpt>
      <trkpt lat="41.592174659" lon="2.453760801">
        <ele>255.85</ele>
        <time>2014-07-06T08:58:50Z</time>
      </trkpt>
      <trkpt lat="41.592170217" lon="2.453713276">
        <ele>255.85</ele>
        <time>2014-07-06T08:58:53Z</time>
      </trkpt>
      <trkpt lat="41.592113723" lon="2.453578914">
        <ele>252.96</ele>
        <time>2014-07-06T08:59:02Z</time>
      </trkpt>
      <trkpt lat="41.592057900" lon="2.453473805">
        <ele>250.08</ele>
        <time>2014-07-06T08:59:08Z</time>
      </trkpt>
      <trkpt lat="41.592026886" lon="2.453423513">
        <ele>248.64</ele>
        <time>2014-07-06T08:59:11Z</time>
      </trkpt>
      <trkpt lat="41.591938960" lon="2.453285715">
        <ele>246.72</ele>
        <time>2014-07-06T08:59:17Z</time>
      </trkpt>
      <trkpt lat="41.591876934" lon="2.453136349">
        <ele>245.75</ele>
        <time>2014-07-06T08:59:23Z</time>
      </trkpt>
      <trkpt lat="41.591864780" lon="2.453058733">
        <ele>244.79</ele>
        <time>2014-07-06T08:59:28Z</time>
      </trkpt>
      <trkpt lat="41.591862182" lon="2.453026295">
        <ele>244.79</ele>
        <time>2014-07-06T08:59:33Z</time>
      </trkpt>
      <trkpt lat="41.591847178" lon="2.452922611">
        <ele>244.79</ele>
        <time>2014-07-06T08:59:38Z</time>
      </trkpt>
      <trkpt lat="41.591916748" lon="2.452732258">
        <ele>243.35</ele>
        <time>2014-07-06T08:59:45Z</time>
      </trkpt>
      <trkpt lat="41.591905852" lon="2.452676350">
        <ele>242.39</ele>
        <time>2014-07-06T08:59:48Z</time>
      </trkpt>
      <trkpt lat="41.591773166" lon="2.452556238">
        <ele>237.58</ele>
        <time>2014-07-06T08:59:56Z</time>
      </trkpt>
      <trkpt lat="41.591747601" lon="2.452529583">
        <ele>237.10</ele>
        <time>2014-07-06T08:59:58Z</time>
      </trkpt>
      <trkpt lat="41.591709799" lon="2.452392874">
        <ele>235.18</ele>
        <time>2014-07-06T09:00:03Z</time>
      </trkpt>
      <trkpt lat="41.591688090" lon="2.452338811">
        <ele>234.22</ele>
        <time>2014-07-06T09:00:06Z</time>
      </trkpt>
      <trkpt lat="41.591668309" lon="2.452239737">
        <ele>233.74</ele>
        <time>2014-07-06T09:00:14Z</time>
      </trkpt>
      <trkpt lat="41.591669063" lon="2.452221045">
        <ele>233.74</ele>
        <time>2014-07-06T09:00:15Z</time>
      </trkpt>
      <trkpt lat="41.591677026" lon="2.452187937">
        <ele>233.74</ele>
        <time>2014-07-06T09:00:17Z</time>
      </trkpt>
      <trkpt lat="41.591673673" lon="2.452141669">
        <ele>233.26</ele>
        <time>2014-07-06T09:00:20Z</time>
      </trkpt>
      <trkpt lat="41.591711978" lon="2.451950226">
        <ele>232.30</ele>
        <time>2014-07-06T09:00:26Z</time>
      </trkpt>
      <trkpt lat="41.591737627" lon="2.451718550">
        <ele>230.85</ele>
        <time>2014-07-06T09:00:31Z</time>
      </trkpt>
      <trkpt lat="41.591667219" lon="2.451402133">
        <ele>229.41</ele>
        <time>2014-07-06T09:00:38Z</time>
      </trkpt>
      <trkpt lat="41.591726144" lon="2.451106839">
        <ele>228.45</ele>
        <time>2014-07-06T09:00:44Z</time>
      </trkpt>
      <trkpt lat="41.591772663" lon="2.450700652">
        <ele>227.49</ele>
        <time>2014-07-06T09:00:52Z</time>
      </trkpt>
      <trkpt lat="41.591847262" lon="2.450222297">
        <ele>225.57</ele>
        <time>2014-07-06T09:00:59Z</time>
      </trkpt>
      <trkpt lat="41.591896883" lon="2.449986514">
        <ele>224.61</ele>
        <time>2014-07-06T09:01:02Z</time>
      </trkpt>
      <trkpt lat="41.591891603" lon="2.449588038">
        <ele>221.72</ele>
        <time>2014-07-06T09:01:08Z</time>
      </trkpt>
      <trkpt lat="41.591895039" lon="2.449551745">
        <ele>221.72</ele>
        <time>2014-07-06T09:01:09Z</time>
      </trkpt>
      <trkpt lat="41.591977182" lon="2.449500447">
        <ele>221.24</ele>
        <time>2014-07-06T09:01:16Z</time>
      </trkpt>
      <trkpt lat="41.592016241" lon="2.449497430">
        <ele>221.24</ele>
        <time>2014-07-06T09:01:19Z</time>
      </trkpt>
      <trkpt lat="41.592040968" lon="2.449495083">
        <ele>222.68</ele>
        <time>2014-07-06T09:01:21Z</time>
      </trkpt>
      <trkpt lat="41.592155213" lon="2.449492317">
        <ele>223.64</ele>
        <time>2014-07-06T09:01:30Z</time>
      </trkpt>
      <trkpt lat="41.592177174" lon="2.449489802">
        <ele>223.64</ele>
        <time>2014-07-06T09:01:32Z</time>
      </trkpt>
      <trkpt lat="41.592289240" lon="2.449484438">
        <ele>224.61</ele>
        <time>2014-07-06T09:01:40Z</time>
      </trkpt>
      <trkpt lat="41.592414466" lon="2.449484857">
        <ele>225.57</ele>
        <time>2014-07-06T09:01:47Z</time>
      </trkpt>
      <trkpt lat="41.592543379" lon="2.449489048">
        <ele>227.01</ele>
        <time>2014-07-06T09:01:55Z</time>
      </trkpt>
      <trkpt lat="41.592660642" lon="2.449492233">
        <ele>227.97</ele>
        <time>2014-07-06T09:02:02Z</time>
      </trkpt>
      <trkpt lat="41.592725099" lon="2.449494161">
        <ele>228.93</ele>
        <time>2014-07-06T09:02:06Z</time>
      </trkpt>
      <trkpt lat="41.592902376" lon="2.449488796">
        <ele>230.37</ele>
        <time>2014-07-06T09:02:16Z</time>
      </trkpt>
      <trkpt lat="41.593052412" lon="2.449525006">
        <ele>232.30</ele>
        <time>2014-07-06T09:02:24Z</time>
      </trkpt>
      <trkpt lat="41.593197252" lon="2.449596839">
        <ele>233.74</ele>
        <time>2014-07-06T09:02:32Z</time>
      </trkpt>
      <trkpt lat="41.593351060" lon="2.449670600">
        <ele>235.66</ele>
        <time>2014-07-06T09:02:40Z</time>
      </trkpt>
      <trkpt lat="41.593512160" lon="2.449709073">
        <ele>237.10</ele>
        <time>2014-07-06T09:02:48Z</time>
      </trkpt>
      <trkpt lat="41.593666219" lon="2.449758526">
        <ele>238.06</ele>
        <time>2014-07-06T09:02:55Z</time>
      </trkpt>
      <trkpt lat="41.593825894" lon="2.449784845">
        <ele>239.99</ele>
        <time>2014-07-06T09:03:03Z</time>
      </trkpt>
      <trkpt lat="41.593941229" lon="2.449731033">
        <ele>241.43</ele>
        <time>2014-07-06T09:03:10Z</time>
      </trkpt>
      <trkpt lat="41.593942906" lon="2.449551242">
        <ele>241.91</ele>
        <time>2014-07-06T09:03:18Z</time>
      </trkpt>
      <trkpt lat="41.593923124" lon="2.449464070">
        <ele>242.87</ele>
        <time>2014-07-06T09:03:22Z</time>
      </trkpt>
      <trkpt lat="41.593890519" lon="2.449265586">
        <ele>244.31</ele>
        <time>2014-07-06T09:03:32Z</time>
      </trkpt>
      <trkpt lat="41.593870486" lon="2.449055955">
        <ele>247.20</ele>
        <time>2014-07-06T09:03:41Z</time>
      </trkpt>
      <trkpt lat="41.593848190" lon="2.448948918">
        <ele>248.16</ele>
        <time>2014-07-06T09:03:47Z</time>
      </trkpt>
      <trkpt lat="41.593768646" lon="2.448796200">
        <ele>248.64</ele>
        <time>2014-07-06T09:03:55Z</time>
      </trkpt>
      <trkpt lat="41.593696394" lon="2.448714057">
        <ele>250.08</ele>
        <time>2014-07-06T09:04:02Z</time>
      </trkpt>
      <trkpt lat="41.593620286" lon="2.448599979">
        <ele>252.00</ele>
        <time>2014-07-06T09:04:09Z</time>
      </trkpt>
      <trkpt lat="41.593536886" lon="2.448420523">
        <ele>253.44</ele>
        <time>2014-07-06T09:04:17Z</time>
      </trkpt>
      <trkpt lat="41.593517608" lon="2.448381547">
        <ele>253.44</ele>
        <time>2014-07-06T09:04:19Z</time>
      </trkpt>
      <trkpt lat="41.593488690" lon="2.448290687">
        <ele>253.93</ele>
        <time>2014-07-06T09:04:23Z</time>
      </trkpt>
      <trkpt lat="41.593416606" lon="2.448043002">
        <ele>254.89</ele>
        <time>2014-07-06T09:04:33Z</time>
      </trkpt>
      <trkpt lat="41.593371511" lon="2.447890703">
        <ele>255.85</ele>
        <time>2014-07-06T09:04:39Z</time>
      </trkpt>
      <trkpt lat="41.593436723" lon="2.447786600">
        <ele>256.81</ele>
        <time>2014-07-06T09:04:46Z</time>
      </trkpt>
      <trkpt lat="41.593514171" lon="2.447784588">
        <ele>257.29</ele>
        <time>2014-07-06T09:04:50Z</time>
      </trkpt>
      <trkpt lat="41.593717935" lon="2.447744774">
        <ele>257.77</ele>
        <time>2014-07-06T09:05:00Z</time>
      </trkpt>
      <trkpt lat="41.593910552" lon="2.447700517">
        <ele>258.73</ele>
        <time>2014-07-06T09:05:09Z</time>
      </trkpt>
      <trkpt lat="41.594068299" lon="2.447666235">
        <ele>259.69</ele>
        <time>2014-07-06T09:05:17Z</time>
      </trkpt>
      <trkpt lat="41.594185813" lon="2.447686771">
        <ele>260.17</ele>
        <time>2014-07-06T09:05:24Z</time>
      </trkpt>
      <trkpt lat="41.594307770" lon="2.447740583">
        <ele>260.17</ele>
        <time>2014-07-06T09:05:31Z</time>
      </trkpt>
      <trkpt lat="41.594444227" lon="2.447804369">
        <ele>260.65</ele>
        <time>2014-07-06T09:05:38Z</time>
      </trkpt>
      <trkpt lat="41.594546822" lon="2.447846446">
        <ele>261.14</ele>
        <time>2014-07-06T09:05:42Z</time>
      </trkpt>
      <trkpt lat="41.594623935" lon="2.447881986">
        <ele>261.14</ele>
        <time>2014-07-06T09:05:46Z</time>
      </trkpt>
      <trkpt lat="41.594840943" lon="2.447899923">
        <ele>261.62</ele>
        <time>2014-07-06T09:05:54Z</time>
      </trkpt>
      <trkpt lat="41.594949321" lon="2.447788024">
        <ele>261.62</ele>
        <time>2014-07-06T09:05:58Z</time>
      </trkpt>
      <trkpt lat="41.595008749" lon="2.447442606">
        <ele>261.62</ele>
        <time>2014-07-06T09:06:05Z</time>
      </trkpt>
      <trkpt lat="41.595087622" lon="2.447145049">
        <ele>261.62</ele>
        <time>2014-07-06T09:06:12Z</time>
      </trkpt>
      <trkpt lat="41.595058118" lon="2.446909852">
        <ele>261.62</ele>
        <time>2014-07-06T09:06:19Z</time>
      </trkpt>
      <trkpt lat="41.595015957" lon="2.446750429">
        <ele>261.62</ele>
        <time>2014-07-06T09:06:23Z</time>
      </trkpt>
      <trkpt lat="41.594990225" lon="2.446636770">
        <ele>260.17</ele>
        <time>2014-07-06T09:06:25Z</time>
      </trkpt>
      <trkpt lat="41.594897018" lon="2.446347175">
        <ele>259.21</ele>
        <time>2014-07-06T09:06:29Z</time>
      </trkpt>
      <trkpt lat="41.594697193" lon="2.445572687">
        <ele>255.85</ele>
        <time>2014-07-06T09:06:38Z</time>
      </trkpt>
      <trkpt lat="41.594627037" lon="2.445399434">
        <ele>254.41</ele>
        <time>2014-07-06T09:06:40Z</time>
      </trkpt>
      <trkpt lat="41.594560568" lon="2.445202710">
        <ele>252.96</ele>
        <time>2014-07-06T09:06:42Z</time>
      </trkpt>
      <trkpt lat="41.594537434" lon="2.444743298">
        <ele>251.04</ele>
        <time>2014-07-06T09:06:46Z</time>
      </trkpt>
      <trkpt lat="41.594516479" lon="2.444224375">
        <ele>250.08</ele>
        <time>2014-07-06T09:06:51Z</time>
      </trkpt>
      <trkpt lat="41.594425200" lon="2.443862947">
        <ele>248.64</ele>
        <time>2014-07-06T09:06:55Z</time>
      </trkpt>
      <trkpt lat="41.594258484" lon="2.443579136">
        <ele>248.16</ele>
        <time>2014-07-06T09:06:59Z</time>
      </trkpt>
      <trkpt lat="41.594108532" lon="2.443288032">
        <ele>245.75</ele>
        <time>2014-07-06T09:07:03Z</time>
      </trkpt>
      <trkpt lat="41.594039381" lon="2.443126094">
        <ele>245.75</ele>
        <time>2014-07-06T09:07:05Z</time>
      </trkpt>
      <trkpt lat="41.593934189" lon="2.442763660">
        <ele>243.83</ele>
        <time>2014-07-06T09:07:09Z</time>
      </trkpt>
      <trkpt lat="41.593916838" lon="2.442428216">
        <ele>241.91</ele>
        <time>2014-07-06T09:07:13Z</time>
      </trkpt>
      <trkpt lat="41.593922454" lon="2.442097969">
        <ele>239.99</ele>
        <time>2014-07-06T09:07:19Z</time>
      </trkpt>
      <trkpt lat="41.593920191" lon="2.441947514">
        <ele>239.02</ele>
        <time>2014-07-06T09:07:23Z</time>
      </trkpt>
      <trkpt lat="41.593907450" lon="2.441630678">
        <ele>237.58</ele>
        <time>2014-07-06T09:07:28Z</time>
      </trkpt>
      <trkpt lat="41.593845173" lon="2.441360111">
        <ele>235.18</ele>
        <time>2014-07-06T09:07:32Z</time>
      </trkpt>
      <trkpt lat="41.593768478" lon="2.441180905">
        <ele>234.22</ele>
        <time>2014-07-06T09:07:35Z</time>
      </trkpt>
      <trkpt lat="41.593753223" lon="2.440988289">
        <ele>231.81</ele>
        <time>2014-07-06T09:07:40Z</time>
      </trkpt>
      <trkpt lat="41.593754397" lon="2.440985439">
        <ele>231.81</ele>
        <time>2014-07-06T09:07:46Z</time>
      </trkpt>
      <trkpt lat="41.593754732" lon="2.440986529">
        <ele>231.81</ele>
        <time>2014-07-06T09:08:00Z</time>
      </trkpt>
      <trkpt lat="41.593756492" lon="2.440992564">
        <ele>231.81</ele>
        <time>2014-07-06T09:08:14Z</time>
      </trkpt>
      <trkpt lat="41.593744255" lon="2.440976387">
        <ele>231.81</ele>
        <time>2014-07-06T09:08:33Z</time>
      </trkpt>
      <trkpt lat="41.593746182" lon="2.440984182">
        <ele>231.33</ele>
        <time>2014-07-06T09:08:49Z</time>
      </trkpt>
      <trkpt lat="41.593750038" lon="2.440990385">
        <ele>231.33</ele>
        <time>2014-07-06T09:09:05Z</time>
      </trkpt>
      <trkpt lat="41.593751547" lon="2.440986613">
        <ele>231.33</ele>
        <time>2014-07-06T09:09:21Z</time>
      </trkpt>
      <trkpt lat="41.593750206" lon="2.440969849">
        <ele>231.33</ele>
        <time>2014-07-06T09:09:37Z</time>
      </trkpt>
      <trkpt lat="41.593750876" lon="2.440949481">
        <ele>231.33</ele>
        <time>2014-07-06T09:09:55Z</time>
      </trkpt>
      <trkpt lat="41.593742075" lon="2.440940429">
        <ele>231.33</ele>
        <time>2014-07-06T09:10:05Z</time>
      </trkpt>
      <trkpt lat="41.593701339" lon="2.440911679">
        <ele>231.33</ele>
        <time>2014-07-06T09:10:14Z</time>
      </trkpt>
      <trkpt lat="41.593698909" lon="2.440910002">
        <ele>231.33</ele>
        <time>2014-07-06T09:10:16Z</time>
      </trkpt>
      <trkpt lat="41.593548872" lon="2.440916708">
        <ele>230.37</ele>
        <time>2014-07-06T09:10:25Z</time>
      </trkpt>
      <trkpt lat="41.593350808" lon="2.440973202">
        <ele>227.01</ele>
        <time>2014-07-06T09:10:31Z</time>
      </trkpt>
      <trkpt lat="41.593305630" lon="2.440997845">
        <ele>226.53</ele>
        <time>2014-07-06T09:10:32Z</time>
      </trkpt>
      <trkpt lat="41.593135142" lon="2.441166908">
        <ele>224.61</ele>
        <time>2014-07-06T09:10:36Z</time>
      </trkpt>
      <trkpt lat="41.593035565" lon="2.441336641">
        <ele>222.68</ele>
        <time>2014-07-06T09:10:39Z</time>
      </trkpt>
      <trkpt lat="41.592945459" lon="2.441447366">
        <ele>221.24</ele>
        <time>2014-07-06T09:10:42Z</time>
      </trkpt>
      <trkpt lat="41.592726692" lon="2.441506794">
        <ele>218.36</ele>
        <time>2014-07-06T09:10:47Z</time>
      </trkpt>
      <trkpt lat="41.592391499" lon="2.441596061">
        <ele>215.47</ele>
        <time>2014-07-06T09:10:53Z</time>
      </trkpt>
      <trkpt lat="41.592223107" lon="2.441474272">
        <ele>213.07</ele>
        <time>2014-07-06T09:10:57Z</time>
      </trkpt>
      <trkpt lat="41.592180527" lon="2.441308227">
        <ele>211.15</ele>
        <time>2014-07-06T09:10:59Z</time>
      </trkpt>
      <trkpt lat="41.592118752" lon="2.441030618">
        <ele>207.78</ele>
        <time>2014-07-06T09:11:02Z</time>
      </trkpt>
      <trkpt lat="41.591967543" lon="2.440788129">
        <ele>204.42</ele>
        <time>2014-07-06T09:11:07Z</time>
      </trkpt>
      <trkpt lat="41.591843407" lon="2.440773126">
        <ele>203.94</ele>
        <time>2014-07-06T09:11:12Z</time>
      </trkpt>
      <trkpt lat="41.591682223" lon="2.440789638">
        <ele>202.01</ele>
        <time>2014-07-06T09:11:15Z</time>
      </trkpt>
      <trkpt lat="41.591212082" lon="2.440745549">
        <ele>199.61</ele>
        <time>2014-07-06T09:11:22Z</time>
      </trkpt>
      <trkpt lat="41.591082833" lon="2.440710513">
        <ele>198.65</ele>
        <time>2014-07-06T09:11:24Z</time>
      </trkpt>
      <trkpt lat="41.590805895" lon="2.440544468">
        <ele>197.69</ele>
        <time>2014-07-06T09:11:29Z</time>
      </trkpt>
      <trkpt lat="41.590654266" lon="2.440459307">
        <ele>196.73</ele>
        <time>2014-07-06T09:11:34Z</time>
      </trkpt>
      <trkpt lat="41.590417896" lon="2.440341374">
        <ele>196.25</ele>
        <time>2014-07-06T09:11:43Z</time>
      </trkpt>
      <trkpt lat="41.590254701" lon="2.440330561">
        <ele>196.25</ele>
        <time>2014-07-06T09:11:50Z</time>
      </trkpt>
      <trkpt lat="41.590088655" lon="2.440360820">
        <ele>197.69</ele>
        <time>2014-07-06T09:11:57Z</time>
      </trkpt>
      <trkpt lat="41.589940631" lon="2.440445813">
        <ele>198.17</ele>
        <time>2014-07-06T09:12:04Z</time>
      </trkpt>
      <trkpt lat="41.589785985" lon="2.440510353">
        <ele>199.13</ele>
        <time>2014-07-06T09:12:11Z</time>
      </trkpt>
      <trkpt lat="41.589548274" lon="2.440589311">
        <ele>199.13</ele>
        <time>2014-07-06T09:12:19Z</time>
      </trkpt>
      <trkpt lat="41.589447272" lon="2.440583108">
        <ele>199.13</ele>
        <time>2014-07-06T09:12:23Z</time>
      </trkpt>
      <trkpt lat="41.589348533" lon="2.440602722">
        <ele>199.13</ele>
        <time>2014-07-06T09:12:27Z</time>
      </trkpt>
      <trkpt lat="41.589142506" lon="2.440528710">
        <ele>201.05</ele>
        <time>2014-07-06T09:12:37Z</time>
      </trkpt>
      <trkpt lat="41.588999427" lon="2.440449165">
        <ele>202.49</ele>
        <time>2014-07-06T09:12:45Z</time>
      </trkpt>
      <trkpt lat="41.588836064" lon="2.440379093">
        <ele>204.90</ele>
        <time>2014-07-06T09:12:54Z</time>
      </trkpt>
      <trkpt lat="41.588717963" lon="2.440366101">
        <ele>206.82</ele>
        <time>2014-07-06T09:13:01Z</time>
      </trkpt>
      <trkpt lat="41.588658870" lon="2.440393761">
        <ele>208.26</ele>
        <time>2014-07-06T09:13:05Z</time>
      </trkpt>
      <trkpt lat="41.588577650" lon="2.440408597">
        <ele>208.74</ele>
        <time>2014-07-06T09:13:10Z</time>
      </trkpt>
      <trkpt lat="41.588411269" lon="2.440422595">
        <ele>208.74</ele>
        <time>2014-07-06T09:13:17Z</time>
      </trkpt>
      <trkpt lat="41.588201637" lon="2.440479508">
        <ele>209.70</ele>
        <time>2014-07-06T09:13:24Z</time>
      </trkpt>
      <trkpt lat="41.588159225" lon="2.440496188">
        <ele>209.70</ele>
        <time>2014-07-06T09:13:26Z</time>
      </trkpt>
      <trkpt lat="41.588052859" lon="2.440412788">
        <ele>210.19</ele>
        <time>2014-07-06T09:13:32Z</time>
      </trkpt>
      <trkpt lat="41.587991419" lon="2.440349169">
        <ele>212.11</ele>
        <time>2014-07-06T09:13:37Z</time>
      </trkpt>
      <trkpt lat="41.587957640" lon="2.440264261">
        <ele>214.03</ele>
        <time>2014-07-06T09:13:43Z</time>
      </trkpt>
      <trkpt lat="41.587906343" lon="2.440116404">
        <ele>216.43</ele>
        <time>2014-07-06T09:13:52Z</time>
      </trkpt>
      <trkpt lat="41.587891255" lon="2.440066531">
        <ele>217.40</ele>
        <time>2014-07-06T09:13:55Z</time>
      </trkpt>
      <trkpt lat="41.587786565" lon="2.439961339">
        <ele>218.84</ele>
        <time>2014-07-06T09:14:04Z</time>
      </trkpt>
      <trkpt lat="41.587663854" lon="2.439890847">
        <ele>220.28</ele>
        <time>2014-07-06T09:14:13Z</time>
      </trkpt>
      <trkpt lat="41.587581209" lon="2.439809542">
        <ele>221.72</ele>
        <time>2014-07-06T09:14:20Z</time>
      </trkpt>
      <trkpt lat="41.587462605" lon="2.439731339">
        <ele>222.20</ele>
        <time>2014-07-06T09:14:29Z</time>
      </trkpt>
      <trkpt lat="41.587404770" lon="2.439706948">
        <ele>223.16</ele>
        <time>2014-07-06T09:14:33Z</time>
      </trkpt>
      <trkpt lat="41.587245597" lon="2.439715162">
        <ele>225.09</ele>
        <time>2014-07-06T09:14:43Z</time>
      </trkpt>
      <trkpt lat="41.587133783" lon="2.439689513">
        <ele>226.05</ele>
        <time>2014-07-06T09:14:52Z</time>
      </trkpt>
      <trkpt lat="41.587032529" lon="2.439632349">
        <ele>227.97</ele>
        <time>2014-07-06T09:15:00Z</time>
      </trkpt>
      <trkpt lat="41.586879644" lon="2.439601168">
        <ele>229.89</ele>
        <time>2014-07-06T09:15:09Z</time>
      </trkpt>
      <trkpt lat="41.586751317" lon="2.439626817">
        <ele>232.78</ele>
        <time>2014-07-06T09:15:18Z</time>
      </trkpt>
      <trkpt lat="41.586625840" lon="2.439669732">
        <ele>235.18</ele>
        <time>2014-07-06T09:15:28Z</time>
      </trkpt>
      <trkpt lat="41.586492400" lon="2.439647520">
        <ele>236.14</ele>
        <time>2014-07-06T09:15:36Z</time>
      </trkpt>
      <trkpt lat="41.586393074" lon="2.439634612">
        <ele>237.10</ele>
        <time>2014-07-06T09:15:44Z</time>
      </trkpt>
      <trkpt lat="41.586289138" lon="2.439602928">
        <ele>238.54</ele>
        <time>2014-07-06T09:15:52Z</time>
      </trkpt>
      <trkpt lat="41.586172630" lon="2.439599743">
        <ele>240.47</ele>
        <time>2014-07-06T09:16:00Z</time>
      </trkpt>
      <trkpt lat="41.586137510" lon="2.439573173">
        <ele>240.95</ele>
        <time>2014-07-06T09:16:04Z</time>
      </trkpt>
      <trkpt lat="41.586095852" lon="2.439509219">
        <ele>242.39</ele>
        <time>2014-07-06T09:16:11Z</time>
      </trkpt>
      <trkpt lat="41.586077328" lon="2.439485498">
        <ele>243.35</ele>
        <time>2014-07-06T09:16:15Z</time>
      </trkpt>
      <trkpt lat="41.585912204" lon="2.439424981">
        <ele>245.75</ele>
        <time>2014-07-06T09:16:26Z</time>
      </trkpt>
      <trkpt lat="41.585760240" lon="2.439414419">
        <ele>248.16</ele>
        <time>2014-07-06T09:16:35Z</time>
      </trkpt>
      <trkpt lat="41.585659574" lon="2.439390279">
        <ele>249.12</ele>
        <time>2014-07-06T09:16:42Z</time>
      </trkpt>
      <trkpt lat="41.585605091" lon="2.439361446">
        <ele>249.60</ele>
        <time>2014-07-06T09:16:46Z</time>
      </trkpt>
      <trkpt lat="41.585581538" lon="2.439341832">
        <ele>249.60</ele>
        <time>2014-07-06T09:16:48Z</time>
      </trkpt>
      <trkpt lat="41.585459162" lon="2.439286428">
        <ele>251.04</ele>
        <time>2014-07-06T09:16:57Z</time>
      </trkpt>
      <trkpt lat="41.585344163" lon="2.439222055">
        <ele>252.00</ele>
        <time>2014-07-06T09:17:06Z</time>
      </trkpt>
      <trkpt lat="41.585241568" lon="2.439174697">
        <ele>252.96</ele>
        <time>2014-07-06T09:17:14Z</time>
      </trkpt>
      <trkpt lat="41.585114415" lon="2.439110492">
        <ele>253.93</ele>
        <time>2014-07-06T09:17:24Z</time>
      </trkpt>
      <trkpt lat="41.585078289" lon="2.439107642">
        <ele>254.89</ele>
        <time>2014-07-06T09:17:27Z</time>
      </trkpt>
      <trkpt lat="41.585035290" lon="2.439101439">
        <ele>255.37</ele>
        <time>2014-07-06T09:17:30Z</time>
      </trkpt>
      <trkpt lat="41.584915680" lon="2.439051818">
        <ele>256.33</ele>
        <time>2014-07-06T09:17:39Z</time>
      </trkpt>
      <trkpt lat="41.584792801" lon="2.439043939">
        <ele>258.25</ele>
        <time>2014-07-06T09:17:48Z</time>
      </trkpt>
      <trkpt lat="41.584691967" lon="2.439053243">
        <ele>259.21</ele>
        <time>2014-07-06T09:17:55Z</time>
      </trkpt>
      <trkpt lat="41.584558443" lon="2.439058524">
        <ele>260.65</ele>
        <time>2014-07-06T09:18:03Z</time>
      </trkpt>
      <trkpt lat="41.584426847" lon="2.439114850">
        <ele>262.10</ele>
        <time>2014-07-06T09:18:12Z</time>
      </trkpt>
      <trkpt lat="41.584297934" lon="2.439155251">
        <ele>264.50</ele>
        <time>2014-07-06T09:18:21Z</time>
      </trkpt>
      <trkpt lat="41.584156699" lon="2.439154832">
        <ele>266.90</ele>
        <time>2014-07-06T09:18:31Z</time>
      </trkpt>
      <trkpt lat="41.584007417" lon="2.439129351">
        <ele>268.83</ele>
        <time>2014-07-06T09:18:40Z</time>
      </trkpt>
      <trkpt lat="41.583846652" lon="2.439106468">
        <ele>270.75</ele>
        <time>2014-07-06T09:18:50Z</time>
      </trkpt>
      <trkpt lat="41.583687899" lon="2.439120131">
        <ele>272.67</ele>
        <time>2014-07-06T09:19:00Z</time>
      </trkpt>
      <trkpt lat="41.583604080" lon="2.439220294">
        <ele>274.11</ele>
        <time>2014-07-06T09:19:08Z</time>
      </trkpt>
      <trkpt lat="41.583600811" lon="2.439236136">
        <ele>274.11</ele>
        <time>2014-07-06T09:19:09Z</time>
      </trkpt>
      <trkpt lat="41.583707931" lon="2.439357339">
        <ele>275.07</ele>
        <time>2014-07-06T09:19:20Z</time>
      </trkpt>
      <trkpt lat="41.583818489" lon="2.439424897">
        <ele>277.00</ele>
        <time>2014-07-06T09:19:28Z</time>
      </trkpt>
      <trkpt lat="41.583876156" lon="2.439542411">
        <ele>278.44</ele>
        <time>2014-07-06T09:19:36Z</time>
      </trkpt>
      <trkpt lat="41.583790661" lon="2.439618519">
        <ele>279.88</ele>
        <time>2014-07-06T09:19:43Z</time>
      </trkpt>
      <trkpt lat="41.583651018" lon="2.439635115">
        <ele>282.28</ele>
        <time>2014-07-06T09:19:52Z</time>
      </trkpt>
      <trkpt lat="41.583539204" lon="2.439687753">
        <ele>283.73</ele>
        <time>2014-07-06T09:20:01Z</time>
      </trkpt>
      <trkpt lat="41.583429736" lon="2.439741397">
        <ele>285.65</ele>
        <time>2014-07-06T09:20:09Z</time>
      </trkpt>
      <trkpt lat="41.583323454" lon="2.439781211">
        <ele>286.61</ele>
        <time>2014-07-06T09:20:17Z</time>
      </trkpt>
      <trkpt lat="41.583155480" lon="2.439784648">
        <ele>289.01</ele>
        <time>2014-07-06T09:20:28Z</time>
      </trkpt>
      <trkpt lat="41.583088006" lon="2.439784648">
        <ele>290.46</ele>
        <time>2014-07-06T09:20:33Z</time>
      </trkpt>
      <trkpt lat="41.583025644" lon="2.439767800">
        <ele>292.38</ele>
        <time>2014-07-06T09:20:38Z</time>
      </trkpt>
      <trkpt lat="41.582998152" lon="2.439762268">
        <ele>292.86</ele>
        <time>2014-07-06T09:20:40Z</time>
      </trkpt>
      <trkpt lat="41.582871082" lon="2.439728908">
        <ele>294.78</ele>
        <time>2014-07-06T09:20:50Z</time>
      </trkpt>
      <trkpt lat="41.582767733" lon="2.439680629">
        <ele>296.70</ele>
        <time>2014-07-06T09:20:58Z</time>
      </trkpt>
      <trkpt lat="41.582646782" lon="2.439614328">
        <ele>298.15</ele>
        <time>2014-07-06T09:21:09Z</time>
      </trkpt>
      <trkpt lat="41.582544104" lon="2.439563701">
        <ele>299.11</ele>
        <time>2014-07-06T09:21:16Z</time>
      </trkpt>
      <trkpt lat="41.582526837" lon="2.439559426">
        <ele>299.11</ele>
        <time>2014-07-06T09:21:17Z</time>
      </trkpt>
      <trkpt lat="41.582455759" lon="2.439513074">
        <ele>299.11</ele>
        <time>2014-07-06T09:21:22Z</time>
      </trkpt>
      <trkpt lat="41.582314775" lon="2.439410480">
        <ele>300.07</ele>
        <time>2014-07-06T09:21:31Z</time>
      </trkpt>
      <trkpt lat="41.582197345" lon="2.439337557">
        <ele>301.03</ele>
        <time>2014-07-06T09:21:39Z</time>
      </trkpt>
      <trkpt lat="41.582075304" lon="2.439302940">
        <ele>301.99</ele>
        <time>2014-07-06T09:21:47Z</time>
      </trkpt>
      <trkpt lat="41.581970866" lon="2.439286009">
        <ele>303.43</ele>
        <time>2014-07-06T09:21:54Z</time>
      </trkpt>
      <trkpt lat="41.581858381" lon="2.439271843">
        <ele>304.88</ele>
        <time>2014-07-06T09:22:02Z</time>
      </trkpt>
      <trkpt lat="41.581805658" lon="2.439255582">
        <ele>305.84</ele>
        <time>2014-07-06T09:22:06Z</time>
      </trkpt>
      <trkpt lat="41.581750506" lon="2.439228006">
        <ele>306.32</ele>
        <time>2014-07-06T09:22:10Z</time>
      </trkpt>
      <trkpt lat="41.581684121" lon="2.439169752">
        <ele>306.80</ele>
        <time>2014-07-06T09:22:15Z</time>
      </trkpt>
      <trkpt lat="41.581565265" lon="2.439074868">
        <ele>308.24</ele>
        <time>2014-07-06T09:22:24Z</time>
      </trkpt>
      <trkpt lat="41.581407937" lon="2.438981578">
        <ele>310.16</ele>
        <time>2014-07-06T09:22:35Z</time>
      </trkpt>
      <trkpt lat="41.581291848" lon="2.438919049">
        <ele>311.12</ele>
        <time>2014-07-06T09:22:43Z</time>
      </trkpt>
      <trkpt lat="41.581119097" lon="2.438887114">
        <ele>313.05</ele>
        <time>2014-07-06T09:22:54Z</time>
      </trkpt>
      <trkpt lat="41.581092526" lon="2.438881330">
        <ele>314.01</ele>
        <time>2014-07-06T09:22:56Z</time>
      </trkpt>
      <trkpt lat="41.580989932" lon="2.438903459">
        <ele>316.89</ele>
        <time>2014-07-06T09:23:05Z</time>
      </trkpt>
      <trkpt lat="41.580945508" lon="2.438899268">
        <ele>317.37</ele>
        <time>2014-07-06T09:23:09Z</time>
      </trkpt>
      <trkpt lat="41.580898317" lon="2.438917373">
        <ele>317.37</ele>
        <time>2014-07-06T09:23:13Z</time>
      </trkpt>
      <trkpt lat="41.580775271" lon="2.438982751">
        <ele>320.26</ele>
        <time>2014-07-06T09:23:23Z</time>
      </trkpt>
      <trkpt lat="41.580744929" lon="2.439020218">
        <ele>321.22</ele>
        <time>2014-07-06T09:23:26Z</time>
      </trkpt>
      <trkpt lat="41.580625906" lon="2.439141588">
        <ele>322.18</ele>
        <time>2014-07-06T09:23:36Z</time>
      </trkpt>
      <trkpt lat="41.580535046" lon="2.439282321">
        <ele>322.18</ele>
        <time>2014-07-06T09:23:42Z</time>
      </trkpt>
      <trkpt lat="41.580396577" lon="2.439493042">
        <ele>320.74</ele>
        <time>2014-07-06T09:23:46Z</time>
      </trkpt>
      <trkpt lat="41.580335724" lon="2.439679874">
        <ele>320.26</ele>
        <time>2014-07-06T09:23:49Z</time>
      </trkpt>
      <trkpt lat="41.580376795" lon="2.439789090">
        <ele>320.26</ele>
        <time>2014-07-06T09:23:51Z</time>
      </trkpt>
      <trkpt lat="41.580526412" lon="2.440070052">
        <ele>320.26</ele>
        <time>2014-07-06T09:23:59Z</time>
      </trkpt>
      <trkpt lat="41.580560108" lon="2.440127887">
        <ele>320.26</ele>
        <time>2014-07-06T09:24:01Z</time>
      </trkpt>
      <trkpt lat="41.580588858" lon="2.440263339">
        <ele>321.70</ele>
        <time>2014-07-06T09:24:06Z</time>
      </trkpt>
      <trkpt lat="41.580556839" lon="2.440466097">
        <ele>323.14</ele>
        <time>2014-07-06T09:24:14Z</time>
      </trkpt>
      <trkpt lat="41.580469583" lon="2.440578582">
        <ele>324.58</ele>
        <time>2014-07-06T09:24:21Z</time>
      </trkpt>
      <trkpt lat="41.580458100" lon="2.440592915">
        <ele>324.58</ele>
        <time>2014-07-06T09:24:22Z</time>
      </trkpt>
      <trkpt lat="41.580397331" lon="2.440782681">
        <ele>321.70</ele>
        <time>2014-07-06T09:24:29Z</time>
      </trkpt>
      <trkpt lat="41.580393559" lon="2.440865914">
        <ele>320.26</ele>
        <time>2014-07-06T09:24:32Z</time>
      </trkpt>
      <trkpt lat="41.580394146" lon="2.440925593">
        <ele>320.26</ele>
        <time>2014-07-06T09:24:38Z</time>
      </trkpt>
      <trkpt lat="41.580392218" lon="2.440928107">
        <ele>320.26</ele>
        <time>2014-07-06T09:24:46Z</time>
      </trkpt>
      <trkpt lat="41.580387692" lon="2.440979405">
        <ele>320.26</ele>
        <time>2014-07-06T09:25:01Z</time>
      </trkpt>
      <trkpt lat="41.580375454" lon="2.441023409">
        <ele>320.26</ele>
        <time>2014-07-06T09:25:18Z</time>
      </trkpt>
      <trkpt lat="41.580361373" lon="2.441029696">
        <ele>320.26</ele>
        <time>2014-07-06T09:25:38Z</time>
      </trkpt>
      <trkpt lat="41.580347710" lon="2.441047633">
        <ele>320.26</ele>
        <time>2014-07-06T09:25:56Z</time>
      </trkpt>
      <trkpt lat="41.580360367" lon="2.441057859">
        <ele>320.26</ele>
        <time>2014-07-06T09:26:08Z</time>
      </trkpt>
      <trkpt lat="41.580368078" lon="2.441065403">
        <ele>320.74</ele>
        <time>2014-07-06T09:26:35Z</time>
      </trkpt>
      <trkpt lat="41.580352572" lon="2.441069929">
        <ele>320.74</ele>
        <time>2014-07-06T09:26:55Z</time>
      </trkpt>
      <trkpt lat="41.580368497" lon="2.441039000">
        <ele>320.74</ele>
        <time>2014-07-06T09:27:16Z</time>
      </trkpt>
      <trkpt lat="41.580380903" lon="2.441038245">
        <ele>320.74</ele>
        <time>2014-07-06T09:27:36Z</time>
      </trkpt>
      <trkpt lat="41.580412419" lon="2.441032127">
        <ele>320.74</ele>
        <time>2014-07-06T09:27:56Z</time>
      </trkpt>
      <trkpt lat="41.580410910" lon="2.441045370">
        <ele>320.74</ele>
        <time>2014-07-06T09:28:18Z</time>
      </trkpt>
      <trkpt lat="41.580422561" lon="2.441038832">
        <ele>320.74</ele>
        <time>2014-07-06T09:28:39Z</time>
      </trkpt>
      <trkpt lat="41.580440246" lon="2.441021063">
        <ele>320.74</ele>
        <time>2014-07-06T09:29:01Z</time>
      </trkpt>
      <trkpt lat="41.580451897" lon="2.441009328">
        <ele>321.22</ele>
        <time>2014-07-06T09:29:22Z</time>
      </trkpt>
      <trkpt lat="41.580438067" lon="2.441036150">
        <ele>321.22</ele>
        <time>2014-07-06T09:29:38Z</time>
      </trkpt>
      <trkpt lat="41.580423734" lon="2.441052159">
        <ele>321.22</ele>
        <time>2014-07-06T09:30:00Z</time>
      </trkpt>
      <trkpt lat="41.580403031" lon="2.441047885">
        <ele>321.22</ele>
        <time>2014-07-06T09:30:18Z</time>
      </trkpt>
      <trkpt lat="41.580389201" lon="2.441069007">
        <ele>321.22</ele>
        <time>2014-07-06T09:30:36Z</time>
      </trkpt>
      <trkpt lat="41.580381657" lon="2.441040676">
        <ele>321.22</ele>
        <time>2014-07-06T09:30:57Z</time>
      </trkpt>
      <trkpt lat="41.580385345" lon="2.441065487">
        <ele>321.22</ele>
        <time>2014-07-06T09:31:18Z</time>
      </trkpt>
      <trkpt lat="41.580405713" lon="2.441078898">
        <ele>320.74</ele>
        <time>2014-07-06T09:31:38Z</time>
      </trkpt>
      <trkpt lat="41.580405294" lon="2.441073533">
        <ele>320.74</ele>
        <time>2014-07-06T09:32:00Z</time>
      </trkpt>
      <trkpt lat="41.580403534" lon="2.441065068">
        <ele>320.74</ele>
        <time>2014-07-06T09:32:22Z</time>
      </trkpt>
      <trkpt lat="41.580426584" lon="2.441056099">
        <ele>320.74</ele>
        <time>2014-07-06T09:32:45Z</time>
      </trkpt>
      <trkpt lat="41.580459525" lon="2.441038832">
        <ele>320.74</ele>
        <time>2014-07-06T09:33:06Z</time>
      </trkpt>
      <trkpt lat="41.580434798" lon="2.441029025">
        <ele>320.74</ele>
        <time>2014-07-06T09:33:28Z</time>
      </trkpt>
      <trkpt lat="41.580426165" lon="2.441011507">
        <ele>320.74</ele>
        <time>2014-07-06T09:33:54Z</time>
      </trkpt>
      <trkpt lat="41.580432284" lon="2.440989798">
        <ele>320.74</ele>
        <time>2014-07-06T09:34:11Z</time>
      </trkpt>
      <trkpt lat="41.580426584" lon="2.441019302">
        <ele>320.74</ele>
        <time>2014-07-06T09:34:29Z</time>
      </trkpt>
      <trkpt lat="41.580429769" lon="2.441029025">
        <ele>320.74</ele>
        <time>2014-07-06T09:34:49Z</time>
      </trkpt>
      <trkpt lat="41.580420046" lon="2.441037994">
        <ele>320.74</ele>
        <time>2014-07-06T09:35:03Z</time>
      </trkpt>
      <trkpt lat="41.580435301" lon="2.441032546">
        <ele>320.74</ele>
        <time>2014-07-06T09:35:23Z</time>
      </trkpt>
      <trkpt lat="41.580464889" lon="2.441017291">
        <ele>320.26</ele>
        <time>2014-07-06T09:35:45Z</time>
      </trkpt>
      <trkpt lat="41.580452652" lon="2.441019051">
        <ele>320.26</ele>
        <time>2014-07-06T09:36:02Z</time>
      </trkpt>
      <trkpt lat="41.580436391" lon="2.441005305">
        <ele>320.26</ele>
        <time>2014-07-06T09:36:27Z</time>
      </trkpt>
      <trkpt lat="41.580405126" lon="2.441006478">
        <ele>320.26</ele>
        <time>2014-07-06T09:36:49Z</time>
      </trkpt>
      <trkpt lat="41.580354164" lon="2.441024918">
        <ele>320.26</ele>
        <time>2014-07-06T09:37:13Z</time>
      </trkpt>
      <trkpt lat="41.580318625" lon="2.441056602">
        <ele>319.78</ele>
        <time>2014-07-06T09:37:37Z</time>
      </trkpt>
      <trkpt lat="41.580324073" lon="2.440994240">
        <ele>319.30</ele>
        <time>2014-07-06T09:38:00Z</time>
      </trkpt>
      <trkpt lat="41.580305465" lon="2.440990972">
        <ele>318.81</ele>
        <time>2014-07-06T09:38:24Z</time>
      </trkpt>
      <trkpt lat="41.580328851" lon="2.440992061">
        <ele>318.81</ele>
        <time>2014-07-06T09:38:46Z</time>
      </trkpt>
      <trkpt lat="41.580416777" lon="2.440938668">
        <ele>318.33</ele>
        <time>2014-07-06T09:39:09Z</time>
      </trkpt>
      <trkpt lat="41.580364223" lon="2.440964401">
        <ele>318.33</ele>
        <time>2014-07-06T09:39:36Z</time>
      </trkpt>
      <trkpt lat="41.580363552" lon="2.440947972">
        <ele>317.85</ele>
        <time>2014-07-06T09:39:58Z</time>
      </trkpt>
      <trkpt lat="41.580366737" lon="2.440963982">
        <ele>317.85</ele>
        <time>2014-07-06T09:40:19Z</time>
      </trkpt>
      <trkpt lat="41.580365228" lon="2.441000443">
        <ele>317.85</ele>
        <time>2014-07-06T09:40:40Z</time>
      </trkpt>
      <trkpt lat="41.580363468" lon="2.440978482">
        <ele>317.37</ele>
        <time>2014-07-06T09:41:01Z</time>
      </trkpt>
      <trkpt lat="41.580377298" lon="2.440965742">
        <ele>317.37</ele>
        <time>2014-07-06T09:41:15Z</time>
      </trkpt>
      <trkpt lat="41.580411161" lon="2.440950738">
        <ele>317.37</ele>
        <time>2014-07-06T09:41:35Z</time>
      </trkpt>
      <trkpt lat="41.580448461" lon="2.440946380">
        <ele>317.37</ele>
        <time>2014-07-06T09:41:56Z</time>
      </trkpt>
      <trkpt lat="41.580437564" lon="2.440930370">
        <ele>317.37</ele>
        <time>2014-07-06T09:42:18Z</time>
      </trkpt>
      <trkpt lat="41.580423902" lon="2.440934310">
        <ele>316.89</ele>
        <time>2014-07-06T09:42:39Z</time>
      </trkpt>
      <trkpt lat="41.580403450" lon="2.440949900">
        <ele>316.89</ele>
        <time>2014-07-06T09:43:01Z</time>
      </trkpt>
      <trkpt lat="41.580393811" lon="2.440969933">
        <ele>316.89</ele>
        <time>2014-07-06T09:43:18Z</time>
      </trkpt>
      <trkpt lat="41.580398253" lon="2.440968927">
        <ele>316.89</ele>
        <time>2014-07-06T09:43:38Z</time>
      </trkpt>
      <trkpt lat="41.580394565" lon="2.440975968">
        <ele>316.89</ele>
        <time>2014-07-06T09:44:00Z</time>
      </trkpt>
      <trkpt lat="41.580387608" lon="2.440978147">
        <ele>316.89</ele>
        <time>2014-07-06T09:44:20Z</time>
      </trkpt>
      <trkpt lat="41.580396996" lon="2.440987116">
        <ele>316.89</ele>
        <time>2014-07-06T09:44:40Z</time>
      </trkpt>
      <trkpt lat="41.580378639" lon="2.440978734">
        <ele>316.89</ele>
        <time>2014-07-06T09:44:48Z</time>
      </trkpt>
      <trkpt lat="41.580383501" lon="2.440906398">
        <ele>316.89</ele>
        <time>2014-07-06T09:44:56Z</time>
      </trkpt>
      <trkpt lat="41.580361205" lon="2.440922743">
        <ele>316.89</ele>
        <time>2014-07-06T09:45:04Z</time>
      </trkpt>
      <trkpt lat="41.580348381" lon="2.440951996">
        <ele>316.89</ele>
        <time>2014-07-06T09:45:12Z</time>
      </trkpt>
      <trkpt lat="41.580366653" lon="2.440965574">
        <ele>316.41</ele>
        <time>2014-07-06T09:45:31Z</time>
      </trkpt>
      <trkpt lat="41.580394481" lon="2.440975884">
        <ele>316.41</ele>
        <time>2014-07-06T09:45:53Z</time>
      </trkpt>
      <trkpt lat="41.580372185" lon="2.440962725">
        <ele>316.41</ele>
        <time>2014-07-06T09:46:02Z</time>
      </trkpt>
      <trkpt lat="41.580370509" lon="2.440938166">
        <ele>316.41</ele>
        <time>2014-07-06T09:46:04Z</time>
      </trkpt>
      <trkpt lat="41.580387440" lon="2.440874798">
        <ele>317.85</ele>
        <time>2014-07-06T09:46:08Z</time>
      </trkpt>
      <trkpt lat="41.580433541" lon="2.440681093">
        <ele>320.74</ele>
        <time>2014-07-06T09:46:19Z</time>
      </trkpt>
      <trkpt lat="41.580352153" lon="2.440698443">
        <ele>322.66</ele>
        <time>2014-07-06T09:46:27Z</time>
      </trkpt>
      <trkpt lat="41.580269172" lon="2.440744124">
        <ele>323.62</ele>
        <time>2014-07-06T09:46:35Z</time>
      </trkpt>
      <trkpt lat="41.580187448" lon="2.440804726">
        <ele>325.54</ele>
        <time>2014-07-06T09:46:44Z</time>
      </trkpt>
      <trkpt lat="41.580178228" lon="2.440810677">
        <ele>326.02</ele>
        <time>2014-07-06T09:46:45Z</time>
      </trkpt>
      <trkpt lat="41.580049314" lon="2.440902291">
        <ele>326.99</ele>
        <time>2014-07-06T09:46:56Z</time>
      </trkpt>
      <trkpt lat="41.579986283" lon="2.440994911">
        <ele>328.00</ele>
        <time>2014-07-06T09:47:04Z</time>
      </trkpt>
      <trkpt lat="41.579914282" lon="2.441135224">
        <ele>330.40</ele>
        <time>2014-07-06T09:47:15Z</time>
      </trkpt>
      <trkpt lat="41.579876815" lon="2.441244524">
        <ele>332.30</ele>
        <time>2014-07-06T09:47:24Z</time>
      </trkpt>
      <trkpt lat="41.579818142" lon="2.441295318">
        <ele>333.20</ele>
        <time>2014-07-06T09:47:30Z</time>
      </trkpt>
      <trkpt lat="41.579751589" lon="2.441260953">
        <ele>334.70</ele>
        <time>2014-07-06T09:47:37Z</time>
      </trkpt>
      <trkpt lat="41.579728036" lon="2.441216948">
        <ele>335.20</ele>
        <time>2014-07-06T09:47:41Z</time>
      </trkpt>
      <trkpt lat="41.579690401" lon="2.441100355">
        <ele>336.60</ele>
        <time>2014-07-06T09:47:49Z</time>
      </trkpt>
      <trkpt lat="41.579717140" lon="2.440959372">
        <ele>337.60</ele>
        <time>2014-07-06T09:47:59Z</time>
      </trkpt>
      <trkpt lat="41.579726611" lon="2.440884605">
        <ele>338.00</ele>
        <time>2014-07-06T09:48:05Z</time>
      </trkpt>
      <trkpt lat="41.579776819" lon="2.440781089">
        <ele>339.50</ele>
        <time>2014-07-06T09:48:14Z</time>
      </trkpt>
      <trkpt lat="41.579841695" lon="2.440623928">
        <ele>341.40</ele>
        <time>2014-07-06T09:48:25Z</time>
      </trkpt>
      <trkpt lat="41.579876144" lon="2.440508509">
        <ele>342.40</ele>
        <time>2014-07-06T09:48:33Z</time>
      </trkpt>
      <trkpt lat="41.579848065" lon="2.440424020">
        <ele>343.30</ele>
        <time>2014-07-06T09:48:39Z</time>
      </trkpt>
      <trkpt lat="41.579792242" lon="2.440393342">
        <ele>344.30</ele>
        <time>2014-07-06T09:48:44Z</time>
      </trkpt>
      <trkpt lat="41.579669698" lon="2.440368448">
        <ele>345.70</ele>
        <time>2014-07-06T09:48:54Z</time>
      </trkpt>
      <trkpt lat="41.579592249" lon="2.440330561">
        <ele>347.20</ele>
        <time>2014-07-06T09:49:01Z</time>
      </trkpt>
      <trkpt lat="41.579491583" lon="2.440288484">
        <ele>348.10</ele>
        <time>2014-07-06T09:49:09Z</time>
      </trkpt>
      <trkpt lat="41.579377170" lon="2.440230398">
        <ele>350.50</ele>
        <time>2014-07-06T09:49:19Z</time>
      </trkpt>
      <trkpt lat="41.579275413" lon="2.440182286">
        <ele>351.00</ele>
        <time>2014-07-06T09:49:26Z</time>
      </trkpt>
      <trkpt lat="41.579155133" lon="2.440135263">
        <ele>352.90</ele>
        <time>2014-07-06T09:49:35Z</time>
      </trkpt>
      <trkpt lat="41.579089419" lon="2.440111626">
        <ele>353.90</ele>
        <time>2014-07-06T09:49:40Z</time>
      </trkpt>
      <trkpt lat="41.578948184" lon="2.440162420">
        <ele>355.80</ele>
        <time>2014-07-06T09:49:51Z</time>
      </trkpt>
      <trkpt lat="41.578854558" lon="2.440272810">
        <ele>357.30</ele>
        <time>2014-07-06T09:50:00Z</time>
      </trkpt>
      <trkpt lat="41.578765794" lon="2.440339614">
        <ele>357.80</ele>
        <time>2014-07-06T09:50:07Z</time>
      </trkpt>
      <trkpt lat="41.578741654" lon="2.440362245">
        <ele>358.20</ele>
        <time>2014-07-06T09:50:09Z</time>
      </trkpt>
      <trkpt lat="41.578621038" lon="2.440476490">
        <ele>358.70</ele>
        <time>2014-07-06T09:50:18Z</time>
      </trkpt>
      <trkpt lat="41.578511151" lon="2.440644296">
        <ele>358.70</ele>
        <time>2014-07-06T09:50:28Z</time>
      </trkpt>
      <trkpt lat="41.578524060" lon="2.440807073">
        <ele>358.70</ele>
        <time>2014-07-06T09:50:35Z</time>
      </trkpt>
      <trkpt lat="41.578551468" lon="2.440970268">
        <ele>357.30</ele>
        <time>2014-07-06T09:50:44Z</time>
      </trkpt>
      <trkpt lat="41.578587511" lon="2.441203956">
        <ele>356.80</ele>
        <time>2014-07-06T09:50:52Z</time>
      </trkpt>
      <trkpt lat="41.578667306" lon="2.441505285">
        <ele>356.80</ele>
        <time>2014-07-06T09:51:00Z</time>
      </trkpt>
      <trkpt lat="41.578815582" lon="2.441811644">
        <ele>355.80</ele>
        <time>2014-07-06T09:51:08Z</time>
      </trkpt>
      <trkpt lat="41.578965199" lon="2.442118421">
        <ele>354.90</ele>
        <time>2014-07-06T09:51:16Z</time>
      </trkpt>
      <trkpt lat="41.579100818" lon="2.442463756">
        <ele>354.90</ele>
        <time>2014-07-06T09:51:24Z</time>
      </trkpt>
      <trkpt lat="41.579204083" lon="2.442749579">
        <ele>354.90</ele>
        <time>2014-07-06T09:51:32Z</time>
      </trkpt>
      <trkpt lat="41.579304834" lon="2.443034228">
        <ele>354.90</ele>
        <time>2014-07-06T09:51:41Z</time>
      </trkpt>
      <trkpt lat="41.579403237" lon="2.443319967">
        <ele>356.30</ele>
        <time>2014-07-06T09:51:52Z</time>
      </trkpt>
      <trkpt lat="41.579458726" lon="2.443469333">
        <ele>358.70</ele>
        <time>2014-07-06T09:51:59Z</time>
      </trkpt>
      <trkpt lat="41.579481692" lon="2.443558265">
        <ele>360.20</ele>
        <time>2014-07-06T09:52:04Z</time>
      </trkpt>
      <trkpt lat="41.579497953" lon="2.443690699">
        <ele>361.10</ele>
        <time>2014-07-06T09:52:12Z</time>
      </trkpt>
      <trkpt lat="41.579509688" lon="2.443847943">
        <ele>363.50</ele>
        <time>2014-07-06T09:52:21Z</time>
      </trkpt>
      <trkpt lat="41.579520081" lon="2.443914663">
        <ele>364.00</ele>
        <time>2014-07-06T09:52:25Z</time>
      </trkpt>
      <trkpt lat="41.579537683" lon="2.444051204">
        <ele>365.40</ele>
        <time>2014-07-06T09:52:32Z</time>
      </trkpt>
      <trkpt lat="41.579554447" lon="2.444238372">
        <ele>366.90</ele>
        <time>2014-07-06T09:52:42Z</time>
      </trkpt>
      <trkpt lat="41.579575234" lon="2.444337698">
        <ele>367.80</ele>
        <time>2014-07-06T09:52:48Z</time>
      </trkpt>
      <trkpt lat="41.579606918" lon="2.444465773">
        <ele>369.30</ele>
        <time>2014-07-06T09:52:54Z</time>
      </trkpt>
      <trkpt lat="41.579638517" lon="2.444647828">
        <ele>370.70</ele>
        <time>2014-07-06T09:53:03Z</time>
      </trkpt>
      <trkpt lat="41.579674560" lon="2.444816891">
        <ele>372.70</ele>
        <time>2014-07-06T09:53:12Z</time>
      </trkpt>
      <trkpt lat="41.579749242" lon="2.444961479">
        <ele>373.60</ele>
        <time>2014-07-06T09:53:20Z</time>
      </trkpt>
      <trkpt lat="41.579802970" lon="2.445144959">
        <ele>374.10</ele>
        <time>2014-07-06T09:53:29Z</time>
      </trkpt>
      <trkpt lat="41.579853765" lon="2.445368001">
        <ele>374.60</ele>
        <time>2014-07-06T09:53:38Z</time>
      </trkpt>
      <trkpt lat="41.579910929" lon="2.445628762">
        <ele>375.50</ele>
        <time>2014-07-06T09:53:48Z</time>
      </trkpt>
      <trkpt lat="41.579919982" lon="2.445844848">
        <ele>375.50</ele>
        <time>2014-07-06T09:53:56Z</time>
      </trkpt>
      <trkpt lat="41.579891232" lon="2.446123295">
        <ele>376.00</ele>
        <time>2014-07-06T09:54:06Z</time>
      </trkpt>
      <trkpt lat="41.579863991" lon="2.446396712">
        <ele>377.00</ele>
        <time>2014-07-06T09:54:16Z</time>
      </trkpt>
      <trkpt lat="41.579845970" lon="2.446586227">
        <ele>378.90</ele>
        <time>2014-07-06T09:54:23Z</time>
      </trkpt>
      <trkpt lat="41.579833313" lon="2.446778005">
        <ele>379.90</ele>
        <time>2014-07-06T09:54:31Z</time>
      </trkpt>
      <trkpt lat="41.579774472" lon="2.446939608">
        <ele>381.30</ele>
        <time>2014-07-06T09:54:40Z</time>
      </trkpt>
      <trkpt lat="41.579705573" lon="2.447243871">
        <ele>381.30</ele>
        <time>2014-07-06T09:54:50Z</time>
      </trkpt>
      <trkpt lat="41.579621670" lon="2.447513433">
        <ele>381.30</ele>
        <time>2014-07-06T09:54:58Z</time>
      </trkpt>
      <trkpt lat="41.579577832" lon="2.447801352">
        <ele>381.30</ele>
        <time>2014-07-06T09:55:07Z</time>
      </trkpt>
      <trkpt lat="41.579522680" lon="2.448046439">
        <ele>381.30</ele>
        <time>2014-07-06T09:55:13Z</time>
      </trkpt>
      <trkpt lat="41.579485380" lon="2.448278114">
        <ele>379.90</ele>
        <time>2014-07-06T09:55:18Z</time>
      </trkpt>
      <trkpt lat="41.579444141" lon="2.448609870">
        <ele>378.90</ele>
        <time>2014-07-06T09:55:24Z</time>
      </trkpt>
      <trkpt lat="41.579418157" lon="2.448820759">
        <ele>377.50</ele>
        <time>2014-07-06T09:55:27Z</time>
      </trkpt>
      <trkpt lat="41.579311875" lon="2.449173721">
        <ele>377.00</ele>
        <time>2014-07-06T09:55:33Z</time>
      </trkpt>
      <trkpt lat="41.579290920" lon="2.449221498">
        <ele>377.00</ele>
        <time>2014-07-06T09:55:34Z</time>
      </trkpt>
      <trkpt lat="41.579126132" lon="2.449559037">
        <ele>377.00</ele>
        <time>2014-07-06T09:55:42Z</time>
      </trkpt>
      <trkpt lat="41.579013479" lon="2.449838154">
        <ele>376.50</ele>
        <time>2014-07-06T09:55:50Z</time>
      </trkpt>
      <trkpt lat="41.578905101" lon="2.450050552">
        <ele>376.50</ele>
        <time>2014-07-06T09:55:57Z</time>
      </trkpt>
      <trkpt lat="41.578800411" lon="2.450281892">
        <ele>376.50</ele>
        <time>2014-07-06T09:56:04Z</time>
      </trkpt>
      <trkpt lat="41.578682058" lon="2.450591436">
        <ele>376.50</ele>
        <time>2014-07-06T09:56:13Z</time>
      </trkpt>
      <trkpt lat="41.578583655" lon="2.450850353">
        <ele>376.00</ele>
        <time>2014-07-06T09:56:20Z</time>
      </trkpt>
      <trkpt lat="41.578457926" lon="2.451332145">
        <ele>375.10</ele>
        <time>2014-07-06T09:56:28Z</time>
      </trkpt>
      <trkpt lat="41.578325241" lon="2.451833885">
        <ele>373.60</ele>
        <time>2014-07-06T09:56:35Z</time>
      </trkpt>
      <trkpt lat="41.578253073" lon="2.452138986">
        <ele>374.10</ele>
        <time>2014-07-06T09:56:41Z</time>
      </trkpt>
      <trkpt lat="41.578207894" lon="2.452339649">
        <ele>375.10</ele>
        <time>2014-07-06T09:56:47Z</time>
      </trkpt>
      <trkpt lat="41.578216695" lon="2.452649863">
        <ele>377.50</ele>
        <time>2014-07-06T09:56:55Z</time>
      </trkpt>
      <trkpt lat="41.578229939" lon="2.452847509">
        <ele>379.90</ele>
        <time>2014-07-06T09:57:02Z</time>
      </trkpt>
      <trkpt lat="41.578251648" lon="2.453083459">
        <ele>382.30</ele>
        <time>2014-07-06T09:57:10Z</time>
      </trkpt>
      <trkpt lat="41.578281487" lon="2.453370372">
        <ele>383.20</ele>
        <time>2014-07-06T09:57:18Z</time>
      </trkpt>
      <trkpt lat="41.578285343" lon="2.453599030">
        <ele>385.20</ele>
        <time>2014-07-06T09:57:26Z</time>
      </trkpt>
      <trkpt lat="41.578280565" lon="2.453904467">
        <ele>385.60</ele>
        <time>2014-07-06T09:57:36Z</time>
      </trkpt>
      <trkpt lat="41.578245277" lon="2.454147710">
        <ele>386.60</ele>
        <time>2014-07-06T09:57:45Z</time>
      </trkpt>
      <trkpt lat="41.578295401" lon="2.454347869">
        <ele>386.60</ele>
        <time>2014-07-06T09:57:51Z</time>
      </trkpt>
      <trkpt lat="41.578435798" lon="2.454631094">
        <ele>386.60</ele>
        <time>2014-07-06T09:57:58Z</time>
      </trkpt>
      <trkpt lat="41.578459351" lon="2.454809545">
        <ele>385.20</ele>
        <time>2014-07-06T09:58:01Z</time>
      </trkpt>
      <trkpt lat="41.578484162" lon="2.455164015">
        <ele>382.70</ele>
        <time>2014-07-06T09:58:07Z</time>
      </trkpt>
      <trkpt lat="41.578484665" lon="2.455345819">
        <ele>381.30</ele>
        <time>2014-07-06T09:58:10Z</time>
      </trkpt>
      <trkpt lat="41.578451472" lon="2.455631390">
        <ele>377.90</ele>
        <time>2014-07-06T09:58:14Z</time>
      </trkpt>
      <trkpt lat="41.578455244" lon="2.455729878">
        <ele>377.50</ele>
        <time>2014-07-06T09:58:15Z</time>
      </trkpt>
      <trkpt lat="41.578451305" lon="2.455927691">
        <ele>376.00</ele>
        <time>2014-07-06T09:58:17Z</time>
      </trkpt>
      <trkpt lat="41.578354829" lon="2.456311079">
        <ele>372.20</ele>
        <time>2014-07-06T09:58:22Z</time>
      </trkpt>
      <trkpt lat="41.578295401" lon="2.456399340">
        <ele>370.20</ele>
        <time>2014-07-06T09:58:24Z</time>
      </trkpt>
      <trkpt lat="41.578193645" lon="2.456519201">
        <ele>368.80</ele>
        <time>2014-07-06T09:58:27Z</time>
      </trkpt>
      <trkpt lat="41.578039334" lon="2.456719026">
        <ele>366.90</ele>
        <time>2014-07-06T09:58:32Z</time>
      </trkpt>
      <trkpt lat="41.578013350" lon="2.456954641">
        <ele>363.50</ele>
        <time>2014-07-06T09:58:37Z</time>
      </trkpt>
      <trkpt lat="41.577978733" lon="2.457184054">
        <ele>360.60</ele>
        <time>2014-07-06T09:58:42Z</time>
      </trkpt>
      <trkpt lat="41.578004633" lon="2.457511200">
        <ele>356.80</ele>
        <time>2014-07-06T09:58:46Z</time>
      </trkpt>
      <trkpt lat="41.578086524" lon="2.457845973">
        <ele>352.00</ele>
        <time>2014-07-06T09:58:50Z</time>
      </trkpt>
      <trkpt lat="41.578117453" lon="2.458087539">
        <ele>349.60</ele>
        <time>2014-07-06T09:58:54Z</time>
      </trkpt>
      <trkpt lat="41.578218036" lon="2.458229110">
        <ele>347.20</ele>
        <time>2014-07-06T09:58:58Z</time>
      </trkpt>
      <trkpt lat="41.578353236" lon="2.458224919">
        <ele>345.70</ele>
        <time>2014-07-06T09:59:01Z</time>
      </trkpt>
      <trkpt lat="41.578618356" lon="2.458185105">
        <ele>343.80</ele>
        <time>2014-07-06T09:59:08Z</time>
      </trkpt>
      <trkpt lat="41.578766799" lon="2.458159456">
        <ele>341.90</ele>
        <time>2014-07-06T09:59:14Z</time>
      </trkpt>
      <trkpt lat="41.578907029" lon="2.458162138">
        <ele>341.40</ele>
        <time>2014-07-06T09:59:20Z</time>
      </trkpt>
      <trkpt lat="41.579006438" lon="2.458180746">
        <ele>340.90</ele>
        <time>2014-07-06T09:59:26Z</time>
      </trkpt>
      <trkpt lat="41.579132837" lon="2.458226092">
        <ele>340.40</ele>
        <time>2014-07-06T09:59:32Z</time>
      </trkpt>
      <trkpt lat="41.579155804" lon="2.458248975">
        <ele>340.40</ele>
        <time>2014-07-06T09:59:39Z</time>
      </trkpt>
      <trkpt lat="41.579196791" lon="2.458246544">
        <ele>340.40</ele>
        <time>2014-07-06T09:59:52Z</time>
      </trkpt>
      <trkpt lat="41.579181536" lon="2.458233720">
        <ele>340.40</ele>
        <time>2014-07-06T09:59:55Z</time>
      </trkpt>
      <trkpt lat="41.579073577" lon="2.458224416">
        <ele>340.40</ele>
        <time>2014-07-06T10:00:03Z</time>
      </trkpt>
      <trkpt lat="41.579061004" lon="2.458223242">
        <ele>340.40</ele>
        <time>2014-07-06T10:00:04Z</time>
      </trkpt>
      <trkpt lat="41.578967630" lon="2.458338913">
        <ele>341.40</ele>
        <time>2014-07-06T10:00:12Z</time>
      </trkpt>
      <trkpt lat="41.578884146" lon="2.458556255">
        <ele>340.00</ele>
        <time>2014-07-06T10:00:20Z</time>
      </trkpt>
      <trkpt lat="41.578867466" lon="2.458595734">
        <ele>340.00</ele>
        <time>2014-07-06T10:00:21Z</time>
      </trkpt>
      <trkpt lat="41.578815331" lon="2.458746357">
        <ele>338.50</ele>
        <time>2014-07-06T10:00:24Z</time>
      </trkpt>
      <trkpt lat="41.578763698" lon="2.458901925">
        <ele>338.00</ele>
        <time>2014-07-06T10:00:27Z</time>
      </trkpt>
      <trkpt lat="41.578697397" lon="2.459237956">
        <ele>334.20</ele>
        <time>2014-07-06T10:00:32Z</time>
      </trkpt>
      <trkpt lat="41.578655488" lon="2.459427806">
        <ele>330.80</ele>
        <time>2014-07-06T10:00:34Z</time>
      </trkpt>
      <trkpt lat="41.578575860" lon="2.459760902">
        <ele>326.50</ele>
        <time>2014-07-06T10:00:37Z</time>
      </trkpt>
      <trkpt lat="41.578471673" lon="2.460246382">
        <ele>322.20</ele>
        <time>2014-07-06T10:00:41Z</time>
      </trkpt>
      <trkpt lat="41.578400259" lon="2.460607139">
        <ele>318.80</ele>
        <time>2014-07-06T10:00:44Z</time>
      </trkpt>
      <trkpt lat="41.578318451" lon="2.460954653">
        <ele>315.00</ele>
        <time>2014-07-06T10:00:47Z</time>
      </trkpt>
      <trkpt lat="41.578214181" lon="2.461300742">
        <ele>311.60</ele>
        <time>2014-07-06T10:00:50Z</time>
      </trkpt>
      <trkpt lat="41.578146371" lon="2.461494364">
        <ele>308.20</ele>
        <time>2014-07-06T10:00:52Z</time>
      </trkpt>
      <trkpt lat="41.578024079" lon="2.461904407">
        <ele>304.40</ele>
        <time>2014-07-06T10:00:56Z</time>
      </trkpt>
      <trkpt lat="41.577884520" lon="2.462369937">
        <ele>301.00</ele>
        <time>2014-07-06T10:01:00Z</time>
      </trkpt>
      <trkpt lat="41.577821991" lon="2.462610917">
        <ele>297.20</ele>
        <time>2014-07-06T10:01:03Z</time>
      </trkpt>
      <trkpt lat="41.577813777" lon="2.462658610">
        <ele>297.70</ele>
        <time>2014-07-06T10:01:04Z</time>
      </trkpt>
      <trkpt lat="41.577784440" lon="2.462728683">
        <ele>296.20</ele>
        <time>2014-07-06T10:01:06Z</time>
      </trkpt>
      <trkpt lat="41.577664495" lon="2.462685600">
        <ele>293.80</ele>
        <time>2014-07-06T10:01:11Z</time>
      </trkpt>
      <trkpt lat="41.577620490" lon="2.462568756">
        <ele>292.40</ele>
        <time>2014-07-06T10:01:15Z</time>
      </trkpt>
      <trkpt lat="41.577546227" lon="2.462365411">
        <ele>290.50</ele>
        <time>2014-07-06T10:01:19Z</time>
      </trkpt>
      <trkpt lat="41.577345396" lon="2.462037008">
        <ele>286.60</ele>
        <time>2014-07-06T10:01:25Z</time>
      </trkpt>
      <trkpt lat="41.577151607" lon="2.462000631">
        <ele>283.70</ele>
        <time>2014-07-06T10:01:29Z</time>
      </trkpt>
      <trkpt lat="41.577028728" lon="2.462212358">
        <ele>280.80</ele>
        <time>2014-07-06T10:01:32Z</time>
      </trkpt>
      <trkpt lat="41.576981454" lon="2.462543862">
        <ele>277.50</ele>
        <time>2014-07-06T10:01:36Z</time>
      </trkpt>
      <trkpt lat="41.576991848" lon="2.462620640">
        <ele>276.50</ele>
        <time>2014-07-06T10:01:37Z</time>
      </trkpt>
      <trkpt lat="41.577016071" lon="2.462759109">
        <ele>275.10</ele>
        <time>2014-07-06T10:01:39Z</time>
      </trkpt>
      <trkpt lat="41.576957063" lon="2.462983493">
        <ele>272.70</ele>
        <time>2014-07-06T10:01:43Z</time>
      </trkpt>
      <trkpt lat="41.576876597" lon="2.463083824">
        <ele>271.70</ele>
        <time>2014-07-06T10:01:45Z</time>
      </trkpt>
      <trkpt lat="41.576581889" lon="2.463463776">
        <ele>269.80</ele>
        <time>2014-07-06T10:01:51Z</time>
      </trkpt>
      <trkpt lat="41.576476696" lon="2.463606184">
        <ele>269.30</ele>
        <time>2014-07-06T10:01:53Z</time>
      </trkpt>
      <trkpt lat="41.576310315" lon="2.463855965">
        <ele>266.40</ele>
        <time>2014-07-06T10:01:56Z</time>
      </trkpt>
      <trkpt lat="41.576248708" lon="2.463942885">
        <ele>266.40</ele>
        <time>2014-07-06T10:01:57Z</time>
      </trkpt>
      <trkpt lat="41.575974201" lon="2.464318143">
        <ele>264.00</ele>
        <time>2014-07-06T10:02:01Z</time>
      </trkpt>
      <trkpt lat="41.575707572" lon="2.464685187">
        <ele>261.10</ele>
        <time>2014-07-06T10:02:05Z</time>
      </trkpt>
      <trkpt lat="41.575417307" lon="2.464736568">
        <ele>258.70</ele>
        <time>2014-07-06T10:02:09Z</time>
      </trkpt>
      <trkpt lat="41.575344133" lon="2.464696419">
        <ele>258.70</ele>
        <time>2014-07-06T10:02:10Z</time>
      </trkpt>
      <trkpt lat="41.575273893" lon="2.464643529">
        <ele>258.70</ele>
        <time>2014-07-06T10:02:11Z</time>
      </trkpt>
      <trkpt lat="41.574770392" lon="2.464294758">
        <ele>255.90</ele>
        <time>2014-07-06T10:02:18Z</time>
      </trkpt>
      <trkpt lat="41.574469482" lon="2.464332392">
        <ele>253.90</ele>
        <time>2014-07-06T10:02:22Z</time>
      </trkpt>
      <trkpt lat="41.574346854" lon="2.464615533">
        <ele>253.40</ele>
        <time>2014-07-06T10:02:25Z</time>
      </trkpt>
      <trkpt lat="41.574325564" lon="2.464719133">
        <ele>252.50</ele>
        <time>2014-07-06T10:02:26Z</time>
      </trkpt>
      <trkpt lat="41.574084836" lon="2.465263119">
        <ele>249.60</ele>
        <time>2014-07-06T10:02:32Z</time>
      </trkpt>
      <trkpt lat="41.573898171" lon="2.465473086">
        <ele>251.00</ele>
        <time>2014-07-06T10:02:36Z</time>
      </trkpt>
      <trkpt lat="41.573893226" lon="2.465562101">
        <ele>251.50</ele>
        <time>2014-07-06T10:02:38Z</time>
      </trkpt>
      <trkpt lat="41.573915354" lon="2.465826299">
        <ele>252.50</ele>
        <time>2014-07-06T10:02:47Z</time>
      </trkpt>
      <trkpt lat="41.573942008" lon="2.466023274">
        <ele>253.90</ele>
        <time>2014-07-06T10:02:54Z</time>
      </trkpt>
      <trkpt lat="41.573969836" lon="2.466215974">
        <ele>255.40</ele>
        <time>2014-07-06T10:03:01Z</time>
      </trkpt>
      <trkpt lat="41.574003532" lon="2.466470532">
        <ele>257.30</ele>
        <time>2014-07-06T10:03:09Z</time>
      </trkpt>
      <trkpt lat="41.574063211" lon="2.466811340">
        <ele>258.30</ele>
        <time>2014-07-06T10:03:19Z</time>
      </trkpt>
      <trkpt lat="41.574048542" lon="2.467126416">
        <ele>258.30</ele>
        <time>2014-07-06T10:03:27Z</time>
      </trkpt>
      <trkpt lat="41.573927005" lon="2.467448784">
        <ele>258.30</ele>
        <time>2014-07-06T10:03:33Z</time>
      </trkpt>
      <trkpt lat="41.573861374" lon="2.467808452">
        <ele>253.90</ele>
        <time>2014-07-06T10:03:37Z</time>
      </trkpt>
      <trkpt lat="41.573846622" lon="2.467996877">
        <ele>252.00</ele>
        <time>2014-07-06T10:03:39Z</time>
      </trkpt>
      <trkpt lat="41.573828517" lon="2.468285382">
        <ele>248.20</ele>
        <time>2014-07-06T10:03:42Z</time>
      </trkpt>
      <trkpt lat="41.573804042" lon="2.468680086">
        <ele>244.80</ele>
        <time>2014-07-06T10:03:46Z</time>
      </trkpt>
      <trkpt lat="41.573765653" lon="2.469093397">
        <ele>241.00</ele>
        <time>2014-07-06T10:03:50Z</time>
      </trkpt>
      <trkpt lat="41.573753583" lon="2.469215438">
        <ele>241.00</ele>
        <time>2014-07-06T10:03:51Z</time>
      </trkpt>
      <trkpt lat="41.573724833" lon="2.469480474">
        <ele>237.60</ele>
        <time>2014-07-06T10:03:53Z</time>
      </trkpt>
      <trkpt lat="41.573706477" lon="2.469762776">
        <ele>234.20</ele>
        <time>2014-07-06T10:03:55Z</time>
      </trkpt>
      <trkpt lat="41.573698849" lon="2.470036948">
        <ele>230.37</ele>
        <time>2014-07-06T10:03:57Z</time>
      </trkpt>
      <trkpt lat="41.573734892" lon="2.470447745">
        <ele>227.97</ele>
        <time>2014-07-06T10:04:00Z</time>
      </trkpt>
      <trkpt lat="41.573755511" lon="2.470577413">
        <ele>226.05</ele>
        <time>2014-07-06T10:04:01Z</time>
      </trkpt>
      <trkpt lat="41.573761378" lon="2.470961388">
        <ele>221.72</ele>
        <time>2014-07-06T10:04:04Z</time>
      </trkpt>
      <trkpt lat="41.573705974" lon="2.471182000">
        <ele>220.76</ele>
        <time>2014-07-06T10:04:06Z</time>
      </trkpt>
      <trkpt lat="41.573517130" lon="2.471397918">
        <ele>219.32</ele>
        <time>2014-07-06T10:04:09Z</time>
      </trkpt>
      <trkpt lat="41.573420486" lon="2.471424237">
        <ele>218.36</ele>
        <time>2014-07-06T10:04:10Z</time>
      </trkpt>
      <trkpt lat="41.573155786" lon="2.471481066">
        <ele>213.55</ele>
        <time>2014-07-06T10:04:13Z</time>
      </trkpt>
      <trkpt lat="41.573029806" lon="2.471632695">
        <ele>209.70</ele>
        <time>2014-07-06T10:04:17Z</time>
      </trkpt>
      <trkpt lat="41.573106416" lon="2.471757669">
        <ele>208.74</ele>
        <time>2014-07-06T10:04:19Z</time>
      </trkpt>
      <trkpt lat="41.573414954" lon="2.472074170">
        <ele>203.94</ele>
        <time>2014-07-06T10:04:24Z</time>
      </trkpt>
      <trkpt lat="41.573476813" lon="2.472130245">
        <ele>202.98</ele>
        <time>2014-07-06T10:04:25Z</time>
      </trkpt>
      <trkpt lat="41.573792224" lon="2.472255219">
        <ele>198.65</ele>
        <time>2014-07-06T10:04:29Z</time>
      </trkpt>
      <trkpt lat="41.573891968" lon="2.472243484">
        <ele>197.21</ele>
        <time>2014-07-06T10:04:30Z</time>
      </trkpt>
      <trkpt lat="41.574175528" lon="2.472215321">
        <ele>192.40</ele>
        <time>2014-07-06T10:04:33Z</time>
      </trkpt>
      <trkpt lat="41.574443581" lon="2.472097807">
        <ele>188.08</ele>
        <time>2014-07-06T10:04:36Z</time>
      </trkpt>
      <trkpt lat="41.574655727" lon="2.471842242">
        <ele>183.75</ele>
        <time>2014-07-06T10:04:39Z</time>
      </trkpt>
      <trkpt lat="41.574762513" lon="2.471501602">
        <ele>179.90</ele>
        <time>2014-07-06T10:04:42Z</time>
      </trkpt>
      <trkpt lat="41.574781707" lon="2.471267914">
        <ele>177.02</ele>
        <time>2014-07-06T10:04:44Z</time>
      </trkpt>
      <trkpt lat="41.574787072" lon="2.471019726">
        <ele>173.17</ele>
        <time>2014-07-06T10:04:47Z</time>
      </trkpt>
      <trkpt lat="41.574897294" lon="2.470993994">
        <ele>171.25</ele>
        <time>2014-07-06T10:04:50Z</time>
      </trkpt>
      <trkpt lat="41.574965858" lon="2.471139336">
        <ele>169.33</ele>
        <time>2014-07-06T10:04:53Z</time>
      </trkpt>
      <trkpt lat="41.575023944" lon="2.471556000">
        <ele>167.41</ele>
        <time>2014-07-06T10:05:00Z</time>
      </trkpt>
      <trkpt lat="41.575061076" lon="2.471858503">
        <ele>165.48</ele>
        <time>2014-07-06T10:05:04Z</time>
      </trkpt>
      <trkpt lat="41.575085468" lon="2.472024381">
        <ele>164.04</ele>
        <time>2014-07-06T10:05:06Z</time>
      </trkpt>
      <trkpt lat="41.575203150" lon="2.472593848">
        <ele>161.16</ele>
        <time>2014-07-06T10:05:12Z</time>
      </trkpt>
      <trkpt lat="41.575334075" lon="2.473162727">
        <ele>157.79</ele>
        <time>2014-07-06T10:05:17Z</time>
      </trkpt>
      <trkpt lat="41.575449577" lon="2.473674862">
        <ele>154.43</ele>
        <time>2014-07-06T10:05:21Z</time>
      </trkpt>
      <trkpt lat="41.575502719" lon="2.473913578">
        <ele>152.03</ele>
        <time>2014-07-06T10:05:23Z</time>
      </trkpt>
      <trkpt lat="41.575714446" lon="2.474296296">
        <ele>149.62</ele>
        <time>2014-07-06T10:05:27Z</time>
      </trkpt>
      <trkpt lat="41.575982918" lon="2.474740872">
        <ele>147.22</ele>
        <time>2014-07-06T10:05:32Z</time>
      </trkpt>
      <trkpt lat="41.576087943" lon="2.475045303">
        <ele>144.34</ele>
        <time>2014-07-06T10:05:35Z</time>
      </trkpt>
      <trkpt lat="41.576116609" lon="2.475151083">
        <ele>143.37</ele>
        <time>2014-07-06T10:05:36Z</time>
      </trkpt>
      <trkpt lat="41.576171762" lon="2.475800848">
        <ele>140.97</ele>
        <time>2014-07-06T10:05:42Z</time>
      </trkpt>
      <trkpt lat="41.576166817" lon="2.475903777">
        <ele>140.01</ele>
        <time>2014-07-06T10:05:43Z</time>
      </trkpt>
      <trkpt lat="41.576130775" lon="2.476146098">
        <ele>138.09</ele>
        <time>2014-07-06T10:05:46Z</time>
      </trkpt>
      <trkpt lat="41.576093978" lon="2.476343660">
        <ele>138.09</ele>
        <time>2014-07-06T10:05:49Z</time>
      </trkpt>
      <trkpt lat="41.575877474" lon="2.476651276">
        <ele>135.20</ele>
        <time>2014-07-06T10:05:56Z</time>
      </trkpt>
      <trkpt lat="41.575614785" lon="2.476975236">
        <ele>133.76</ele>
        <time>2014-07-06T10:06:04Z</time>
      </trkpt>
      <trkpt lat="41.575313288" lon="2.477390559">
        <ele>131.84</ele>
        <time>2014-07-06T10:06:11Z</time>
      </trkpt>
      <trkpt lat="41.574997961" lon="2.477844523">
        <ele>129.43</ele>
        <time>2014-07-06T10:06:18Z</time>
      </trkpt>
      <trkpt lat="41.574683472" lon="2.478285244">
        <ele>127.51</ele>
        <time>2014-07-06T10:06:25Z</time>
      </trkpt>
      <trkpt lat="41.574593115" lon="2.478407620">
        <ele>126.55</ele>
        <time>2014-07-06T10:06:27Z</time>
      </trkpt>
      <trkpt lat="41.574225233" lon="2.478802826">
        <ele>125.11</ele>
        <time>2014-07-06T10:06:35Z</time>
      </trkpt>
      <trkpt lat="41.573919629" lon="2.479153357">
        <ele>122.71</ele>
        <time>2014-07-06T10:06:42Z</time>
      </trkpt>
      <trkpt lat="41.573729108" lon="2.479375143">
        <ele>120.78</ele>
        <time>2014-07-06T10:06:46Z</time>
      </trkpt>
      <trkpt lat="41.573587873" lon="2.479536159">
        <ele>120.30</ele>
        <time>2014-07-06T10:06:50Z</time>
      </trkpt>
      <trkpt lat="41.573316970" lon="2.479853330">
        <ele>118.38</ele>
        <time>2014-07-06T10:06:58Z</time>
      </trkpt>
      <trkpt lat="41.573061322" lon="2.480188103">
        <ele>116.46</ele>
        <time>2014-07-06T10:07:05Z</time>
      </trkpt>
      <trkpt lat="41.572821599" lon="2.480501084">
        <ele>115.01</ele>
        <time>2014-07-06T10:07:11Z</time>
      </trkpt>
      <trkpt lat="41.572438714" lon="2.480983295">
        <ele>113.09</ele>
        <time>2014-07-06T10:07:19Z</time>
      </trkpt>
      <trkpt lat="41.572210140" lon="2.481269788">
        <ele>111.17</ele>
        <time>2014-07-06T10:07:24Z</time>
      </trkpt>
      <trkpt lat="41.572064546" lon="2.481490484">
        <ele>109.73</ele>
        <time>2014-07-06T10:07:30Z</time>
      </trkpt>
      <trkpt lat="41.572056248" lon="2.481517725">
        <ele>109.73</ele>
        <time>2014-07-06T10:07:35Z</time>
      </trkpt>
      <trkpt lat="41.572067982" lon="2.481563406">
        <ele>109.73</ele>
        <time>2014-07-06T10:07:39Z</time>
      </trkpt>
      <trkpt lat="41.572089021" lon="2.481570195">
        <ele>109.73</ele>
        <time>2014-07-06T10:07:41Z</time>
      </trkpt>
      <trkpt lat="41.572184826" lon="2.481445054">
        <ele>109.73</ele>
        <time>2014-07-06T10:07:49Z</time>
      </trkpt>
      <trkpt lat="41.572193208" lon="2.481439102">
        <ele>109.73</ele>
        <time>2014-07-06T10:07:50Z</time>
      </trkpt>
      <trkpt lat="41.572185832" lon="2.481409933">
        <ele>109.73</ele>
        <time>2014-07-06T10:07:53Z</time>
      </trkpt>
      <trkpt lat="41.572196729" lon="2.481338184">
        <ele>109.73</ele>
        <time>2014-07-06T10:07:57Z</time>
      </trkpt>
      <trkpt lat="41.572316925" lon="2.481173899">
        <ele>110.69</ele>
        <time>2014-07-06T10:08:06Z</time>
      </trkpt>
      <trkpt lat="41.572424549" lon="2.481018415">
        <ele>111.65</ele>
        <time>2014-07-06T10:08:14Z</time>
      </trkpt>
      <trkpt lat="41.572524712" lon="2.480870642">
        <ele>112.13</ele>
        <time>2014-07-06T10:08:22Z</time>
      </trkpt>
      <trkpt lat="41.572534016" lon="2.480856644">
        <ele>112.61</ele>
        <time>2014-07-06T10:08:23Z</time>
      </trkpt>
      <trkpt lat="41.572610543" lon="2.480901571">
        <ele>112.13</ele>
        <time>2014-07-06T10:08:30Z</time>
      </trkpt>
      <trkpt lat="41.572641221" lon="2.480939793">
        <ele>112.13</ele>
        <time>2014-07-06T10:08:32Z</time>
      </trkpt>
      <trkpt lat="41.572820007" lon="2.481128804">
        <ele>112.13</ele>
        <time>2014-07-06T10:08:41Z</time>
      </trkpt>
      <trkpt lat="41.572990411" lon="2.481314128">
        <ele>112.13</ele>
        <time>2014-07-06T10:08:50Z</time>
      </trkpt>
      <trkpt lat="41.573088982" lon="2.481419405">
        <ele>112.13</ele>
        <time>2014-07-06T10:08:55Z</time>
      </trkpt>
      <trkpt lat="41.573244215" lon="2.481615206">
        <ele>112.13</ele>
        <time>2014-07-06T10:09:04Z</time>
      </trkpt>
      <trkpt lat="41.573306492" lon="2.481700785">
        <ele>112.13</ele>
        <time>2014-07-06T10:09:08Z</time>
      </trkpt>
      <trkpt lat="41.573491397" lon="2.481918044">
        <ele>110.21</ele>
        <time>2014-07-06T10:09:17Z</time>
      </trkpt>
      <trkpt lat="41.573579659" lon="2.482012425">
        <ele>109.73</ele>
        <time>2014-07-06T10:09:24Z</time>
      </trkpt>
      <trkpt lat="41.573633135" lon="2.482095238">
        <ele>109.25</ele>
        <time>2014-07-06T10:09:32Z</time>
      </trkpt>
      <trkpt lat="41.573734808" lon="2.482221302">
        <ele>109.25</ele>
        <time>2014-07-06T10:09:40Z</time>
      </trkpt>
      <trkpt lat="41.573810161" lon="2.482303863">
        <ele>109.25</ele>
        <time>2014-07-06T10:09:46Z</time>
      </trkpt>
      <trkpt lat="41.573865817" lon="2.482364716">
        <ele>108.77</ele>
        <time>2014-07-06T10:09:54Z</time>
      </trkpt>
      <trkpt lat="41.573866404" lon="2.482366644">
        <ele>108.77</ele>
        <time>2014-07-06T10:09:55Z</time>
      </trkpt>
      <trkpt lat="41.573939242" lon="2.482466137">
        <ele>108.77</ele>
        <time>2014-07-06T10:10:01Z</time>
      </trkpt>
      <trkpt lat="41.573945613" lon="2.482483152">
        <ele>108.77</ele>
        <time>2014-07-06T10:10:02Z</time>
      </trkpt>
      <trkpt lat="41.574054494" lon="2.482680881">
        <ele>109.73</ele>
        <time>2014-07-06T10:10:10Z</time>
      </trkpt>
      <trkpt lat="41.574163039" lon="2.482941559">
        <ele>111.17</ele>
        <time>2014-07-06T10:10:20Z</time>
      </trkpt>
      <trkpt lat="41.574220539" lon="2.483209444">
        <ele>111.65</ele>
        <time>2014-07-06T10:10:28Z</time>
      </trkpt>
      <trkpt lat="41.574234704" lon="2.483403401">
        <ele>113.09</ele>
        <time>2014-07-06T10:10:35Z</time>
      </trkpt>
      <trkpt lat="41.574247110" lon="2.483590821">
        <ele>114.05</ele>
        <time>2014-07-06T10:10:42Z</time>
      </trkpt>
      <trkpt lat="41.574264628" lon="2.483678915">
        <ele>114.53</ele>
        <time>2014-07-06T10:10:48Z</time>
      </trkpt>
      <trkpt lat="41.574285834" lon="2.483682184">
        <ele>114.53</ele>
        <time>2014-07-06T10:10:50Z</time>
      </trkpt>
      <trkpt lat="41.574310561" lon="2.483702468">
        <ele>115.01</ele>
        <time>2014-07-06T10:10:53Z</time>
      </trkpt>
      <trkpt lat="41.574417262" lon="2.483698109">
        <ele>114.53</ele>
        <time>2014-07-06T10:10:59Z</time>
      </trkpt>
      <trkpt lat="41.574632845" lon="2.483629461">
        <ele>115.50</ele>
        <time>2014-07-06T10:11:09Z</time>
      </trkpt>
      <trkpt lat="41.574766452" lon="2.483517312">
        <ele>116.46</ele>
        <time>2014-07-06T10:11:16Z</time>
      </trkpt>
      <trkpt lat="41.574867035" lon="2.483351518">
        <ele>116.94</ele>
        <time>2014-07-06T10:11:24Z</time>
      </trkpt>
      <trkpt lat="41.574937946" lon="2.483162925">
        <ele>118.38</ele>
        <time>2014-07-06T10:11:32Z</time>
      </trkpt>
      <trkpt lat="41.574992177" lon="2.482997801">
        <ele>117.90</ele>
        <time>2014-07-06T10:11:39Z</time>
      </trkpt>
      <trkpt lat="41.575105668" lon="2.482840138">
        <ele>118.86</ele>
        <time>2014-07-06T10:11:47Z</time>
      </trkpt>
      <trkpt lat="41.575312114" lon="2.482645510">
        <ele>120.30</ele>
        <time>2014-07-06T10:11:58Z</time>
      </trkpt>
      <trkpt lat="41.575466006" lon="2.482459683">
        <ele>121.26</ele>
        <time>2014-07-06T10:12:07Z</time>
      </trkpt>
      <trkpt lat="41.575652587" lon="2.482277544">
        <ele>122.22</ele>
        <time>2014-07-06T10:12:17Z</time>
      </trkpt>
      <trkpt lat="41.575820812" lon="2.482112002">
        <ele>123.19</ele>
        <time>2014-07-06T10:12:26Z</time>
      </trkpt>
      <trkpt lat="41.576002532" lon="2.481955679">
        <ele>124.63</ele>
        <time>2014-07-06T10:12:35Z</time>
      </trkpt>
      <trkpt lat="41.576159609" lon="2.481814444">
        <ele>125.11</ele>
        <time>2014-07-06T10:12:43Z</time>
      </trkpt>
      <trkpt lat="41.576219958" lon="2.481731212">
        <ele>125.11</ele>
        <time>2014-07-06T10:12:47Z</time>
      </trkpt>
      <trkpt lat="41.576294641" lon="2.481621996">
        <ele>126.55</ele>
        <time>2014-07-06T10:12:54Z</time>
      </trkpt>
      <trkpt lat="41.576479881" lon="2.481542787">
        <ele>127.03</ele>
        <time>2014-07-06T10:13:04Z</time>
      </trkpt>
      <trkpt lat="41.576613153" lon="2.481471876">
        <ele>127.03</ele>
        <time>2014-07-06T10:13:11Z</time>
      </trkpt>
      <trkpt lat="41.576756484" lon="2.481393337">
        <ele>127.51</ele>
        <time>2014-07-06T10:13:19Z</time>
      </trkpt>
      <trkpt lat="41.576881626" lon="2.481377998">
        <ele>128.47</ele>
        <time>2014-07-06T10:13:26Z</time>
      </trkpt>
      <trkpt lat="41.577052114" lon="2.481348662">
        <ele>128.95</ele>
        <time>2014-07-06T10:13:32Z</time>
      </trkpt>
      <trkpt lat="41.577299966" lon="2.481315302">
        <ele>128.95</ele>
        <time>2014-07-06T10:13:41Z</time>
      </trkpt>
      <trkpt lat="41.577405411" lon="2.481314715">
        <ele>130.40</ele>
        <time>2014-07-06T10:13:47Z</time>
      </trkpt>
      <trkpt lat="41.577562571" lon="2.481315805">
        <ele>130.88</ele>
        <time>2014-07-06T10:13:55Z</time>
      </trkpt>
      <trkpt lat="41.577705986" lon="2.481288480">
        <ele>131.36</ele>
        <time>2014-07-06T10:14:02Z</time>
      </trkpt>
      <trkpt lat="41.577840180" lon="2.481291581">
        <ele>131.36</ele>
        <time>2014-07-06T10:14:08Z</time>
      </trkpt>
      <trkpt lat="41.578047297" lon="2.481250174">
        <ele>132.32</ele>
        <time>2014-07-06T10:14:16Z</time>
      </trkpt>
      <trkpt lat="41.578267825" lon="2.481163673">
        <ele>133.28</ele>
        <time>2014-07-06T10:14:24Z</time>
      </trkpt>
      <trkpt lat="41.578439821" lon="2.481054122">
        <ele>133.28</ele>
        <time>2014-07-06T10:14:31Z</time>
      </trkpt>
      <trkpt lat="41.578543086" lon="2.480900398">
        <ele>133.76</ele>
        <time>2014-07-06T10:14:38Z</time>
      </trkpt>
      <trkpt lat="41.578591366" lon="2.480846921">
        <ele>133.76</ele>
        <time>2014-07-06T10:14:41Z</time>
      </trkpt>
      <trkpt lat="41.578727740" lon="2.480758492">
        <ele>134.24</ele>
        <time>2014-07-06T10:14:49Z</time>
      </trkpt>
      <trkpt lat="41.578831592" lon="2.480649779">
        <ele>135.20</ele>
        <time>2014-07-06T10:14:56Z</time>
      </trkpt>
      <trkpt lat="41.578935862" lon="2.480530420">
        <ele>136.64</ele>
        <time>2014-07-06T10:15:02Z</time>
      </trkpt>
      <trkpt lat="41.578995374" lon="2.480511896">
        <ele>137.13</ele>
        <time>2014-07-06T10:15:04Z</time>
      </trkpt>
      <trkpt lat="41.579131748" lon="2.480400249">
        <ele>138.57</ele>
        <time>2014-07-06T10:15:09Z</time>
      </trkpt>
      <trkpt lat="41.579354874" lon="2.480316514">
        <ele>139.05</ele>
        <time>2014-07-06T10:15:17Z</time>
      </trkpt>
      <trkpt lat="41.579543383" lon="2.480238227">
        <ele>139.53</ele>
        <time>2014-07-06T10:15:26Z</time>
      </trkpt>
      <trkpt lat="41.579714206" lon="2.480252057">
        <ele>140.97</ele>
        <time>2014-07-06T10:15:34Z</time>
      </trkpt>
      <trkpt lat="41.579851837" lon="2.480158767">
        <ele>141.45</ele>
        <time>2014-07-06T10:15:41Z</time>
      </trkpt>
      <trkpt lat="41.579900200" lon="2.479990877">
        <ele>143.85</ele>
        <time>2014-07-06T10:15:48Z</time>
      </trkpt>
      <trkpt lat="41.579907660" lon="2.479788873">
        <ele>145.30</ele>
        <time>2014-07-06T10:15:56Z</time>
      </trkpt>
      <trkpt lat="41.579953174" lon="2.479541691">
        <ele>145.78</ele>
        <time>2014-07-06T10:16:04Z</time>
      </trkpt>
      <trkpt lat="41.580033305" lon="2.479346309">
        <ele>146.26</ele>
        <time>2014-07-06T10:16:12Z</time>
      </trkpt>
      <trkpt lat="41.580114945" lon="2.479135755">
        <ele>147.22</ele>
        <time>2014-07-06T10:16:20Z</time>
      </trkpt>
      <trkpt lat="41.580209325" lon="2.478912210">
        <ele>147.70</ele>
        <time>2014-07-06T10:16:29Z</time>
      </trkpt>
      <trkpt lat="41.580308483" lon="2.478712637">
        <ele>148.66</ele>
        <time>2014-07-06T10:16:37Z</time>
      </trkpt>
      <trkpt lat="41.580415436" lon="2.478470149">
        <ele>149.14</ele>
        <time>2014-07-06T10:16:46Z</time>
      </trkpt>
      <trkpt lat="41.580493472" lon="2.478225648">
        <ele>149.62</ele>
        <time>2014-07-06T10:16:54Z</time>
      </trkpt>
      <trkpt lat="41.580572932" lon="2.477989195">
        <ele>150.58</ele>
        <time>2014-07-06T10:17:02Z</time>
      </trkpt>
      <trkpt lat="41.580606460" lon="2.477816947">
        <ele>151.54</ele>
        <time>2014-07-06T10:17:09Z</time>
      </trkpt>
      <trkpt lat="41.580649291" lon="2.477610920">
        <ele>152.99</ele>
        <time>2014-07-06T10:17:16Z</time>
      </trkpt>
      <trkpt lat="41.580687429" lon="2.477386704">
        <ele>154.43</ele>
        <time>2014-07-06T10:17:23Z</time>
      </trkpt>
      <trkpt lat="41.580711233" lon="2.477165589">
        <ele>156.35</ele>
        <time>2014-07-06T10:17:31Z</time>
      </trkpt>
      <trkpt lat="41.580844087" lon="2.476995269">
        <ele>158.27</ele>
        <time>2014-07-06T10:17:40Z</time>
      </trkpt>
      <trkpt lat="41.581025471" lon="2.476963501">
        <ele>159.24</ele>
        <time>2014-07-06T10:17:48Z</time>
      </trkpt>
      <trkpt lat="41.581166622" lon="2.476965010">
        <ele>160.68</ele>
        <time>2014-07-06T10:17:55Z</time>
      </trkpt>
      <trkpt lat="41.581351778" lon="2.476986300">
        <ele>162.12</ele>
        <time>2014-07-06T10:18:03Z</time>
      </trkpt>
      <trkpt lat="41.581540539" lon="2.477070371">
        <ele>164.04</ele>
        <time>2014-07-06T10:18:12Z</time>
      </trkpt>
      <trkpt lat="41.581710105" lon="2.477140779">
        <ele>165.00</ele>
        <time>2014-07-06T10:18:20Z</time>
      </trkpt>
      <trkpt lat="41.581893752" lon="2.477199201">
        <ele>165.48</ele>
        <time>2014-07-06T10:18:29Z</time>
      </trkpt>
      <trkpt lat="41.581990312" lon="2.477216300">
        <ele>165.48</ele>
        <time>2014-07-06T10:18:34Z</time>
      </trkpt>
      <trkpt lat="41.582179575" lon="2.477217808">
        <ele>166.45</ele>
        <time>2014-07-06T10:18:44Z</time>
      </trkpt>
      <trkpt lat="41.582374454" lon="2.477245133">
        <ele>166.93</ele>
        <time>2014-07-06T10:18:52Z</time>
      </trkpt>
      <trkpt lat="41.582548714" lon="2.477260975">
        <ele>167.41</ele>
        <time>2014-07-06T10:18:59Z</time>
      </trkpt>
      <trkpt lat="41.582737475" lon="2.477245301">
        <ele>167.41</ele>
        <time>2014-07-06T10:19:07Z</time>
      </trkpt>
      <trkpt lat="41.582920033" lon="2.477234656">
        <ele>168.37</ele>
        <time>2014-07-06T10:19:15Z</time>
      </trkpt>
      <trkpt lat="41.583105273" lon="2.477242284">
        <ele>168.85</ele>
        <time>2014-07-06T10:19:23Z</time>
      </trkpt>
      <trkpt lat="41.583321190" lon="2.477259299">
        <ele>170.29</ele>
        <time>2014-07-06T10:19:33Z</time>
      </trkpt>
      <trkpt lat="41.583486565" lon="2.477272207">
        <ele>171.73</ele>
        <time>2014-07-06T10:19:41Z</time>
      </trkpt>
      <trkpt lat="41.583637272" lon="2.477301544">
        <ele>172.69</ele>
        <time>2014-07-06T10:19:49Z</time>
      </trkpt>
      <trkpt lat="41.583837097" lon="2.477306740">
        <ele>174.14</ele>
        <time>2014-07-06T10:19:58Z</time>
      </trkpt>
      <trkpt lat="41.584004986" lon="2.477322163">
        <ele>175.10</ele>
        <time>2014-07-06T10:20:05Z</time>
      </trkpt>
      <trkpt lat="41.584235824" lon="2.477336329">
        <ele>177.02</ele>
        <time>2014-07-06T10:20:15Z</time>
      </trkpt>
      <trkpt lat="41.584428440" lon="2.477344040">
        <ele>178.46</ele>
        <time>2014-07-06T10:20:24Z</time>
      </trkpt>
      <trkpt lat="41.584602700" lon="2.477259802">
        <ele>179.42</ele>
        <time>2014-07-06T10:20:32Z</time>
      </trkpt>
      <trkpt lat="41.584764470" lon="2.477153100">
        <ele>180.38</ele>
        <time>2014-07-06T10:20:40Z</time>
      </trkpt>
      <trkpt lat="41.584976784" lon="2.477049667">
        <ele>182.79</ele>
        <time>2014-07-06T10:20:50Z</time>
      </trkpt>
      <trkpt lat="41.585165461" lon="2.477021923">
        <ele>183.75</ele>
        <time>2014-07-06T10:20:59Z</time>
      </trkpt>
      <trkpt lat="41.585352796" lon="2.477040364">
        <ele>184.71</ele>
        <time>2014-07-06T10:21:08Z</time>
      </trkpt>
      <trkpt lat="41.585546921" lon="2.477113621">
        <ele>186.63</ele>
        <time>2014-07-06T10:21:17Z</time>
      </trkpt>
      <trkpt lat="41.585680277" lon="2.477256533">
        <ele>188.56</ele>
        <time>2014-07-06T10:21:25Z</time>
      </trkpt>
      <trkpt lat="41.585779770" lon="2.477453172">
        <ele>189.52</ele>
        <time>2014-07-06T10:21:33Z</time>
      </trkpt>
      <trkpt lat="41.585829056" lon="2.477603460">
        <ele>190.48</ele>
        <time>2014-07-06T10:21:40Z</time>
      </trkpt>
      <trkpt lat="41.585837522" lon="2.477626259">
        <ele>190.48</ele>
        <time>2014-07-06T10:21:41Z</time>
      </trkpt>
      <trkpt lat="41.585868367" lon="2.477686524">
        <ele>190.96</ele>
        <time>2014-07-06T10:21:44Z</time>
      </trkpt>
      <trkpt lat="41.585953276" lon="2.477876291">
        <ele>192.88</ele>
        <time>2014-07-06T10:21:52Z</time>
      </trkpt>
      <trkpt lat="41.585969117" lon="2.477904789">
        <ele>192.88</ele>
        <time>2014-07-06T10:21:53Z</time>
      </trkpt>
      <trkpt lat="41.586131307" lon="2.478083072">
        <ele>193.84</ele>
        <time>2014-07-06T10:22:02Z</time>
      </trkpt>
      <trkpt lat="41.586252929" lon="2.478142416">
        <ele>194.32</ele>
        <time>2014-07-06T10:22:10Z</time>
      </trkpt>
      <trkpt lat="41.586284277" lon="2.478157001">
        <ele>194.80</ele>
        <time>2014-07-06T10:22:12Z</time>
      </trkpt>
      <trkpt lat="41.586326187" lon="2.478211148">
        <ele>194.80</ele>
        <time>2014-07-06T10:22:18Z</time>
      </trkpt>
      <trkpt lat="41.586349153" lon="2.478239311">
        <ele>195.28</ele>
        <time>2014-07-06T10:22:32Z</time>
      </trkpt>
      <trkpt lat="41.586361810" lon="2.478258086">
        <ele>195.28</ele>
        <time>2014-07-06T10:22:43Z</time>
      </trkpt>
      <trkpt lat="41.586382932" lon="2.478263535">
        <ele>195.28</ele>
        <time>2014-07-06T10:22:54Z</time>
      </trkpt>
      <trkpt lat="41.586387626" lon="2.478276946">
        <ele>195.28</ele>
        <time>2014-07-06T10:23:05Z</time>
      </trkpt>
      <trkpt lat="41.586409838" lon="2.478263618">
        <ele>195.28</ele>
        <time>2014-07-06T10:23:11Z</time>
      </trkpt>
      <trkpt lat="41.586415370" lon="2.478275605">
        <ele>195.28</ele>
        <time>2014-07-06T10:23:17Z</time>
      </trkpt>
      <trkpt lat="41.586427188" lon="2.478285998">
        <ele>194.80</ele>
        <time>2014-07-06T10:23:32Z</time>
      </trkpt>
      <trkpt lat="41.586459459" lon="2.478255153">
        <ele>194.80</ele>
        <time>2014-07-06T10:23:54Z</time>
      </trkpt>
      <trkpt lat="41.586437666" lon="2.478266384">
        <ele>194.80</ele>
        <time>2014-07-06T10:24:13Z</time>
      </trkpt>
      <trkpt lat="41.586431044" lon="2.478258086">
        <ele>194.80</ele>
        <time>2014-07-06T10:24:28Z</time>
      </trkpt>
      <trkpt lat="41.586415454" lon="2.478282562">
        <ele>194.80</ele>
        <time>2014-07-06T10:24:47Z</time>
      </trkpt>
      <trkpt lat="41.586436576" lon="2.478254147">
        <ele>194.80</ele>
        <time>2014-07-06T10:25:07Z</time>
      </trkpt>
      <trkpt lat="41.586434984" lon="2.478261774">
        <ele>194.80</ele>
        <time>2014-07-06T10:25:25Z</time>
      </trkpt>
      <trkpt lat="41.586435319" lon="2.478241323">
        <ele>194.80</ele>
        <time>2014-07-06T10:25:34Z</time>
      </trkpt>
      <trkpt lat="41.586456441" lon="2.478242496">
        <ele>194.80</ele>
        <time>2014-07-06T10:25:44Z</time>
      </trkpt>
      <trkpt lat="41.586448059" lon="2.478249118">
        <ele>194.80</ele>
        <time>2014-07-06T10:25:48Z</time>
      </trkpt>
      <trkpt lat="41.586550905" lon="2.478276611">
        <ele>194.80</ele>
        <time>2014-07-06T10:25:57Z</time>
      </trkpt>
      <trkpt lat="41.586735894" lon="2.478325812">
        <ele>195.28</ele>
        <time>2014-07-06T10:26:06Z</time>
      </trkpt>
      <trkpt lat="41.586872854" lon="2.478419773">
        <ele>195.28</ele>
        <time>2014-07-06T10:26:13Z</time>
      </trkpt>
      <trkpt lat="41.587027836" lon="2.478554471">
        <ele>195.77</ele>
        <time>2014-07-06T10:26:21Z</time>
      </trkpt>
      <trkpt lat="41.587135795" lon="2.478687743">
        <ele>196.73</ele>
        <time>2014-07-06T10:26:28Z</time>
      </trkpt>
      <trkpt lat="41.587255153" lon="2.478897877">
        <ele>196.73</ele>
        <time>2014-07-06T10:26:37Z</time>
      </trkpt>
      <trkpt lat="41.587367303" lon="2.479130391">
        <ele>197.69</ele>
        <time>2014-07-06T10:26:45Z</time>
      </trkpt>
      <trkpt lat="41.587434945" lon="2.479241954">
        <ele>198.17</ele>
        <time>2014-07-06T10:26:52Z</time>
      </trkpt>
      <trkpt lat="41.587514237" lon="2.479375813">
        <ele>199.13</ele>
        <time>2014-07-06T10:26:59Z</time>
      </trkpt>
      <trkpt lat="41.587599901" lon="2.479543870">
        <ele>200.09</ele>
        <time>2014-07-06T10:27:07Z</time>
      </trkpt>
      <trkpt lat="41.587734346" lon="2.479712263">
        <ele>201.05</ele>
        <time>2014-07-06T10:27:16Z</time>
      </trkpt>
      <trkpt lat="41.587930483" lon="2.479787365">
        <ele>201.53</ele>
        <time>2014-07-06T10:27:24Z</time>
      </trkpt>
      <trkpt lat="41.588075574" lon="2.479853498">
        <ele>202.01</ele>
        <time>2014-07-06T10:27:31Z</time>
      </trkpt>
      <trkpt lat="41.588275650" lon="2.479931701">
        <ele>202.49</ele>
        <time>2014-07-06T10:27:39Z</time>
      </trkpt>
      <trkpt lat="41.588505565" lon="2.480023064">
        <ele>203.94</ele>
        <time>2014-07-06T10:27:49Z</time>
      </trkpt>
      <trkpt lat="41.588671527" lon="2.480093975">
        <ele>205.38</ele>
        <time>2014-07-06T10:27:57Z</time>
      </trkpt>
      <trkpt lat="41.588860036" lon="2.480180644">
        <ele>206.82</ele>
        <time>2014-07-06T10:28:06Z</time>
      </trkpt>
      <trkpt lat="41.589010491" lon="2.480253482">
        <ele>207.30</ele>
        <time>2014-07-06T10:28:14Z</time>
      </trkpt>
      <trkpt lat="41.589144853" lon="2.480354652">
        <ele>208.74</ele>
        <time>2014-07-06T10:28:21Z</time>
      </trkpt>
      <trkpt lat="41.589254153" lon="2.480414247">
        <ele>209.70</ele>
        <time>2014-07-06T10:28:27Z</time>
      </trkpt>
      <trkpt lat="41.589410978" lon="2.480551291">
        <ele>211.63</ele>
        <time>2014-07-06T10:28:36Z</time>
      </trkpt>
      <trkpt lat="41.589518518" lon="2.480680121">
        <ele>211.63</ele>
        <time>2014-07-06T10:28:43Z</time>
      </trkpt>
      <trkpt lat="41.589623543" lon="2.480867038">
        <ele>213.07</ele>
        <time>2014-07-06T10:28:50Z</time>
      </trkpt>
      <trkpt lat="41.589726557" lon="2.481042722">
        <ele>213.55</ele>
        <time>2014-07-06T10:28:57Z</time>
      </trkpt>
      <trkpt lat="41.589858404" lon="2.481259981">
        <ele>214.51</ele>
        <time>2014-07-06T10:29:05Z</time>
      </trkpt>
      <trkpt lat="41.589984552" lon="2.481433319">
        <ele>215.47</ele>
        <time>2014-07-06T10:29:13Z</time>
      </trkpt>
      <trkpt lat="41.590133415" lon="2.481616967">
        <ele>215.95</ele>
        <time>2014-07-06T10:29:21Z</time>
      </trkpt>
      <trkpt lat="41.590280936" lon="2.481730374">
        <ele>216.91</ele>
        <time>2014-07-06T10:29:28Z</time>
      </trkpt>
      <trkpt lat="41.590363079" lon="2.481673712">
        <ele>218.36</ele>
        <time>2014-07-06T10:29:33Z</time>
      </trkpt>
      <trkpt lat="41.590357044" lon="2.481479587">
        <ele>220.28</ele>
        <time>2014-07-06T10:29:42Z</time>
      </trkpt>
      <trkpt lat="41.590324438" lon="2.481304070">
        <ele>219.80</ele>
        <time>2014-07-06T10:29:49Z</time>
      </trkpt>
      <trkpt lat="41.590334999" lon="2.481154788">
        <ele>221.24</ele>
        <time>2014-07-06T10:29:55Z</time>
      </trkpt>
      <trkpt lat="41.590432649" lon="2.481183035">
        <ele>222.20</ele>
        <time>2014-07-06T10:30:02Z</time>
      </trkpt>
      <trkpt lat="41.590498698" lon="2.481391074">
        <ele>224.12</ele>
        <time>2014-07-06T10:30:10Z</time>
      </trkpt>
      <trkpt lat="41.590553516" lon="2.481506158">
        <ele>225.57</ele>
        <time>2014-07-06T10:30:16Z</time>
      </trkpt>
      <trkpt lat="41.590670275" lon="2.481457794">
        <ele>226.53</ele>
        <time>2014-07-06T10:30:24Z</time>
      </trkpt>
      <trkpt lat="41.590650913" lon="2.481375400">
        <ele>227.01</ele>
        <time>2014-07-06T10:30:29Z</time>
      </trkpt>
      <trkpt lat="41.590643453" lon="2.481336340">
        <ele>227.49</ele>
        <time>2014-07-06T10:30:31Z</time>
      </trkpt>
      <trkpt lat="41.590650410" lon="2.481296359">
        <ele>227.49</ele>
        <time>2014-07-06T10:30:33Z</time>
      </trkpt>
      <trkpt lat="41.590690476" lon="2.481259646">
        <ele>228.45</ele>
        <time>2014-07-06T10:30:37Z</time>
      </trkpt>
      <trkpt lat="41.590830202" lon="2.481242966">
        <ele>229.41</ele>
        <time>2014-07-06T10:30:46Z</time>
      </trkpt>
      <trkpt lat="41.590945789" lon="2.481248414">
        <ele>231.33</ele>
        <time>2014-07-06T10:30:53Z</time>
      </trkpt>
      <trkpt lat="41.591121557" lon="2.481228382">
        <ele>232.78</ele>
        <time>2014-07-06T10:31:02Z</time>
      </trkpt>
      <trkpt lat="41.591260361" lon="2.481186137">
        <ele>233.74</ele>
        <time>2014-07-06T10:31:10Z</time>
      </trkpt>
      <trkpt lat="41.591274527" lon="2.481172977">
        <ele>234.22</ele>
        <time>2014-07-06T10:31:11Z</time>
      </trkpt>
      <trkpt lat="41.591242759" lon="2.481058397">
        <ele>234.70</ele>
        <time>2014-07-06T10:31:18Z</time>
      </trkpt>
      <trkpt lat="41.591160198" lon="2.481032413">
        <ele>235.66</ele>
        <time>2014-07-06T10:31:23Z</time>
      </trkpt>
      <trkpt lat="41.591007899" lon="2.480990084">
        <ele>237.10</ele>
        <time>2014-07-06T10:31:32Z</time>
      </trkpt>
      <trkpt lat="41.590874710" lon="2.480951863">
        <ele>239.02</ele>
        <time>2014-07-06T10:31:40Z</time>
      </trkpt>
      <trkpt lat="41.590744204" lon="2.480887322">
        <ele>239.99</ele>
        <time>2014-07-06T10:31:47Z</time>
      </trkpt>
      <trkpt lat="41.590648650" lon="2.480772238">
        <ele>241.43</ele>
        <time>2014-07-06T10:31:55Z</time>
      </trkpt>
      <trkpt lat="41.590554605" lon="2.480534025">
        <ele>243.35</ele>
        <time>2014-07-06T10:32:05Z</time>
      </trkpt>
      <trkpt lat="41.590473301" lon="2.480362447">
        <ele>244.31</ele>
        <time>2014-07-06T10:32:13Z</time>
      </trkpt>
      <trkpt lat="41.590377663" lon="2.480208974">
        <ele>245.27</ele>
        <time>2014-07-06T10:32:20Z</time>
      </trkpt>
      <trkpt lat="41.590271213" lon="2.480075199">
        <ele>246.72</ele>
        <time>2014-07-06T10:32:27Z</time>
      </trkpt>
      <trkpt lat="41.590232405" lon="2.479957350">
        <ele>247.20</ele>
        <time>2014-07-06T10:32:32Z</time>
      </trkpt>
      <trkpt lat="41.590315469" lon="2.479938490">
        <ele>247.68</ele>
        <time>2014-07-06T10:32:38Z</time>
      </trkpt>
      <trkpt lat="41.590331227" lon="2.479956260">
        <ele>248.16</ele>
        <time>2014-07-06T10:32:39Z</time>
      </trkpt>
      <trkpt lat="41.590452430" lon="2.480114343">
        <ele>249.12</ele>
        <time>2014-07-06T10:32:48Z</time>
      </trkpt>
      <trkpt lat="41.590586708" lon="2.480259517">
        <ele>250.08</ele>
        <time>2014-07-06T10:32:57Z</time>
      </trkpt>
      <trkpt lat="41.590725345" lon="2.480379379">
        <ele>251.04</ele>
        <time>2014-07-06T10:33:05Z</time>
      </trkpt>
      <trkpt lat="41.590869178" lon="2.480469484">
        <ele>252.00</ele>
        <time>2014-07-06T10:33:13Z</time>
      </trkpt>
      <trkpt lat="41.591025333" lon="2.480526984">
        <ele>252.96</ele>
        <time>2014-07-06T10:33:21Z</time>
      </trkpt>
      <trkpt lat="41.591201185" lon="2.480522709">
        <ele>253.44</ele>
        <time>2014-07-06T10:33:29Z</time>
      </trkpt>
      <trkpt lat="41.591403692" lon="2.480450625">
        <ele>254.89</ele>
        <time>2014-07-06T10:33:38Z</time>
      </trkpt>
      <trkpt lat="41.591619610" lon="2.480319783">
        <ele>255.85</ele>
        <time>2014-07-06T10:33:48Z</time>
      </trkpt>
      <trkpt lat="41.591746344" lon="2.480273515">
        <ele>256.81</ele>
        <time>2014-07-06T10:33:55Z</time>
      </trkpt>
      <trkpt lat="41.591919263" lon="2.480276281">
        <ele>258.25</ele>
        <time>2014-07-06T10:34:03Z</time>
      </trkpt>
      <trkpt lat="41.591990844" lon="2.480331769">
        <ele>258.73</ele>
        <time>2014-07-06T10:34:07Z</time>
      </trkpt>
      <trkpt lat="41.592051194" lon="2.480590603">
        <ele>259.69</ele>
        <time>2014-07-06T10:34:17Z</time>
      </trkpt>
      <trkpt lat="41.592035687" lon="2.480676768">
        <ele>259.69</ele>
        <time>2014-07-06T10:34:20Z</time>
      </trkpt>
      <trkpt lat="41.592046416" lon="2.480874330">
        <ele>260.65</ele>
        <time>2014-07-06T10:34:26Z</time>
      </trkpt>
      <trkpt lat="41.592107437" lon="2.481068790">
        <ele>261.14</ele>
        <time>2014-07-06T10:34:33Z</time>
      </trkpt>
      <trkpt lat="41.592088326" lon="2.481249085">
        <ele>261.62</ele>
        <time>2014-07-06T10:34:40Z</time>
      </trkpt>
      <trkpt lat="41.592055217" lon="2.481484868">
        <ele>262.58</ele>
        <time>2014-07-06T10:34:47Z</time>
      </trkpt>
      <trkpt lat="41.592086398" lon="2.481684860">
        <ele>263.06</ele>
        <time>2014-07-06T10:34:53Z</time>
      </trkpt>
      <trkpt lat="41.592193686" lon="2.481746970">
        <ele>264.02</ele>
        <time>2014-07-06T10:34:59Z</time>
      </trkpt>
      <trkpt lat="41.592216653" lon="2.481625768">
        <ele>264.98</ele>
        <time>2014-07-06T10:35:04Z</time>
      </trkpt>
      <trkpt lat="41.592213384" lon="2.481467853">
        <ele>265.94</ele>
        <time>2014-07-06T10:35:10Z</time>
      </trkpt>
      <trkpt lat="41.592272895" lon="2.481207511">
        <ele>267.86</ele>
        <time>2014-07-06T10:35:20Z</time>
      </trkpt>
      <trkpt lat="41.592329473" lon="2.480967788">
        <ele>268.35</ele>
        <time>2014-07-06T10:35:28Z</time>
      </trkpt>
      <trkpt lat="41.592368114" lon="2.480724545">
        <ele>269.79</ele>
        <time>2014-07-06T10:35:36Z</time>
      </trkpt>
      <trkpt lat="41.592428966" lon="2.480525643">
        <ele>271.23</ele>
        <time>2014-07-06T10:35:44Z</time>
      </trkpt>
      <trkpt lat="41.592414298" lon="2.480304780">
        <ele>272.19</ele>
        <time>2014-07-06T10:35:52Z</time>
      </trkpt>
      <trkpt lat="41.592338693" lon="2.480122389">
        <ele>274.11</ele>
        <time>2014-07-06T10:36:00Z</time>
      </trkpt>
      <trkpt lat="41.592289994" lon="2.479945280">
        <ele>274.59</ele>
        <time>2014-07-06T10:36:07Z</time>
      </trkpt>
      <trkpt lat="41.592214222" lon="2.479820473">
        <ele>275.56</ele>
        <time>2014-07-06T10:36:13Z</time>
      </trkpt>
      <trkpt lat="41.592033424" lon="2.479803039">
        <ele>277.00</ele>
        <time>2014-07-06T10:36:22Z</time>
      </trkpt>
      <trkpt lat="41.591870564" lon="2.479817540">
        <ele>277.96</ele>
        <time>2014-07-06T10:36:30Z</time>
      </trkpt>
      <trkpt lat="41.591659675" lon="2.479825419">
        <ele>278.92</ele>
        <time>2014-07-06T10:36:40Z</time>
      </trkpt>
      <trkpt lat="41.591520787" lon="2.479766159">
        <ele>279.88</ele>
        <time>2014-07-06T10:36:47Z</time>
      </trkpt>
      <trkpt lat="41.591367315" lon="2.479701115">
        <ele>281.32</ele>
        <time>2014-07-06T10:36:54Z</time>
      </trkpt>
      <trkpt lat="41.591222643" lon="2.479560634">
        <ele>281.80</ele>
        <time>2014-07-06T10:37:02Z</time>
      </trkpt>
      <trkpt lat="41.591080318" lon="2.479396265">
        <ele>283.25</ele>
        <time>2014-07-06T10:37:10Z</time>
      </trkpt>
      <trkpt lat="41.590979400" lon="2.479244888">
        <ele>283.73</ele>
        <time>2014-07-06T10:37:17Z</time>
      </trkpt>
      <trkpt lat="41.590936066" lon="2.479074065">
        <ele>284.69</ele>
        <time>2014-07-06T10:37:24Z</time>
      </trkpt>
      <trkpt lat="41.590946711" lon="2.478862003">
        <ele>285.65</ele>
        <time>2014-07-06T10:37:32Z</time>
      </trkpt>
      <trkpt lat="41.590968671" lon="2.478623873">
        <ele>286.61</ele>
        <time>2014-07-06T10:37:41Z</time>
      </trkpt>
      <trkpt lat="41.591016700" lon="2.478431257">
        <ele>287.57</ele>
        <time>2014-07-06T10:37:48Z</time>
      </trkpt>
      <trkpt lat="41.591070847" lon="2.478199916">
        <ele>288.53</ele>
        <time>2014-07-06T10:37:56Z</time>
      </trkpt>
      <trkpt lat="41.591144524" lon="2.478011826">
        <ele>289.01</ele>
        <time>2014-07-06T10:38:04Z</time>
      </trkpt>
      <trkpt lat="41.591193977" lon="2.477945358">
        <ele>289.97</ele>
        <time>2014-07-06T10:38:08Z</time>
      </trkpt>
      <trkpt lat="41.591263127" lon="2.477901353">
        <ele>289.97</ele>
        <time>2014-07-06T10:38:12Z</time>
      </trkpt>
      <trkpt lat="41.591301349" lon="2.477863467">
        <ele>290.46</ele>
        <time>2014-07-06T10:38:14Z</time>
      </trkpt>
      <trkpt lat="41.591331524" lon="2.477600610">
        <ele>291.90</ele>
        <time>2014-07-06T10:38:23Z</time>
      </trkpt>
      <trkpt lat="41.591290872" lon="2.477523916">
        <ele>291.90</ele>
        <time>2014-07-06T10:38:27Z</time>
      </trkpt>
      <trkpt lat="41.591279975" lon="2.477450239">
        <ele>292.86</ele>
        <time>2014-07-06T10:38:31Z</time>
      </trkpt>
      <trkpt lat="41.591307719" lon="2.477295844">
        <ele>293.82</ele>
        <time>2014-07-06T10:38:37Z</time>
      </trkpt>
      <trkpt lat="41.591342420" lon="2.477185706">
        <ele>294.78</ele>
        <time>2014-07-06T10:38:42Z</time>
      </trkpt>
      <trkpt lat="41.591420372" lon="2.477125524">
        <ele>295.26</ele>
        <time>2014-07-06T10:38:49Z</time>
      </trkpt>
      <trkpt lat="41.591423976" lon="2.477149999">
        <ele>295.74</ele>
        <time>2014-07-06T10:38:51Z</time>
      </trkpt>
      <trkpt lat="41.591375110" lon="2.477263825">
        <ele>297.67</ele>
        <time>2014-07-06T10:38:57Z</time>
      </trkpt>
      <trkpt lat="41.591457001" lon="2.477506314">
        <ele>297.67</ele>
        <time>2014-07-06T10:39:05Z</time>
      </trkpt>
      <trkpt lat="41.591523134" lon="2.477732541">
        <ele>299.11</ele>
        <time>2014-07-06T10:39:15Z</time>
      </trkpt>
      <trkpt lat="41.591520536" lon="2.477883080">
        <ele>299.59</ele>
        <time>2014-07-06T10:39:22Z</time>
      </trkpt>
      <trkpt lat="41.591434537" lon="2.478075361">
        <ele>300.07</ele>
        <time>2014-07-06T10:39:30Z</time>
      </trkpt>
      <trkpt lat="41.591343845" lon="2.478297733">
        <ele>301.99</ele>
        <time>2014-07-06T10:39:39Z</time>
      </trkpt>
      <trkpt lat="41.591290369" lon="2.478563104">
        <ele>302.95</ele>
        <time>2014-07-06T10:39:48Z</time>
      </trkpt>
      <trkpt lat="41.591423976" lon="2.478741387">
        <ele>304.88</ele>
        <time>2014-07-06T10:39:57Z</time>
      </trkpt>
      <trkpt lat="41.591603768" lon="2.478793271">
        <ele>305.84</ele>
        <time>2014-07-06T10:40:06Z</time>
      </trkpt>
      <trkpt lat="41.591802671" lon="2.478777262">
        <ele>307.28</ele>
        <time>2014-07-06T10:40:15Z</time>
      </trkpt>
      <trkpt lat="41.591944995" lon="2.478795534">
        <ele>308.24</ele>
        <time>2014-07-06T10:40:22Z</time>
      </trkpt>
      <trkpt lat="41.592117662" lon="2.478827134">
        <ele>309.20</ele>
        <time>2014-07-06T10:40:30Z</time>
      </trkpt>
      <trkpt lat="41.592286474" lon="2.478805928">
        <ele>310.16</ele>
        <time>2014-07-06T10:40:37Z</time>
      </trkpt>
      <trkpt lat="41.592499542" lon="2.478779525">
        <ele>311.12</ele>
        <time>2014-07-06T10:40:47Z</time>
      </trkpt>
      <trkpt lat="41.592653266" lon="2.478806431">
        <ele>312.09</ele>
        <time>2014-07-06T10:40:55Z</time>
      </trkpt>
      <trkpt lat="41.592765919" lon="2.478954455">
        <ele>313.05</ele>
        <time>2014-07-06T10:41:02Z</time>
      </trkpt>
      <trkpt lat="41.592855605" lon="2.479104323">
        <ele>313.53</ele>
        <time>2014-07-06T10:41:09Z</time>
      </trkpt>
      <trkpt lat="41.592908663" lon="2.479261233">
        <ele>314.01</ele>
        <time>2014-07-06T10:41:16Z</time>
      </trkpt>
      <trkpt lat="41.592958535" lon="2.479449574">
        <ele>315.45</ele>
        <time>2014-07-06T10:41:23Z</time>
      </trkpt>
      <trkpt lat="41.593024920" lon="2.479649650">
        <ele>315.93</ele>
        <time>2014-07-06T10:41:30Z</time>
      </trkpt>
      <trkpt lat="41.593136483" lon="2.479792729">
        <ele>316.41</ele>
        <time>2014-07-06T10:41:37Z</time>
      </trkpt>
      <trkpt lat="41.593279227" lon="2.479888115">
        <ele>317.37</ele>
        <time>2014-07-06T10:41:43Z</time>
      </trkpt>
      <trkpt lat="41.593470502" lon="2.479938407">
        <ele>318.81</ele>
        <time>2014-07-06T10:41:52Z</time>
      </trkpt>
      <trkpt lat="41.593665549" lon="2.479943939">
        <ele>320.26</ele>
        <time>2014-07-06T10:42:02Z</time>
      </trkpt>
      <trkpt lat="41.593836958" lon="2.479988027">
        <ele>321.22</ele>
        <time>2014-07-06T10:42:10Z</time>
      </trkpt>
      <trkpt lat="41.594032760" lon="2.480101351">
        <ele>322.66</ele>
        <time>2014-07-06T10:42:19Z</time>
      </trkpt>
      <trkpt lat="41.594240799" lon="2.480091879">
        <ele>323.62</ele>
        <time>2014-07-06T10:42:28Z</time>
      </trkpt>
      <trkpt lat="41.594428637" lon="2.480033541">
        <ele>325.06</ele>
        <time>2014-07-06T10:42:37Z</time>
      </trkpt>
      <trkpt lat="41.594609435" lon="2.479994901">
        <ele>326.02</ele>
        <time>2014-07-06T10:42:45Z</time>
      </trkpt>
      <trkpt lat="41.594788807" lon="2.479971934">
        <ele>327.95</ele>
        <time>2014-07-06T10:42:54Z</time>
      </trkpt>
      <trkpt lat="41.594808840" lon="2.479964893">
        <ele>327.95</ele>
        <time>2014-07-06T10:42:55Z</time>
      </trkpt>
      <trkpt lat="41.594829711" lon="2.479857437">
        <ele>328.91</ele>
        <time>2014-07-06T10:43:01Z</time>
      </trkpt>
      <trkpt lat="41.594745557" lon="2.479825251">
        <ele>330.35</ele>
        <time>2014-07-06T10:43:07Z</time>
      </trkpt>
      <trkpt lat="41.594655619" lon="2.479852911">
        <ele>330.83</ele>
        <time>2014-07-06T10:43:12Z</time>
      </trkpt>
      <trkpt lat="41.594636089" lon="2.479858779">
        <ele>331.31</ele>
        <time>2014-07-06T10:43:13Z</time>
      </trkpt>
      <trkpt lat="41.594446826" lon="2.479878727">
        <ele>332.27</ele>
        <time>2014-07-06T10:43:22Z</time>
      </trkpt>
      <trkpt lat="41.594301316" lon="2.479896665">
        <ele>333.71</ele>
        <time>2014-07-06T10:43:29Z</time>
      </trkpt>
      <trkpt lat="41.594126218" lon="2.479888199">
        <ele>334.20</ele>
        <time>2014-07-06T10:43:36Z</time>
      </trkpt>
      <trkpt lat="41.594104593" lon="2.479881242">
        <ele>334.68</ele>
        <time>2014-07-06T10:43:37Z</time>
      </trkpt>
      <trkpt lat="41.594008117" lon="2.479714191">
        <ele>336.60</ele>
        <time>2014-07-06T10:43:46Z</time>
      </trkpt>
      <trkpt lat="41.593930501" lon="2.479637161">
        <ele>337.08</ele>
        <time>2014-07-06T10:43:51Z</time>
      </trkpt>
      <trkpt lat="41.593789852" lon="2.479534231">
        <ele>338.04</ele>
        <time>2014-07-06T10:43:58Z</time>
      </trkpt>
      <trkpt lat="41.593664375" lon="2.479484946">
        <ele>338.52</ele>
        <time>2014-07-06T10:44:05Z</time>
      </trkpt>
      <trkpt lat="41.593491876" lon="2.479402635">
        <ele>339.48</ele>
        <time>2014-07-06T10:44:13Z</time>
      </trkpt>
      <trkpt lat="41.593378636" lon="2.479177414">
        <ele>339.96</ele>
        <time>2014-07-06T10:44:21Z</time>
      </trkpt>
      <trkpt lat="41.593315520" lon="2.478972895">
        <ele>339.96</ele>
        <time>2014-07-06T10:44:28Z</time>
      </trkpt>
      <trkpt lat="41.593220972" lon="2.478688413">
        <ele>341.41</ele>
        <time>2014-07-06T10:44:37Z</time>
      </trkpt>
      <trkpt lat="41.593187361" lon="2.478447601">
        <ele>342.37</ele>
        <time>2014-07-06T10:44:44Z</time>
      </trkpt>
      <trkpt lat="41.593081917" lon="2.478270408">
        <ele>343.33</ele>
        <time>2014-07-06T10:44:51Z</time>
      </trkpt>
      <trkpt lat="41.592871363" lon="2.478076032">
        <ele>344.29</ele>
        <time>2014-07-06T10:45:01Z</time>
      </trkpt>
      <trkpt lat="41.592740186" lon="2.477997158">
        <ele>345.25</ele>
        <time>2014-07-06T10:45:07Z</time>
      </trkpt>
      <trkpt lat="41.592709006" lon="2.477847038">
        <ele>345.25</ele>
        <time>2014-07-06T10:45:12Z</time>
      </trkpt>
      <trkpt lat="41.592730883" lon="2.477599101">
        <ele>346.21</ele>
        <time>2014-07-06T10:45:20Z</time>
      </trkpt>
      <trkpt lat="41.592760554" lon="2.477401205">
        <ele>348.13</ele>
        <time>2014-07-06T10:45:27Z</time>
      </trkpt>
      <trkpt lat="41.592869184" lon="2.477141952">
        <ele>349.10</ele>
        <time>2014-07-06T10:45:36Z</time>
      </trkpt>
      <trkpt lat="41.592983262" lon="2.476956461">
        <ele>350.06</ele>
        <time>2014-07-06T10:45:43Z</time>
      </trkpt>
      <trkpt lat="41.592986698" lon="2.476742722">
        <ele>351.98</ele>
        <time>2014-07-06T10:45:50Z</time>
      </trkpt>
      <trkpt lat="41.592977143" lon="2.476514399">
        <ele>351.98</ele>
        <time>2014-07-06T10:45:57Z</time>
      </trkpt>
      <trkpt lat="41.592972198" lon="2.476299822">
        <ele>353.42</ele>
        <time>2014-07-06T10:46:04Z</time>
      </trkpt>
      <trkpt lat="41.592955015" lon="2.476125647">
        <ele>353.90</ele>
        <time>2014-07-06T10:46:10Z</time>
      </trkpt>
      <trkpt lat="41.592939005" lon="2.475910315">
        <ele>355.83</ele>
        <time>2014-07-06T10:46:18Z</time>
      </trkpt>
      <trkpt lat="41.592877817" lon="2.475727171">
        <ele>355.83</ele>
        <time>2014-07-06T10:46:24Z</time>
      </trkpt>
      <trkpt lat="41.592739684" lon="2.475547798">
        <ele>356.31</ele>
        <time>2014-07-06T10:46:31Z</time>
      </trkpt>
      <trkpt lat="41.592655278" lon="2.475366581">
        <ele>357.27</ele>
        <time>2014-07-06T10:46:37Z</time>
      </trkpt>
      <trkpt lat="41.592505242" lon="2.475135325">
        <ele>357.75</ele>
        <time>2014-07-06T10:46:45Z</time>
      </trkpt>
      <trkpt lat="41.592390661" lon="2.474918652">
        <ele>358.71</ele>
        <time>2014-07-06T10:46:52Z</time>
      </trkpt>
      <trkpt lat="41.592351685" lon="2.474696364">
        <ele>358.71</ele>
        <time>2014-07-06T10:46:59Z</time>
      </trkpt>
      <trkpt lat="41.592298209" lon="2.474509699">
        <ele>358.71</ele>
        <time>2014-07-06T10:47:05Z</time>
      </trkpt>
      <trkpt lat="41.592186310" lon="2.474226726">
        <ele>357.75</ele>
        <time>2014-07-06T10:47:12Z</time>
      </trkpt>
      <trkpt lat="41.592108610" lon="2.473923301">
        <ele>356.79</ele>
        <time>2014-07-06T10:47:19Z</time>
      </trkpt>
      <trkpt lat="41.592060414" lon="2.473699421">
        <ele>356.31</ele>
        <time>2014-07-06T10:47:23Z</time>
      </trkpt>
      <trkpt lat="41.592008698" lon="2.473168930">
        <ele>355.34</ele>
        <time>2014-07-06T10:47:32Z</time>
      </trkpt>
      <trkpt lat="41.591964357" lon="2.472865589">
        <ele>354.86</ele>
        <time>2014-07-06T10:47:39Z</time>
      </trkpt>
      <trkpt lat="41.591940385" lon="2.472597284">
        <ele>354.86</ele>
        <time>2014-07-06T10:47:47Z</time>
      </trkpt>
      <trkpt lat="41.591931668" lon="2.472483374">
        <ele>354.86</ele>
        <time>2014-07-06T10:47:54Z</time>
      </trkpt>
      <trkpt lat="41.591910043" lon="2.472372566">
        <ele>355.34</ele>
        <time>2014-07-06T10:48:13Z</time>
      </trkpt>
      <trkpt lat="41.591908031" lon="2.472365692">
        <ele>354.86</ele>
        <time>2014-07-06T10:48:28Z</time>
      </trkpt>
      <trkpt lat="41.591914066" lon="2.472349851">
        <ele>354.86</ele>
        <time>2014-07-06T10:48:32Z</time>
      </trkpt>
      <trkpt lat="41.591960250" lon="2.472216997">
        <ele>354.38</ele>
        <time>2014-07-06T10:48:40Z</time>
      </trkpt>
      <trkpt lat="41.592059073" lon="2.472206939">
        <ele>354.38</ele>
        <time>2014-07-06T10:48:47Z</time>
      </trkpt>
      <trkpt lat="41.592257054" lon="2.472198306">
        <ele>353.90</ele>
        <time>2014-07-06T10:48:56Z</time>
      </trkpt>
      <trkpt lat="41.592463416" lon="2.472185314">
        <ele>353.42</ele>
        <time>2014-07-06T10:49:06Z</time>
      </trkpt>
      <trkpt lat="41.592672544" lon="2.472194953">
        <ele>353.42</ele>
        <time>2014-07-06T10:49:15Z</time>
      </trkpt>
      <trkpt lat="41.592948896" lon="2.472268714">
        <ele>354.86</ele>
        <time>2014-07-06T10:49:25Z</time>
      </trkpt>
      <trkpt lat="41.593162970" lon="2.472351108">
        <ele>354.86</ele>
        <time>2014-07-06T10:49:33Z</time>
      </trkpt>
      <trkpt lat="41.593334799" lon="2.472561410">
        <ele>354.86</ele>
        <time>2014-07-06T10:49:41Z</time>
      </trkpt>
      <trkpt lat="41.593556332" lon="2.472847400">
        <ele>354.86</ele>
        <time>2014-07-06T10:49:52Z</time>
      </trkpt>
      <trkpt lat="41.593711398" lon="2.472954102">
        <ele>354.86</ele>
        <time>2014-07-06T10:50:00Z</time>
      </trkpt>
      <trkpt lat="41.593904014" lon="2.472969692">
        <ele>353.42</ele>
        <time>2014-07-06T10:50:06Z</time>
      </trkpt>
      <trkpt lat="41.594058660" lon="2.473109251">
        <ele>353.42</ele>
        <time>2014-07-06T10:50:10Z</time>
      </trkpt>
      <trkpt lat="41.594175084" lon="2.473269932">
        <ele>352.94</ele>
        <time>2014-07-06T10:50:13Z</time>
      </trkpt>
      <trkpt lat="41.594314056" lon="2.473496998">
        <ele>352.46</ele>
        <time>2014-07-06T10:50:17Z</time>
      </trkpt>
      <trkpt lat="41.594562915" lon="2.473700762">
        <ele>351.50</ele>
        <time>2014-07-06T10:50:23Z</time>
      </trkpt>
      <trkpt lat="41.594645225" lon="2.473728506">
        <ele>351.50</ele>
        <time>2014-07-06T10:50:25Z</time>
      </trkpt>
      <trkpt lat="41.594906070" lon="2.473894049">
        <ele>351.50</ele>
        <time>2014-07-06T10:50:33Z</time>
      </trkpt>
      <trkpt lat="41.595029284" lon="2.473985914">
        <ele>352.94</ele>
        <time>2014-07-06T10:50:38Z</time>
      </trkpt>
      <trkpt lat="41.595074714" lon="2.474013491">
        <ele>353.42</ele>
        <time>2014-07-06T10:50:40Z</time>
      </trkpt>
      <trkpt lat="41.595275209" lon="2.473992033">
        <ele>354.86</ele>
        <time>2014-07-06T10:50:48Z</time>
      </trkpt>
      <trkpt lat="41.595433124" lon="2.473904861">
        <ele>355.34</ele>
        <time>2014-07-06T10:50:54Z</time>
      </trkpt>
      <trkpt lat="41.595599924" lon="2.473964792">
        <ele>355.83</ele>
        <time>2014-07-06T10:51:00Z</time>
      </trkpt>
      <trkpt lat="41.595686342" lon="2.474182302">
        <ele>357.27</ele>
        <time>2014-07-06T10:51:07Z</time>
      </trkpt>
      <trkpt lat="41.595801760" lon="2.474421941">
        <ele>357.27</ele>
        <time>2014-07-06T10:51:13Z</time>
      </trkpt>
      <trkpt lat="41.595948779" lon="2.474557476">
        <ele>357.27</ele>
        <time>2014-07-06T10:51:19Z</time>
      </trkpt>
      <trkpt lat="41.596161176" lon="2.474641798">
        <ele>355.34</ele>
        <time>2014-07-06T10:51:24Z</time>
      </trkpt>
      <trkpt lat="41.596438198" lon="2.474856207">
        <ele>355.34</ele>
        <time>2014-07-06T10:51:32Z</time>
      </trkpt>
      <trkpt lat="41.596639448" lon="2.474930303">
        <ele>356.79</ele>
        <time>2014-07-06T10:51:40Z</time>
      </trkpt>
      <trkpt lat="41.596759896" lon="2.474879677">
        <ele>358.23</ele>
        <time>2014-07-06T10:51:46Z</time>
      </trkpt>
      <trkpt lat="41.596862490" lon="2.474808682">
        <ele>359.67</ele>
        <time>2014-07-06T10:51:54Z</time>
      </trkpt>
      <trkpt lat="41.596984447" lon="2.474699214">
        <ele>362.55</ele>
        <time>2014-07-06T10:52:05Z</time>
      </trkpt>
      <trkpt lat="41.597034571" lon="2.474665100">
        <ele>364.48</ele>
        <time>2014-07-06T10:52:09Z</time>
      </trkpt>
      <trkpt lat="41.597083018" lon="2.474658981">
        <ele>365.44</ele>
        <time>2014-07-06T10:52:13Z</time>
      </trkpt>
      <trkpt lat="41.597221320" lon="2.474675745">
        <ele>367.36</ele>
        <time>2014-07-06T10:52:23Z</time>
      </trkpt>
      <trkpt lat="41.597349479" lon="2.474728216">
        <ele>369.76</ele>
        <time>2014-07-06T10:52:33Z</time>
      </trkpt>
      <trkpt lat="41.597486271" lon="2.474794349">
        <ele>372.65</ele>
        <time>2014-07-06T10:52:44Z</time>
      </trkpt>
      <trkpt lat="41.597579730" lon="2.474792672">
        <ele>374.09</ele>
        <time>2014-07-06T10:52:50Z</time>
      </trkpt>
      <trkpt lat="41.597698334" lon="2.474800384">
        <ele>376.01</ele>
        <time>2014-07-06T10:52:58Z</time>
      </trkpt>
      <trkpt lat="41.597858177" lon="2.474789823">
        <ele>377.94</ele>
        <time>2014-07-06T10:53:09Z</time>
      </trkpt>
      <trkpt lat="41.597967057" lon="2.474800468">
        <ele>380.82</ele>
        <time>2014-07-06T10:53:17Z</time>
      </trkpt>
      <trkpt lat="41.598113489" lon="2.474788062">
        <ele>382.74</ele>
        <time>2014-07-06T10:53:27Z</time>
      </trkpt>
      <trkpt lat="41.598239218" lon="2.474776663">
        <ele>383.70</ele>
        <time>2014-07-06T10:53:35Z</time>
      </trkpt>
      <trkpt lat="41.598346255" lon="2.474851513">
        <ele>385.63</ele>
        <time>2014-07-06T10:53:43Z</time>
      </trkpt>
      <trkpt lat="41.598395540" lon="2.474921670">
        <ele>386.59</ele>
        <time>2014-07-06T10:53:47Z</time>
      </trkpt>
      <trkpt lat="41.598479946" lon="2.475134403">
        <ele>388.99</ele>
        <time>2014-07-06T10:53:58Z</time>
      </trkpt>
      <trkpt lat="41.598562340" lon="2.475323582">
        <ele>390.91</ele>
        <time>2014-07-06T10:54:08Z</time>
      </trkpt>
      <trkpt lat="41.598656804" lon="2.475467583">
        <ele>392.84</ele>
        <time>2014-07-06T10:54:17Z</time>
      </trkpt>
      <trkpt lat="41.598685470" lon="2.475519886">
        <ele>393.80</ele>
        <time>2014-07-06T10:54:21Z</time>
      </trkpt>
      <trkpt lat="41.598804912" lon="2.475568921">
        <ele>394.28</ele>
        <time>2014-07-06T10:54:29Z</time>
      </trkpt>
      <trkpt lat="41.598828047" lon="2.475568669">
        <ele>394.28</ele>
        <time>2014-07-06T10:54:30Z</time>
      </trkpt>
      <trkpt lat="41.599046563" lon="2.475623654">
        <ele>392.84</ele>
        <time>2014-07-06T10:54:37Z</time>
      </trkpt>
      <trkpt lat="41.599092244" lon="2.475647459">
        <ele>392.84</ele>
        <time>2014-07-06T10:54:38Z</time>
      </trkpt>
      <trkpt lat="41.599229959" lon="2.475727674">
        <ele>392.36</ele>
        <time>2014-07-06T10:54:41Z</time>
      </trkpt>
      <trkpt lat="41.599611838" lon="2.476102093">
        <ele>389.95</ele>
        <time>2014-07-06T10:54:50Z</time>
      </trkpt>
      <trkpt lat="41.599769670" lon="2.476273419">
        <ele>388.99</ele>
        <time>2014-07-06T10:54:54Z</time>
      </trkpt>
      <trkpt lat="41.600030933" lon="2.476632919">
        <ele>387.55</ele>
        <time>2014-07-06T10:55:01Z</time>
      </trkpt>
      <trkpt lat="41.600191279" lon="2.476826541">
        <ele>385.63</ele>
        <time>2014-07-06T10:55:04Z</time>
      </trkpt>
      <trkpt lat="41.600550779" lon="2.477304645">
        <ele>383.70</ele>
        <time>2014-07-06T10:55:10Z</time>
      </trkpt>
      <trkpt lat="41.600744401" lon="2.477785934">
        <ele>382.26</ele>
        <time>2014-07-06T10:55:15Z</time>
      </trkpt>
      <trkpt lat="41.600772145" lon="2.477887690">
        <ele>381.78</ele>
        <time>2014-07-06T10:55:16Z</time>
      </trkpt>
      <trkpt lat="41.600987141" lon="2.478341151">
        <ele>381.78</ele>
        <time>2014-07-06T10:55:22Z</time>
      </trkpt>
      <trkpt lat="41.601139524" lon="2.478602080">
        <ele>383.22</ele>
        <time>2014-07-06T10:55:27Z</time>
      </trkpt>
      <trkpt lat="41.601348401" lon="2.478836103">
        <ele>384.66</ele>
        <time>2014-07-06T10:55:34Z</time>
      </trkpt>
      <trkpt lat="41.601476393" lon="2.478995945">
        <ele>385.63</ele>
        <time>2014-07-06T10:55:39Z</time>
      </trkpt>
      <trkpt lat="41.601657945" lon="2.479171379">
        <ele>387.55</ele>
        <time>2014-07-06T10:55:46Z</time>
      </trkpt>
      <trkpt lat="41.601760623" lon="2.479472457">
        <ele>388.99</ele>
        <time>2014-07-06T10:55:53Z</time>
      </trkpt>
      <trkpt lat="41.601934212" lon="2.479778983">
        <ele>389.47</ele>
        <time>2014-07-06T10:55:59Z</time>
      </trkpt>
      <trkpt lat="41.601970422" lon="2.479840422">
        <ele>389.47</ele>
        <time>2014-07-06T10:56:00Z</time>
      </trkpt>
      <trkpt lat="41.602130349" lon="2.480018119">
        <ele>387.55</ele>
        <time>2014-07-06T10:56:03Z</time>
      </trkpt>
      <trkpt lat="41.602501499" lon="2.480327746">
        <ele>384.18</ele>
        <time>2014-07-06T10:56:09Z</time>
      </trkpt>
      <trkpt lat="41.602673580" lon="2.480402345">
        <ele>384.18</ele>
        <time>2014-07-06T10:56:12Z</time>
      </trkpt>
      <trkpt lat="41.603036684" lon="2.480714403">
        <ele>383.22</ele>
        <time>2014-07-06T10:56:18Z</time>
      </trkpt>
      <trkpt lat="41.603194934" lon="2.480905930">
        <ele>383.22</ele>
        <time>2014-07-06T10:56:21Z</time>
      </trkpt>
      <trkpt lat="41.603325105" lon="2.481304908">
        <ele>383.22</ele>
        <time>2014-07-06T10:56:26Z</time>
      </trkpt>
      <trkpt lat="41.603358633" lon="2.481460057">
        <ele>384.66</ele>
        <time>2014-07-06T10:56:28Z</time>
      </trkpt>
      <trkpt lat="41.603411104" lon="2.481809080">
        <ele>385.63</ele>
        <time>2014-07-06T10:56:33Z</time>
      </trkpt>
      <trkpt lat="41.603490648" lon="2.482138405">
        <ele>388.03</ele>
        <time>2014-07-06T10:56:39Z</time>
      </trkpt>
      <trkpt lat="41.603714277" lon="2.482493797">
        <ele>389.95</ele>
        <time>2014-07-06T10:56:48Z</time>
      </trkpt>
      <trkpt lat="41.603961292" lon="2.482793786">
        <ele>390.91</ele>
        <time>2014-07-06T10:56:56Z</time>
      </trkpt>
      <trkpt lat="41.604152064" lon="2.483133588">
        <ele>392.36</ele>
        <time>2014-07-06T10:57:04Z</time>
      </trkpt>
      <trkpt lat="41.604214425" lon="2.483406754">
        <ele>394.76</ele>
        <time>2014-07-06T10:57:11Z</time>
      </trkpt>
      <trkpt lat="41.604234123" lon="2.483561736">
        <ele>395.24</ele>
        <time>2014-07-06T10:57:15Z</time>
      </trkpt>
      <trkpt lat="41.604368065" lon="2.483782767">
        <ele>393.80</ele>
        <time>2014-07-06T10:57:19Z</time>
      </trkpt>
      <trkpt lat="41.604653050" lon="2.484076552">
        <ele>392.36</ele>
        <time>2014-07-06T10:57:24Z</time>
      </trkpt>
      <trkpt lat="41.604770984" lon="2.484231366">
        <ele>390.91</ele>
        <time>2014-07-06T10:57:26Z</time>
      </trkpt>
      <trkpt lat="41.604874835" lon="2.484493049">
        <ele>388.99</ele>
        <time>2014-07-06T10:57:29Z</time>
      </trkpt>
      <trkpt lat="41.604847007" lon="2.484635709">
        <ele>388.99</ele>
        <time>2014-07-06T10:57:31Z</time>
      </trkpt>
      <trkpt lat="41.604868549" lon="2.484929076">
        <ele>389.47</ele>
        <time>2014-07-06T10:57:36Z</time>
      </trkpt>
      <trkpt lat="41.604904675" lon="2.484972661">
        <ele>389.47</ele>
        <time>2014-07-06T10:57:37Z</time>
      </trkpt>
      <trkpt lat="41.605132327" lon="2.485162260">
        <ele>390.43</ele>
        <time>2014-07-06T10:57:43Z</time>
      </trkpt>
      <trkpt lat="41.605289404" lon="2.485370886">
        <ele>391.39</ele>
        <time>2014-07-06T10:57:48Z</time>
      </trkpt>
      <trkpt lat="41.605433824" lon="2.485798111">
        <ele>393.80</ele>
        <time>2014-07-06T10:57:57Z</time>
      </trkpt>
      <trkpt lat="41.605571036" lon="2.486205388">
        <ele>396.20</ele>
        <time>2014-07-06T10:58:06Z</time>
      </trkpt>
      <trkpt lat="41.605534575" lon="2.486532282">
        <ele>396.20</ele>
        <time>2014-07-06T10:58:12Z</time>
      </trkpt>
      <trkpt lat="41.605521751" lon="2.486596404">
        <ele>396.20</ele>
        <time>2014-07-06T10:58:13Z</time>
      </trkpt>
      <trkpt lat="41.605568019" lon="2.486937799">
        <ele>396.20</ele>
        <time>2014-07-06T10:58:18Z</time>
      </trkpt>
      <trkpt lat="41.605646892" lon="2.487036705">
        <ele>396.20</ele>
        <time>2014-07-06T10:58:20Z</time>
      </trkpt>
      <trkpt lat="41.605715875" lon="2.487132091">
        <ele>395.72</ele>
        <time>2014-07-06T10:58:22Z</time>
      </trkpt>
      <trkpt lat="41.605909665" lon="2.487388997">
        <ele>396.20</ele>
        <time>2014-07-06T10:58:29Z</time>
      </trkpt>
      <trkpt lat="41.605965572" lon="2.487478851">
        <ele>397.16</ele>
        <time>2014-07-06T10:58:32Z</time>
      </trkpt>
      <trkpt lat="41.606050146" lon="2.487737851">
        <ele>398.60</ele>
        <time>2014-07-06T10:58:40Z</time>
      </trkpt>
      <trkpt lat="41.606121811" lon="2.487969527">
        <ele>400.53</ele>
        <time>2014-07-06T10:58:47Z</time>
      </trkpt>
      <trkpt lat="41.606241924" lon="2.488268677">
        <ele>402.45</ele>
        <time>2014-07-06T10:58:56Z</time>
      </trkpt>
      <trkpt lat="41.606365976" lon="2.488567995">
        <ele>404.37</ele>
        <time>2014-07-06T10:59:06Z</time>
      </trkpt>
      <trkpt lat="41.606503607" lon="2.488850968">
        <ele>405.81</ele>
        <time>2014-07-06T10:59:16Z</time>
      </trkpt>
      <trkpt lat="41.606575859" lon="2.489015337">
        <ele>407.26</ele>
        <time>2014-07-06T10:59:23Z</time>
      </trkpt>
      <trkpt lat="41.606607039" lon="2.489091613">
        <ele>407.26</ele>
        <time>2014-07-06T10:59:26Z</time>
      </trkpt>
      <trkpt lat="41.606639142" lon="2.489380369">
        <ele>408.22</ele>
        <time>2014-07-06T10:59:34Z</time>
      </trkpt>
      <trkpt lat="41.606639813" lon="2.489786053">
        <ele>409.66</ele>
        <time>2014-07-06T10:59:43Z</time>
      </trkpt>
      <trkpt lat="41.606774426" lon="2.489946483">
        <ele>409.66</ele>
        <time>2014-07-06T10:59:49Z</time>
      </trkpt>
      <trkpt lat="41.606989673" lon="2.490010269">
        <ele>409.66</ele>
        <time>2014-07-06T10:59:56Z</time>
      </trkpt>
      <trkpt lat="41.607302821" lon="2.490038768">
        <ele>409.66</ele>
        <time>2014-07-06T11:00:04Z</time>
      </trkpt>
      <trkpt lat="41.607516895" lon="2.490125604">
        <ele>408.70</ele>
        <time>2014-07-06T11:00:10Z</time>
      </trkpt>
      <trkpt lat="41.607769106" lon="2.490338672">
        <ele>408.70</ele>
        <time>2014-07-06T11:00:18Z</time>
      </trkpt>
      <trkpt lat="41.607853261" lon="2.490454594">
        <ele>408.70</ele>
        <time>2014-07-06T11:00:21Z</time>
      </trkpt>
      <trkpt lat="41.607888549" lon="2.490555009">
        <ele>408.70</ele>
        <time>2014-07-06T11:00:23Z</time>
      </trkpt>
      <trkpt lat="41.607858206" lon="2.490855752">
        <ele>408.70</ele>
        <time>2014-07-06T11:00:29Z</time>
      </trkpt>
      <trkpt lat="41.607801544" lon="2.490939571">
        <ele>408.70</ele>
        <time>2014-07-06T11:00:31Z</time>
      </trkpt>
      <trkpt lat="41.607648575" lon="2.491181221">
        <ele>408.70</ele>
        <time>2014-07-06T11:00:36Z</time>
      </trkpt>
      <trkpt lat="41.607671373" lon="2.491386997">
        <ele>408.70</ele>
        <time>2014-07-06T11:00:40Z</time>
      </trkpt>
      <trkpt lat="41.607824511" lon="2.491472827">
        <ele>408.70</ele>
        <time>2014-07-06T11:00:44Z</time>
      </trkpt>
      <trkpt lat="41.608041686" lon="2.491745155">
        <ele>406.77</ele>
        <time>2014-07-06T11:00:50Z</time>
      </trkpt>
      <trkpt lat="41.608121901" lon="2.491992757">
        <ele>406.77</ele>
        <time>2014-07-06T11:00:54Z</time>
      </trkpt>
      <trkpt lat="41.608340333" lon="2.492390813">
        <ele>405.33</ele>
        <time>2014-07-06T11:01:01Z</time>
      </trkpt>
      <trkpt lat="41.608524735" lon="2.492470274">
        <ele>405.33</ele>
        <time>2014-07-06T11:01:05Z</time>
      </trkpt>
      <trkpt lat="41.608659181" lon="2.492298110">
        <ele>405.33</ele>
        <time>2014-07-06T11:01:09Z</time>
      </trkpt>
      <trkpt lat="41.608679130" lon="2.492053274">
        <ele>407.26</ele>
        <time>2014-07-06T11:01:14Z</time>
      </trkpt>
      <trkpt lat="41.608677369" lon="2.491968366">
        <ele>407.74</ele>
        <time>2014-07-06T11:01:16Z</time>
      </trkpt>
      <trkpt lat="41.608710394" lon="2.491646752">
        <ele>410.14</ele>
        <time>2014-07-06T11:01:25Z</time>
      </trkpt>
      <trkpt lat="41.608821706" lon="2.491363024">
        <ele>411.58</ele>
        <time>2014-07-06T11:01:33Z</time>
      </trkpt>
      <trkpt lat="41.608976687" lon="2.491231932">
        <ele>412.54</ele>
        <time>2014-07-06T11:01:39Z</time>
      </trkpt>
      <trkpt lat="41.609086406" lon="2.491182143">
        <ele>414.47</ele>
        <time>2014-07-06T11:01:43Z</time>
      </trkpt>
      <trkpt lat="41.609303330" lon="2.491129253">
        <ele>414.95</ele>
        <time>2014-07-06T11:01:51Z</time>
      </trkpt>
      <trkpt lat="41.609511285" lon="2.491020037">
        <ele>416.39</ele>
        <time>2014-07-06T11:01:59Z</time>
      </trkpt>
      <trkpt lat="41.609576664" lon="2.490769837">
        <ele>417.35</ele>
        <time>2014-07-06T11:02:06Z</time>
      </trkpt>
      <trkpt lat="41.609647407" lon="2.490454761">
        <ele>418.31</ele>
        <time>2014-07-06T11:02:14Z</time>
      </trkpt>
      <trkpt lat="41.609689317" lon="2.490161814">
        <ele>419.27</ele>
        <time>2014-07-06T11:02:21Z</time>
      </trkpt>
      <trkpt lat="41.609809932" lon="2.489814552">
        <ele>419.27</ele>
        <time>2014-07-06T11:02:29Z</time>
      </trkpt>
      <trkpt lat="41.609853434" lon="2.489726039">
        <ele>419.27</ele>
        <time>2014-07-06T11:02:31Z</time>
      </trkpt>
      <trkpt lat="41.609933482" lon="2.489600729">
        <ele>419.27</ele>
        <time>2014-07-06T11:02:34Z</time>
      </trkpt>
      <trkpt lat="41.610069604" lon="2.489445329">
        <ele>418.31</ele>
        <time>2014-07-06T11:02:38Z</time>
      </trkpt>
      <trkpt lat="41.610109418" lon="2.489403587">
        <ele>418.31</ele>
        <time>2014-07-06T11:02:39Z</time>
      </trkpt>
      <trkpt lat="41.610344362" lon="2.489395289">
        <ele>417.83</ele>
        <time>2014-07-06T11:02:44Z</time>
      </trkpt>
      <trkpt lat="41.610477216" lon="2.489663677">
        <ele>416.87</ele>
        <time>2014-07-06T11:02:48Z</time>
      </trkpt>
      <trkpt lat="41.610676453" lon="2.490132729">
        <ele>416.39</ele>
        <time>2014-07-06T11:02:54Z</time>
      </trkpt>
      <trkpt lat="41.610685422" lon="2.490314951">
        <ele>415.43</ele>
        <time>2014-07-06T11:02:56Z</time>
      </trkpt>
      <trkpt lat="41.610656924" lon="2.490935799">
        <ele>414.95</ele>
        <time>2014-07-06T11:03:03Z</time>
      </trkpt>
      <trkpt lat="41.610650302" lon="2.491018361">
        <ele>414.95</ele>
        <time>2014-07-06T11:03:04Z</time>
      </trkpt>
      <trkpt lat="41.610704868" lon="2.491326060">
        <ele>414.47</ele>
        <time>2014-07-06T11:03:08Z</time>
      </trkpt>
      <trkpt lat="41.610798745" lon="2.491510630">
        <ele>413.98</ele>
        <time>2014-07-06T11:03:11Z</time>
      </trkpt>
      <trkpt lat="41.610875105" lon="2.491850265">
        <ele>413.98</ele>
        <time>2014-07-06T11:03:17Z</time>
      </trkpt>
      <trkpt lat="41.610838224" lon="2.492174728">
        <ele>413.98</ele>
        <time>2014-07-06T11:03:23Z</time>
      </trkpt>
      <trkpt lat="41.610815928" lon="2.492281765">
        <ele>415.43</ele>
        <time>2014-07-06T11:03:25Z</time>
      </trkpt>
      <trkpt lat="41.610807379" lon="2.492332056">
        <ele>415.43</ele>
        <time>2014-07-06T11:03:26Z</time>
      </trkpt>
      <trkpt lat="41.610875775" lon="2.492713349">
        <ele>415.91</ele>
        <time>2014-07-06T11:03:33Z</time>
      </trkpt>
      <trkpt lat="41.610992703" lon="2.493074190">
        <ele>417.35</ele>
        <time>2014-07-06T11:03:41Z</time>
      </trkpt>
      <trkpt lat="41.611029080" lon="2.493203942">
        <ele>417.35</ele>
        <time>2014-07-06T11:03:44Z</time>
      </trkpt>
      <trkpt lat="41.611124047" lon="2.493426733">
        <ele>417.35</ele>
        <time>2014-07-06T11:03:48Z</time>
      </trkpt>
      <trkpt lat="41.611372906" lon="2.493909698">
        <ele>417.83</ele>
        <time>2014-07-06T11:03:57Z</time>
      </trkpt>
      <trkpt lat="41.611496958" lon="2.494333571">
        <ele>417.83</ele>
        <time>2014-07-06T11:04:04Z</time>
      </trkpt>
      <trkpt lat="41.611563343" lon="2.494870851">
        <ele>417.83</ele>
        <time>2014-07-06T11:04:14Z</time>
      </trkpt>
      <trkpt lat="41.611600558" lon="2.495196069">
        <ele>417.83</ele>
        <time>2014-07-06T11:04:21Z</time>
      </trkpt>
      <trkpt lat="41.611651101" lon="2.495481556">
        <ele>417.83</ele>
        <time>2014-07-06T11:04:27Z</time>
      </trkpt>
      <trkpt lat="41.611807591" lon="2.495656068">
        <ele>417.83</ele>
        <time>2014-07-06T11:04:32Z</time>
      </trkpt>
      <trkpt lat="41.612000962" lon="2.495656906">
        <ele>417.83</ele>
        <time>2014-07-06T11:04:38Z</time>
      </trkpt>
      <trkpt lat="41.612243785" lon="2.495565795">
        <ele>418.31</ele>
        <time>2014-07-06T11:04:47Z</time>
      </trkpt>
      <trkpt lat="41.612370017" lon="2.495569902">
        <ele>420.71</ele>
        <time>2014-07-06T11:04:53Z</time>
      </trkpt>
      <trkpt lat="41.612480658" lon="2.495697810">
        <ele>422.16</ele>
        <time>2014-07-06T11:05:01Z</time>
      </trkpt>
      <trkpt lat="41.612496584" lon="2.495729828">
        <ele>422.16</ele>
        <time>2014-07-06T11:05:07Z</time>
      </trkpt>
      <trkpt lat="41.612534889" lon="2.495743659">
        <ele>422.16</ele>
        <time>2014-07-06T11:05:20Z</time>
      </trkpt>
      <trkpt lat="41.612536649" lon="2.495717256">
        <ele>422.16</ele>
        <time>2014-07-06T11:05:27Z</time>
      </trkpt>
      <trkpt lat="41.612529273" lon="2.495697390">
        <ele>422.16</ele>
        <time>2014-07-06T11:05:29Z</time>
      </trkpt>
      <trkpt lat="41.612433887" lon="2.495636622">
        <ele>422.16</ele>
        <time>2014-07-06T11:05:36Z</time>
      </trkpt>
      <trkpt lat="41.612329197" lon="2.495617092">
        <ele>420.23</ele>
        <time>2014-07-06T11:05:39Z</time>
      </trkpt>
      <trkpt lat="41.612088888" lon="2.495726643">
        <ele>417.83</ele>
        <time>2014-07-06T11:05:45Z</time>
      </trkpt>
      <trkpt lat="41.612060976" lon="2.495754136">
        <ele>417.83</ele>
        <time>2014-07-06T11:05:46Z</time>
      </trkpt>
      <trkpt lat="41.612024180" lon="2.495996289">
        <ele>417.35</ele>
        <time>2014-07-06T11:05:52Z</time>
      </trkpt>
      <trkpt lat="41.611985120" lon="2.496076672">
        <ele>416.39</ele>
        <time>2014-07-06T11:05:54Z</time>
      </trkpt>
      <trkpt lat="41.611888477" lon="2.496367440">
        <ele>414.47</ele>
        <time>2014-07-06T11:06:00Z</time>
      </trkpt>
      <trkpt lat="41.611756126" lon="2.496524517">
        <ele>413.02</ele>
        <time>2014-07-06T11:06:05Z</time>
      </trkpt>
      <trkpt lat="41.611553284" lon="2.496631470">
        <ele>411.58</ele>
        <time>2014-07-06T11:06:11Z</time>
      </trkpt>
      <trkpt lat="41.611513973" lon="2.496793827">
        <ele>410.62</ele>
        <time>2014-07-06T11:06:16Z</time>
      </trkpt>
      <trkpt lat="41.611617993" lon="2.497018546">
        <ele>410.14</ele>
        <time>2014-07-06T11:06:22Z</time>
      </trkpt>
      <trkpt lat="41.611692340" lon="2.497170510">
        <ele>410.14</ele>
        <time>2014-07-06T11:06:28Z</time>
      </trkpt>
      <trkpt lat="41.611708014" lon="2.497245360">
        <ele>410.14</ele>
        <time>2014-07-06T11:06:31Z</time>
      </trkpt>
      <trkpt lat="41.611723605" lon="2.497288527">
        <ele>411.10</ele>
        <time>2014-07-06T11:06:33Z</time>
      </trkpt>
      <trkpt lat="41.611862325" lon="2.497436216">
        <ele>411.58</ele>
        <time>2014-07-06T11:06:41Z</time>
      </trkpt>
      <trkpt lat="41.611908677" lon="2.497469660">
        <ele>412.54</ele>
        <time>2014-07-06T11:06:44Z</time>
      </trkpt>
      <trkpt lat="41.611979839" lon="2.497582816">
        <ele>413.50</ele>
        <time>2014-07-06T11:06:51Z</time>
      </trkpt>
      <trkpt lat="41.612061898" lon="2.497794375">
        <ele>413.50</ele>
        <time>2014-07-06T11:06:57Z</time>
      </trkpt>
      <trkpt lat="41.612092324" lon="2.497891354">
        <ele>412.06</ele>
        <time>2014-07-06T11:06:59Z</time>
      </trkpt>
      <trkpt lat="41.612136581" lon="2.498059243">
        <ele>409.18</ele>
        <time>2014-07-06T11:07:02Z</time>
      </trkpt>
      <trkpt lat="41.612136329" lon="2.498303576">
        <ele>406.77</ele>
        <time>2014-07-06T11:07:06Z</time>
      </trkpt>
      <trkpt lat="41.612135240" lon="2.498634996">
        <ele>404.85</ele>
        <time>2014-07-06T11:07:11Z</time>
      </trkpt>
      <trkpt lat="41.612108921" lon="2.498893578">
        <ele>404.85</ele>
        <time>2014-07-06T11:07:17Z</time>
      </trkpt>
      <trkpt lat="41.612060054" lon="2.498980330">
        <ele>404.85</ele>
        <time>2014-07-06T11:07:20Z</time>
      </trkpt>
      <trkpt lat="41.612125182" lon="2.499126678">
        <ele>404.85</ele>
        <time>2014-07-06T11:07:26Z</time>
      </trkpt>
      <trkpt lat="41.612192824" lon="2.499193398">
        <ele>404.85</ele>
        <time>2014-07-06T11:07:29Z</time>
      </trkpt>
      <trkpt lat="41.612258705" lon="2.499268584">
        <ele>404.37</ele>
        <time>2014-07-06T11:07:32Z</time>
      </trkpt>
      <trkpt lat="41.612345123" lon="2.499333292">
        <ele>402.45</ele>
        <time>2014-07-06T11:07:37Z</time>
      </trkpt>
      <trkpt lat="41.612368927" lon="2.499385428">
        <ele>400.53</ele>
        <time>2014-07-06T11:07:39Z</time>
      </trkpt>
      <trkpt lat="41.612452746" lon="2.499568237">
        <ele>396.68</ele>
        <time>2014-07-06T11:07:45Z</time>
      </trkpt>
      <trkpt lat="41.612525669" lon="2.499804355">
        <ele>391.87</ele>
        <time>2014-07-06T11:07:51Z</time>
      </trkpt>
      <trkpt lat="41.612548887" lon="2.499870405">
        <ele>390.91</ele>
        <time>2014-07-06T11:07:53Z</time>
      </trkpt>
      <trkpt lat="41.612595574" lon="2.499999821">
        <ele>388.51</ele>
        <time>2014-07-06T11:07:58Z</time>
      </trkpt>
      <trkpt lat="41.612651984" lon="2.500171986">
        <ele>385.63</ele>
        <time>2014-07-06T11:08:03Z</time>
      </trkpt>
      <trkpt lat="41.612731026" lon="2.500394944">
        <ele>382.26</ele>
        <time>2014-07-06T11:08:08Z</time>
      </trkpt>
      <trkpt lat="41.612819790" lon="2.500576161">
        <ele>378.90</ele>
        <time>2014-07-06T11:08:12Z</time>
      </trkpt>
      <trkpt lat="41.612903441" lon="2.500747068">
        <ele>375.53</ele>
        <time>2014-07-06T11:08:16Z</time>
      </trkpt>
      <trkpt lat="41.612969826" lon="2.500985617">
        <ele>373.13</ele>
        <time>2014-07-06T11:08:21Z</time>
      </trkpt>
      <trkpt lat="41.612981812" lon="2.501184352">
        <ele>370.24</ele>
        <time>2014-07-06T11:08:26Z</time>
      </trkpt>
      <trkpt lat="41.612965048" lon="2.501257526">
        <ele>368.80</ele>
        <time>2014-07-06T11:08:28Z</time>
      </trkpt>
      <trkpt lat="41.612943507" lon="2.501440084">
        <ele>367.36</ele>
        <time>2014-07-06T11:08:33Z</time>
      </trkpt>
      <trkpt lat="41.612933616" lon="2.501651559">
        <ele>365.44</ele>
        <time>2014-07-06T11:08:40Z</time>
      </trkpt>
      <trkpt lat="41.612952392" lon="2.501662120">
        <ele>365.44</ele>
        <time>2014-07-06T11:08:41Z</time>
      </trkpt>
      <trkpt lat="41.613052891" lon="2.501548881">
        <ele>362.07</ele>
        <time>2014-07-06T11:08:48Z</time>
      </trkpt>
      <trkpt lat="41.613179625" lon="2.501472773">
        <ele>360.63</ele>
        <time>2014-07-06T11:08:53Z</time>
      </trkpt>
      <trkpt lat="41.613351789" lon="2.501441173">
        <ele>358.23</ele>
        <time>2014-07-06T11:08:59Z</time>
      </trkpt>
      <trkpt lat="41.613452456" lon="2.501343440">
        <ele>356.31</ele>
        <time>2014-07-06T11:09:05Z</time>
      </trkpt>
      <trkpt lat="41.613505094" lon="2.501136491">
        <ele>353.42</ele>
        <time>2014-07-06T11:09:13Z</time>
      </trkpt>
      <trkpt lat="41.613514314" lon="2.500951167">
        <ele>349.58</ele>
        <time>2014-07-06T11:09:19Z</time>
      </trkpt>
      <trkpt lat="41.613513057" lon="2.500922334">
        <ele>349.58</ele>
        <time>2014-07-06T11:09:20Z</time>
      </trkpt>
      <trkpt lat="41.613526720" lon="2.500751091">
        <ele>346.21</ele>
        <time>2014-07-06T11:09:24Z</time>
      </trkpt>
      <trkpt lat="41.613549435" lon="2.500600720">
        <ele>344.29</ele>
        <time>2014-07-06T11:09:27Z</time>
      </trkpt>
      <trkpt lat="41.613527474" lon="2.500310958">
        <ele>341.41</ele>
        <time>2014-07-06T11:09:33Z</time>
      </trkpt>
      <trkpt lat="41.613558403" lon="2.500184056">
        <ele>340.92</ele>
        <time>2014-07-06T11:09:38Z</time>
      </trkpt>
      <trkpt lat="41.613585309" lon="2.500108367">
        <ele>340.44</ele>
        <time>2014-07-06T11:09:40Z</time>
      </trkpt>
      <trkpt lat="41.613689831" lon="2.500069726">
        <ele>339.96</ele>
        <time>2014-07-06T11:09:46Z</time>
      </trkpt>
      <trkpt lat="41.613762670" lon="2.500055310">
        <ele>341.41</ele>
        <time>2014-07-06T11:09:52Z</time>
      </trkpt>
      <trkpt lat="41.613792677" lon="2.500033181">
        <ele>341.41</ele>
        <time>2014-07-06T11:10:02Z</time>
      </trkpt>
      <trkpt lat="41.613804328" lon="2.500017004">
        <ele>341.41</ele>
        <time>2014-07-06T11:10:16Z</time>
      </trkpt>
      <trkpt lat="41.613838359" lon="2.499979705">
        <ele>341.41</ele>
        <time>2014-07-06T11:10:33Z</time>
      </trkpt>
      <trkpt lat="41.613824361" lon="2.499958415">
        <ele>341.41</ele>
        <time>2014-07-06T11:10:55Z</time>
      </trkpt>
      <trkpt lat="41.613840957" lon="2.499976687">
        <ele>341.41</ele>
        <time>2014-07-06T11:11:05Z</time>
      </trkpt>
      <trkpt lat="41.613856380" lon="2.499996385">
        <ele>341.41</ele>
        <time>2014-07-06T11:11:13Z</time>
      </trkpt>
      <trkpt lat="41.613885800" lon="2.500056818">
        <ele>339.96</ele>
        <time>2014-07-06T11:11:17Z</time>
      </trkpt>
      <trkpt lat="41.614030388" lon="2.500306348">
        <ele>335.16</ele>
        <time>2014-07-06T11:11:25Z</time>
      </trkpt>
      <trkpt lat="41.614150752" lon="2.500497958">
        <ele>331.31</ele>
        <time>2014-07-06T11:11:29Z</time>
      </trkpt>
      <trkpt lat="41.614212443" lon="2.500612706">
        <ele>329.87</ele>
        <time>2014-07-06T11:11:31Z</time>
      </trkpt>
      <trkpt lat="41.614290730" lon="2.500908503">
        <ele>326.50</ele>
        <time>2014-07-06T11:11:35Z</time>
      </trkpt>
      <trkpt lat="41.614402126" lon="2.501109418">
        <ele>325.06</ele>
        <time>2014-07-06T11:11:38Z</time>
      </trkpt>
      <trkpt lat="41.614527184" lon="2.501213940">
        <ele>323.62</ele>
        <time>2014-07-06T11:11:40Z</time>
      </trkpt>
      <trkpt lat="41.614668586" lon="2.501309158">
        <ele>322.66</ele>
        <time>2014-07-06T11:11:42Z</time>
      </trkpt>
      <trkpt lat="41.614863633" lon="2.501350733">
        <ele>321.70</ele>
        <time>2014-07-06T11:11:45Z</time>
      </trkpt>
      <trkpt lat="41.614959522" lon="2.501508648">
        <ele>320.26</ele>
        <time>2014-07-06T11:11:49Z</time>
      </trkpt>
      <trkpt lat="41.614955080" lon="2.501558688">
        <ele>320.26</ele>
        <time>2014-07-06T11:11:50Z</time>
      </trkpt>
      <trkpt lat="41.614958935" lon="2.501752729">
        <ele>320.26</ele>
        <time>2014-07-06T11:11:54Z</time>
      </trkpt>
      <trkpt lat="41.614984668" lon="2.501932688">
        <ele>318.81</ele>
        <time>2014-07-06T11:11:57Z</time>
      </trkpt>
      <trkpt lat="41.615062703" lon="2.502171489">
        <ele>317.85</ele>
        <time>2014-07-06T11:12:01Z</time>
      </trkpt>
      <trkpt lat="41.615162951" lon="2.502641043">
        <ele>316.89</ele>
        <time>2014-07-06T11:12:07Z</time>
      </trkpt>
      <trkpt lat="41.615272754" lon="2.502919238">
        <ele>316.41</ele>
        <time>2014-07-06T11:12:11Z</time>
      </trkpt>
      <trkpt lat="41.615337294" lon="2.503034741">
        <ele>316.41</ele>
        <time>2014-07-06T11:12:13Z</time>
      </trkpt>
      <trkpt lat="41.615413905" lon="2.503361551">
        <ele>316.41</ele>
        <time>2014-07-06T11:12:19Z</time>
      </trkpt>
      <trkpt lat="41.615430334" lon="2.503479820">
        <ele>315.45</ele>
        <time>2014-07-06T11:12:21Z</time>
      </trkpt>
      <trkpt lat="41.615437123" lon="2.503602615">
        <ele>314.01</ele>
        <time>2014-07-06T11:12:23Z</time>
      </trkpt>
      <trkpt lat="41.615406278" lon="2.503958510">
        <ele>309.68</ele>
        <time>2014-07-06T11:12:28Z</time>
      </trkpt>
      <trkpt lat="41.615366966" lon="2.504181553">
        <ele>306.80</ele>
        <time>2014-07-06T11:12:32Z</time>
      </trkpt>
      <trkpt lat="41.615274598" lon="2.504198652">
        <ele>303.91</ele>
        <time>2014-07-06T11:12:37Z</time>
      </trkpt>
      <trkpt lat="41.615245764" lon="2.504114749">
        <ele>302.95</ele>
        <time>2014-07-06T11:12:39Z</time>
      </trkpt>
      <trkpt lat="41.615147863" lon="2.503900508">
        <ele>299.11</ele>
        <time>2014-07-06T11:12:45Z</time>
      </trkpt>
      <trkpt lat="41.615051639" lon="2.503723230">
        <ele>296.70</ele>
        <time>2014-07-06T11:12:50Z</time>
      </trkpt>
      <trkpt lat="41.615030265" lon="2.503700180">
        <ele>296.70</ele>
        <time>2014-07-06T11:12:51Z</time>
      </trkpt>
      <trkpt lat="41.614976789" lon="2.503665730">
        <ele>295.26</ele>
        <time>2014-07-06T11:12:53Z</time>
      </trkpt>
      <trkpt lat="41.614896239" lon="2.503495997">
        <ele>292.86</ele>
        <time>2014-07-06T11:12:57Z</time>
      </trkpt>
      <trkpt lat="41.614770845" lon="2.503201876">
        <ele>289.01</ele>
        <time>2014-07-06T11:13:04Z</time>
      </trkpt>
      <trkpt lat="41.614647883" lon="2.503031472">
        <ele>285.65</ele>
        <time>2014-07-06T11:13:10Z</time>
      </trkpt>
      <trkpt lat="41.614560879" lon="2.502936170">
        <ele>283.25</ele>
        <time>2014-07-06T11:13:16Z</time>
      </trkpt>
      <trkpt lat="41.614513186" lon="2.502966177">
        <ele>281.80</ele>
        <time>2014-07-06T11:13:20Z</time>
      </trkpt>
      <trkpt lat="41.614572194" lon="2.503118476">
        <ele>279.88</ele>
        <time>2014-07-06T11:13:28Z</time>
      </trkpt>
      <trkpt lat="41.614560208" lon="2.503271278">
        <ele>277.48</ele>
        <time>2014-07-06T11:13:32Z</time>
      </trkpt>
      <trkpt lat="41.614481251" lon="2.503526675">
        <ele>275.07</ele>
        <time>2014-07-06T11:13:40Z</time>
      </trkpt>
      <trkpt lat="41.614480664" lon="2.503781736">
        <ele>272.19</ele>
        <time>2014-07-06T11:13:47Z</time>
      </trkpt>
      <trkpt lat="41.614456943" lon="2.503937807">
        <ele>270.27</ele>
        <time>2014-07-06T11:13:53Z</time>
      </trkpt>
      <trkpt lat="41.614413357" lon="2.504147522">
        <ele>267.86</ele>
        <time>2014-07-06T11:14:00Z</time>
      </trkpt>
      <trkpt lat="41.614442023" lon="2.504344748">
        <ele>264.02</ele>
        <time>2014-07-06T11:14:06Z</time>
      </trkpt>
      <trkpt lat="41.614476724" lon="2.504423538">
        <ele>263.54</ele>
        <time>2014-07-06T11:14:08Z</time>
      </trkpt>
      <trkpt lat="41.614528441" lon="2.504669966">
        <ele>262.10</ele>
        <time>2014-07-06T11:14:15Z</time>
      </trkpt>
      <trkpt lat="41.614550150" lon="2.504845316">
        <ele>260.65</ele>
        <time>2014-07-06T11:14:20Z</time>
      </trkpt>
      <trkpt lat="41.614540343" lon="2.504994178">
        <ele>258.25</ele>
        <time>2014-07-06T11:14:24Z</time>
      </trkpt>
      <trkpt lat="41.614582756" lon="2.505246390">
        <ele>255.37</ele>
        <time>2014-07-06T11:14:30Z</time>
      </trkpt>
      <trkpt lat="41.614663641" lon="2.505505055">
        <ele>252.00</ele>
        <time>2014-07-06T11:14:37Z</time>
      </trkpt>
      <trkpt lat="41.614741425" lon="2.505709322">
        <ele>250.08</ele>
        <time>2014-07-06T11:14:43Z</time>
      </trkpt>
      <trkpt lat="41.614800434" lon="2.505906548">
        <ele>250.08</ele>
        <time>2014-07-06T11:14:49Z</time>
      </trkpt>
      <trkpt lat="41.614831530" lon="2.506091453">
        <ele>249.60</ele>
        <time>2014-07-06T11:14:55Z</time>
      </trkpt>
      <trkpt lat="41.614884923" lon="2.506391274">
        <ele>246.72</ele>
        <time>2014-07-06T11:15:03Z</time>
      </trkpt>
      <trkpt lat="41.614931862" lon="2.506561427">
        <ele>243.35</ele>
        <time>2014-07-06T11:15:08Z</time>
      </trkpt>
      <trkpt lat="41.615025320" lon="2.506839957">
        <ele>241.43</ele>
        <time>2014-07-06T11:15:13Z</time>
      </trkpt>
      <trkpt lat="41.615049795" lon="2.506896116">
        <ele>240.47</ele>
        <time>2014-07-06T11:15:14Z</time>
      </trkpt>
      <trkpt lat="41.615127998" lon="2.507138856">
        <ele>239.02</ele>
        <time>2014-07-06T11:15:19Z</time>
      </trkpt>
      <trkpt lat="41.615188432" lon="2.507402467">
        <ele>238.06</ele>
        <time>2014-07-06T11:15:25Z</time>
      </trkpt>
      <trkpt lat="41.615213410" lon="2.507458123">
        <ele>237.58</ele>
        <time>2014-07-06T11:15:27Z</time>
      </trkpt>
      <trkpt lat="41.615374929" lon="2.507633723">
        <ele>234.70</ele>
        <time>2014-07-06T11:15:33Z</time>
      </trkpt>
      <trkpt lat="41.615416587" lon="2.507840924">
        <ele>231.33</ele>
        <time>2014-07-06T11:15:38Z</time>
      </trkpt>
      <trkpt lat="41.615387586" lon="2.508126076">
        <ele>231.33</ele>
        <time>2014-07-06T11:15:44Z</time>
      </trkpt>
      <trkpt lat="41.615451205" lon="2.508439895">
        <ele>230.37</ele>
        <time>2014-07-06T11:15:50Z</time>
      </trkpt>
      <trkpt lat="41.615470399" lon="2.508674923">
        <ele>229.89</ele>
        <time>2014-07-06T11:15:55Z</time>
      </trkpt>
      <trkpt lat="41.615452965" lon="2.509065269">
        <ele>228.93</ele>
        <time>2014-07-06T11:16:03Z</time>
      </trkpt>
      <trkpt lat="41.615523205" lon="2.509391911">
        <ele>227.49</ele>
        <time>2014-07-06T11:16:09Z</time>
      </trkpt>
      <trkpt lat="41.615671649" lon="2.509689720">
        <ele>226.53</ele>
        <time>2014-07-06T11:16:16Z</time>
      </trkpt>
      <trkpt lat="41.615693106" lon="2.509787873">
        <ele>226.05</ele>
        <time>2014-07-06T11:16:18Z</time>
      </trkpt>
      <trkpt lat="41.615788744" lon="2.510112839">
        <ele>224.61</ele>
        <time>2014-07-06T11:16:25Z</time>
      </trkpt>
      <trkpt lat="41.615810118" lon="2.510159610">
        <ele>224.61</ele>
        <time>2014-07-06T11:16:26Z</time>
      </trkpt>
      <trkpt lat="41.615888237" lon="2.510388604">
        <ele>224.12</ele>
        <time>2014-07-06T11:16:30Z</time>
      </trkpt>
      <trkpt lat="41.616020336" lon="2.510792108">
        <ele>223.64</ele>
        <time>2014-07-06T11:16:37Z</time>
      </trkpt>
      <trkpt lat="41.616076411" lon="2.510958741">
        <ele>222.20</ele>
        <time>2014-07-06T11:16:40Z</time>
      </trkpt>
      <trkpt lat="41.616208509" lon="2.511278175">
        <ele>221.72</ele>
        <time>2014-07-06T11:16:47Z</time>
      </trkpt>
      <trkpt lat="41.616327030" lon="2.511501720">
        <ele>221.24</ele>
        <time>2014-07-06T11:16:54Z</time>
      </trkpt>
      <trkpt lat="41.616472539" lon="2.511793243">
        <ele>220.28</ele>
        <time>2014-07-06T11:17:00Z</time>
      </trkpt>
      <trkpt lat="41.616660881" lon="2.512188869">
        <ele>219.32</ele>
        <time>2014-07-06T11:17:07Z</time>
      </trkpt>
      <trkpt lat="41.616709244" lon="2.512318285">
        <ele>218.84</ele>
        <time>2014-07-06T11:17:09Z</time>
      </trkpt>
      <trkpt lat="41.616802619" lon="2.512724891">
        <ele>217.88</ele>
        <time>2014-07-06T11:17:15Z</time>
      </trkpt>
      <trkpt lat="41.616834302" lon="2.512949359">
        <ele>216.91</ele>
        <time>2014-07-06T11:17:18Z</time>
      </trkpt>
      <trkpt lat="41.616860705" lon="2.513777742">
        <ele>215.47</ele>
        <time>2014-07-06T11:17:28Z</time>
      </trkpt>
      <trkpt lat="41.616868836" lon="2.514374869">
        <ele>213.07</ele>
        <time>2014-07-06T11:17:35Z</time>
      </trkpt>
      <trkpt lat="41.616869087" lon="2.514986077">
        <ele>211.63</ele>
        <time>2014-07-06T11:17:42Z</time>
      </trkpt>
      <trkpt lat="41.616853832" lon="2.515520675">
        <ele>210.19</ele>
        <time>2014-07-06T11:17:48Z</time>
      </trkpt>
      <trkpt lat="41.616839751" lon="2.516242022">
        <ele>208.26</ele>
        <time>2014-07-06T11:17:56Z</time>
      </trkpt>
      <trkpt lat="41.616797925" lon="2.516786762">
        <ele>206.82</ele>
        <time>2014-07-06T11:18:02Z</time>
      </trkpt>
      <trkpt lat="41.616752579" lon="2.517480867">
        <ele>203.94</ele>
        <time>2014-07-06T11:18:09Z</time>
      </trkpt>
      <trkpt lat="41.616723075" lon="2.518136416">
        <ele>202.49</ele>
        <time>2014-07-06T11:18:16Z</time>
      </trkpt>
      <trkpt lat="41.616703796" lon="2.518327104">
        <ele>201.53</ele>
        <time>2014-07-06T11:18:18Z</time>
      </trkpt>
      <trkpt lat="41.616588042" lon="2.518767657">
        <ele>201.05</ele>
        <time>2014-07-06T11:18:24Z</time>
      </trkpt>
      <trkpt lat="41.616458458" lon="2.519330753">
        <ele>200.09</ele>
        <time>2014-07-06T11:18:32Z</time>
      </trkpt>
      <trkpt lat="41.616395342" lon="2.519579528">
        <ele>199.13</ele>
        <time>2014-07-06T11:18:35Z</time>
      </trkpt>
      <trkpt lat="41.616228291" lon="2.520126363">
        <ele>197.21</ele>
        <time>2014-07-06T11:18:42Z</time>
      </trkpt>
      <trkpt lat="41.616068699" lon="2.520648891">
        <ele>194.80</ele>
        <time>2014-07-06T11:18:49Z</time>
      </trkpt>
      <trkpt lat="41.615959902" lon="2.521245096">
        <ele>193.84</ele>
        <time>2014-07-06T11:18:57Z</time>
      </trkpt>
      <trkpt lat="41.615903743" lon="2.521631250">
        <ele>193.36</ele>
        <time>2014-07-06T11:19:02Z</time>
      </trkpt>
      <trkpt lat="41.615812213" lon="2.522172805">
        <ele>192.40</ele>
        <time>2014-07-06T11:19:09Z</time>
      </trkpt>
      <trkpt lat="41.615710792" lon="2.522852410">
        <ele>190.48</ele>
        <time>2014-07-06T11:19:16Z</time>
      </trkpt>
      <trkpt lat="41.615641055" lon="2.523349038">
        <ele>189.04</ele>
        <time>2014-07-06T11:19:21Z</time>
      </trkpt>
      <trkpt lat="41.615601827" lon="2.523901573">
        <ele>187.11</ele>
        <time>2014-07-06T11:19:27Z</time>
      </trkpt>
      <trkpt lat="41.615565953" lon="2.524423765">
        <ele>184.71</ele>
        <time>2014-07-06T11:19:32Z</time>
      </trkpt>
      <trkpt lat="41.615530581" lon="2.524932547">
        <ele>181.83</ele>
        <time>2014-07-06T11:19:37Z</time>
      </trkpt>
      <trkpt lat="41.615510046" lon="2.525325909">
        <ele>179.90</ele>
        <time>2014-07-06T11:19:41Z</time>
      </trkpt>
      <trkpt lat="41.615514991" lon="2.525736874">
        <ele>178.46</ele>
        <time>2014-07-06T11:19:45Z</time>
      </trkpt>
      <trkpt lat="41.615578861" lon="2.526457299">
        <ele>176.54</ele>
        <time>2014-07-06T11:19:52Z</time>
      </trkpt>
      <trkpt lat="41.615549273" lon="2.527070854">
        <ele>175.58</ele>
        <time>2014-07-06T11:19:58Z</time>
      </trkpt>
      <trkpt lat="41.615432764" lon="2.527660437">
        <ele>172.69</ele>
        <time>2014-07-06T11:20:04Z</time>
      </trkpt>
      <trkpt lat="41.615267725" lon="2.528541459">
        <ele>170.29</ele>
        <time>2014-07-06T11:20:13Z</time>
      </trkpt>
      <trkpt lat="41.615171081" lon="2.529187787">
        <ele>169.81</ele>
        <time>2014-07-06T11:20:20Z</time>
      </trkpt>
      <trkpt lat="41.615160185" lon="2.529966550">
        <ele>166.93</ele>
        <time>2014-07-06T11:20:28Z</time>
      </trkpt>
      <trkpt lat="41.615157084" lon="2.530148940">
        <ele>166.93</ele>
        <time>2014-07-06T11:20:30Z</time>
      </trkpt>
      <trkpt lat="41.615156078" lon="2.530611873">
        <ele>164.04</ele>
        <time>2014-07-06T11:20:35Z</time>
      </trkpt>
      <trkpt lat="41.615104613" lon="2.531333471">
        <ele>161.64</ele>
        <time>2014-07-06T11:20:43Z</time>
      </trkpt>
      <trkpt lat="41.615181223" lon="2.531648463">
        <ele>159.72</ele>
        <time>2014-07-06T11:20:49Z</time>
      </trkpt>
      <trkpt lat="41.615201172" lon="2.531777460">
        <ele>159.72</ele>
        <time>2014-07-06T11:20:51Z</time>
      </trkpt>
      <trkpt lat="41.615203268" lon="2.531920288">
        <ele>159.24</ele>
        <time>2014-07-06T11:20:53Z</time>
      </trkpt>
      <trkpt lat="41.615174602" lon="2.532130003">
        <ele>158.27</ele>
        <time>2014-07-06T11:20:56Z</time>
      </trkpt>
      <trkpt lat="41.615016268" lon="2.532706427">
        <ele>158.27</ele>
        <time>2014-07-06T11:21:05Z</time>
      </trkpt>
      <trkpt lat="41.614878218" lon="2.533221411">
        <ele>156.83</ele>
        <time>2014-07-06T11:21:14Z</time>
      </trkpt>
      <trkpt lat="41.614817700" lon="2.533407154">
        <ele>155.39</ele>
        <time>2014-07-06T11:21:17Z</time>
      </trkpt>
      <trkpt lat="41.614657354" lon="2.533919707">
        <ele>152.99</ele>
        <time>2014-07-06T11:21:25Z</time>
      </trkpt>
      <trkpt lat="41.614639082" lon="2.533987098">
        <ele>152.99</ele>
        <time>2014-07-06T11:21:26Z</time>
      </trkpt>
      <trkpt lat="41.614399695" lon="2.534725459">
        <ele>150.58</ele>
        <time>2014-07-06T11:21:37Z</time>
      </trkpt>
      <trkpt lat="41.614242618" lon="2.535182273">
        <ele>149.14</ele>
        <time>2014-07-06T11:21:44Z</time>
      </trkpt>
      <trkpt lat="41.614091744" lon="2.535685020">
        <ele>147.22</ele>
        <time>2014-07-06T11:21:51Z</time>
      </trkpt>
      <trkpt lat="41.614045392" lon="2.535808485">
        <ele>146.74</ele>
        <time>2014-07-06T11:21:53Z</time>
      </trkpt>
      <trkpt lat="41.613866690" lon="2.536279380">
        <ele>144.82</ele>
        <time>2014-07-06T11:22:01Z</time>
      </trkpt>
      <trkpt lat="41.613793264" lon="2.536423968">
        <ele>144.34</ele>
        <time>2014-07-06T11:22:06Z</time>
      </trkpt>
      <trkpt lat="41.613722018" lon="2.536568388">
        <ele>144.34</ele>
        <time>2014-07-06T11:22:13Z</time>
      </trkpt>
      <trkpt lat="41.613615316" lon="2.536788246">
        <ele>143.37</ele>
        <time>2014-07-06T11:22:19Z</time>
      </trkpt>
      <trkpt lat="41.613391268" lon="2.537133580">
        <ele>141.93</ele>
        <time>2014-07-06T11:22:27Z</time>
      </trkpt>
      <trkpt lat="41.613109049" lon="2.537449662">
        <ele>141.45</ele>
        <time>2014-07-06T11:22:34Z</time>
      </trkpt>
      <trkpt lat="41.612948536" lon="2.537620736">
        <ele>140.97</ele>
        <time>2014-07-06T11:22:38Z</time>
      </trkpt>
      <trkpt lat="41.612626587" lon="2.538001107">
        <ele>139.53</ele>
        <time>2014-07-06T11:22:46Z</time>
      </trkpt>
      <trkpt lat="41.612298855" lon="2.538430261">
        <ele>138.09</ele>
        <time>2014-07-06T11:22:54Z</time>
      </trkpt>
      <trkpt lat="41.612234230" lon="2.538539644">
        <ele>138.09</ele>
        <time>2014-07-06T11:22:56Z</time>
      </trkpt>
      <trkpt lat="41.612066257" lon="2.538894618">
        <ele>136.16</ele>
        <time>2014-07-06T11:23:04Z</time>
      </trkpt>
      <trkpt lat="41.611952179" lon="2.539011881">
        <ele>135.68</ele>
        <time>2014-07-06T11:23:10Z</time>
      </trkpt>
      <trkpt lat="41.611936924" lon="2.539024705">
        <ele>135.68</ele>
        <time>2014-07-06T11:23:11Z</time>
      </trkpt>
      <trkpt lat="41.611856206" lon="2.538936779">
        <ele>135.68</ele>
        <time>2014-07-06T11:23:17Z</time>
      </trkpt>
      <trkpt lat="41.611833072" lon="2.538842986">
        <ele>137.13</ele>
        <time>2014-07-06T11:23:20Z</time>
      </trkpt>
      <trkpt lat="41.611740201" lon="2.538775344">
        <ele>138.57</ele>
        <time>2014-07-06T11:23:25Z</time>
      </trkpt>
      <trkpt lat="41.611488157" lon="2.538758831">
        <ele>137.13</ele>
        <time>2014-07-06T11:23:32Z</time>
      </trkpt>
      <trkpt lat="41.611159838" lon="2.538782887">
        <ele>136.16</ele>
        <time>2014-07-06T11:23:38Z</time>
      </trkpt>
      <trkpt lat="41.610709897" lon="2.538969720">
        <ele>133.28</ele>
        <time>2014-07-06T11:23:46Z</time>
      </trkpt>
      <trkpt lat="41.610662372" lon="2.538992770">
        <ele>133.28</ele>
        <time>2014-07-06T11:23:47Z</time>
      </trkpt>
      <trkpt lat="41.610417117" lon="2.539135263">
        <ele>131.84</ele>
        <time>2014-07-06T11:23:52Z</time>
      </trkpt>
      <trkpt lat="41.609917388" lon="2.539450590">
        <ele>129.43</ele>
        <time>2014-07-06T11:24:02Z</time>
      </trkpt>
      <trkpt lat="41.609681102" lon="2.539604146">
        <ele>127.99</ele>
        <time>2014-07-06T11:24:07Z</time>
      </trkpt>
      <trkpt lat="41.609336774" lon="2.539804390">
        <ele>127.03</ele>
        <time>2014-07-06T11:24:14Z</time>
      </trkpt>
      <trkpt lat="41.609143739" lon="2.540070012">
        <ele>125.11</ele>
        <time>2014-07-06T11:24:20Z</time>
      </trkpt>
      <trkpt lat="41.609080455" lon="2.540221054">
        <ele>123.67</ele>
        <time>2014-07-06T11:24:24Z</time>
      </trkpt>
      <trkpt lat="41.608884151" lon="2.540432027">
        <ele>123.19</ele>
        <time>2014-07-06T11:24:31Z</time>
      </trkpt>
      <trkpt lat="41.608868142" lon="2.540458094">
        <ele>123.19</ele>
        <time>2014-07-06T11:24:37Z</time>
      </trkpt>
      <trkpt lat="41.608856491" lon="2.540472847">
        <ele>123.19</ele>
        <time>2014-07-06T11:24:49Z</time>
      </trkpt>
      <trkpt lat="41.608852887" lon="2.540511655">
        <ele>123.19</ele>
        <time>2014-07-06T11:25:08Z</time>
      </trkpt>
      <trkpt lat="41.608863196" lon="2.540515343">
        <ele>123.19</ele>
        <time>2014-07-06T11:25:30Z</time>
      </trkpt>
      <trkpt lat="41.608858838" lon="2.540515930">
        <ele>124.15</ele>
        <time>2014-07-06T11:25:48Z</time>
      </trkpt>
      <trkpt lat="41.608860598" lon="2.540521210">
        <ele>124.63</ele>
        <time>2014-07-06T11:26:12Z</time>
      </trkpt>
      <trkpt lat="41.608847941" lon="2.540540908">
        <ele>124.63</ele>
        <time>2014-07-06T11:26:27Z</time>
      </trkpt>
      <trkpt lat="41.608849953" lon="2.540534286">
        <ele>124.63</ele>
        <time>2014-07-06T11:26:38Z</time>
      </trkpt>
      <trkpt lat="41.608841571" lon="2.540526826">
        <ele>124.63</ele>
        <time>2014-07-06T11:26:52Z</time>
      </trkpt>
      <trkpt lat="41.608835787" lon="2.540540740">
        <ele>124.63</ele>
        <time>2014-07-06T11:27:02Z</time>
      </trkpt>
      <trkpt lat="41.608834782" lon="2.540548954">
        <ele>124.63</ele>
        <time>2014-07-06T11:27:17Z</time>
      </trkpt>
      <trkpt lat="41.608840649" lon="2.540529508">
        <ele>124.63</ele>
        <time>2014-07-06T11:27:32Z</time>
      </trkpt>
      <trkpt lat="41.608837464" lon="2.540522719">
        <ele>124.63</ele>
        <time>2014-07-06T11:27:46Z</time>
      </trkpt>
      <trkpt lat="41.608834111" lon="2.540530766">
        <ele>124.63</ele>
        <time>2014-07-06T11:28:06Z</time>
      </trkpt>
      <trkpt lat="41.608831513" lon="2.540528838">
        <ele>124.63</ele>
        <time>2014-07-06T11:28:20Z</time>
      </trkpt>
      <trkpt lat="41.608820700" lon="2.540536465">
        <ele>124.63</ele>
        <time>2014-07-06T11:28:40Z</time>
      </trkpt>
      <trkpt lat="41.608824556" lon="2.540542165">
        <ele>124.63</ele>
        <time>2014-07-06T11:28:52Z</time>
      </trkpt>
      <trkpt lat="41.608819024" lon="2.540537806">
        <ele>124.63</ele>
        <time>2014-07-06T11:29:01Z</time>
      </trkpt>
      <trkpt lat="41.608826400" lon="2.540535208">
        <ele>124.63</ele>
        <time>2014-07-06T11:29:14Z</time>
      </trkpt>
      <trkpt lat="41.608814246" lon="2.540533280">
        <ele>124.63</ele>
        <time>2014-07-06T11:29:17Z</time>
      </trkpt>
      <trkpt lat="41.608786167" lon="2.540412162">
        <ele>123.67</ele>
        <time>2014-07-06T11:29:23Z</time>
      </trkpt>
      <trkpt lat="41.608636885" lon="2.540396487">
        <ele>123.19</ele>
        <time>2014-07-06T11:29:30Z</time>
      </trkpt>
      <trkpt lat="41.608456842" lon="2.540439654">
        <ele>122.71</ele>
        <time>2014-07-06T11:29:36Z</time>
      </trkpt>
      <trkpt lat="41.608192560" lon="2.540488605">
        <ele>122.71</ele>
        <time>2014-07-06T11:29:44Z</time>
      </trkpt>
      <trkpt lat="41.607877065" lon="2.540518025">
        <ele>121.74</ele>
        <time>2014-07-06T11:29:53Z</time>
      </trkpt>
      <trkpt lat="41.607627955" lon="2.540540824">
        <ele>120.78</ele>
        <time>2014-07-06T11:30:01Z</time>
      </trkpt>
      <trkpt lat="41.607565761" lon="2.540522216">
        <ele>120.78</ele>
        <time>2014-07-06T11:30:03Z</time>
      </trkpt>
      <trkpt lat="41.607160496" lon="2.540374443">
        <ele>118.86</ele>
        <time>2014-07-06T11:30:11Z</time>
      </trkpt>
      <trkpt lat="41.607001827" lon="2.540332953">
        <ele>117.90</ele>
        <time>2014-07-06T11:30:14Z</time>
      </trkpt>
      <trkpt lat="41.606527495" lon="2.540199261">
        <ele>116.46</ele>
        <time>2014-07-06T11:30:23Z</time>
      </trkpt>
      <trkpt lat="41.606242678" lon="2.540156514">
        <ele>115.50</ele>
        <time>2014-07-06T11:30:29Z</time>
      </trkpt>
      <trkpt lat="41.606117955" lon="2.540206973">
        <ele>115.01</ele>
        <time>2014-07-06T11:30:34Z</time>
      </trkpt>
      <trkpt lat="41.606092139" lon="2.540221557">
        <ele>114.53</ele>
        <time>2014-07-06T11:30:47Z</time>
      </trkpt>
      <trkpt lat="41.606053499" lon="2.540261287">
        <ele>114.53</ele>
        <time>2014-07-06T11:30:55Z</time>
      </trkpt>
      <trkpt lat="41.606016031" lon="2.540334210">
        <ele>114.53</ele>
        <time>2014-07-06T11:30:58Z</time>
      </trkpt>
      <trkpt lat="41.605919388" lon="2.540375533">
        <ele>115.98</ele>
        <time>2014-07-06T11:31:04Z</time>
      </trkpt>
      <trkpt lat="41.605907989" lon="2.540385591">
        <ele>115.98</ele>
        <time>2014-07-06T11:31:05Z</time>
      </trkpt>
      <trkpt lat="41.605905223" lon="2.540482234">
        <ele>115.98</ele>
        <time>2014-07-06T11:31:10Z</time>
      </trkpt>
      <trkpt lat="41.606005806" lon="2.540630594">
        <ele>115.98</ele>
        <time>2014-07-06T11:31:17Z</time>
      </trkpt>
      <trkpt lat="41.606165648" lon="2.540696811">
        <ele>116.46</ele>
        <time>2014-07-06T11:31:25Z</time>
      </trkpt>
      <trkpt lat="41.606405119" lon="2.540717933">
        <ele>116.94</ele>
        <time>2014-07-06T11:31:35Z</time>
      </trkpt>
      <trkpt lat="41.606529758" lon="2.540847937">
        <ele>117.42</ele>
        <time>2014-07-06T11:31:42Z</time>
      </trkpt>
      <trkpt lat="41.606613410" lon="2.541001409">
        <ele>118.38</ele>
        <time>2014-07-06T11:31:48Z</time>
      </trkpt>
      <trkpt lat="41.606686500" lon="2.541235851">
        <ele>119.82</ele>
        <time>2014-07-06T11:31:57Z</time>
      </trkpt>
      <trkpt lat="41.606784820" lon="2.541560985">
        <ele>122.22</ele>
        <time>2014-07-06T11:32:09Z</time>
      </trkpt>
      <trkpt lat="41.606868890" lon="2.541849071">
        <ele>124.63</ele>
        <time>2014-07-06T11:32:20Z</time>
      </trkpt>
      <trkpt lat="41.606959331" lon="2.542109329">
        <ele>126.07</ele>
        <time>2014-07-06T11:32:30Z</time>
      </trkpt>
      <trkpt lat="41.606975843" lon="2.542160375">
        <ele>126.55</ele>
        <time>2014-07-06T11:32:32Z</time>
      </trkpt>
      <trkpt lat="41.606983052" lon="2.542235812">
        <ele>127.03</ele>
        <time>2014-07-06T11:32:39Z</time>
      </trkpt>
      <trkpt lat="41.606979280" lon="2.542267915">
        <ele>127.03</ele>
        <time>2014-07-06T11:32:41Z</time>
      </trkpt>
      <trkpt lat="41.607019178" lon="2.542330276">
        <ele>127.51</ele>
        <time>2014-07-06T11:32:45Z</time>
      </trkpt>
      <trkpt lat="41.607061674" lon="2.542347459">
        <ele>127.99</ele>
        <time>2014-07-06T11:32:53Z</time>
      </trkpt>
      <trkpt lat="41.607075923" lon="2.542355254">
        <ele>127.99</ele>
        <time>2014-07-06T11:33:01Z</time>
      </trkpt>
      <trkpt lat="41.607091346" lon="2.542364642">
        <ele>128.47</ele>
        <time>2014-07-06T11:33:11Z</time>
      </trkpt>
      <trkpt lat="41.607105092" lon="2.542365648">
        <ele>128.47</ele>
        <time>2014-07-06T11:33:19Z</time>
      </trkpt>
      <trkpt lat="41.607096040" lon="2.542387189">
        <ele>128.47</ele>
        <time>2014-07-06T11:33:35Z</time>
      </trkpt>
      <trkpt lat="41.607086400" lon="2.542418789">
        <ele>128.47</ele>
        <time>2014-07-06T11:33:51Z</time>
      </trkpt>
    </trkseg>
  </trk>
</gpx>
